<?xml version="1.0" encoding="UTF-8" standalone="no" ?>
<gpx xmlns="http://www.topografix.com/GPX/1/1" xmlns:xsi="http://www.w3.org/2001/XMLSchema-instance" xsi:schemaLocation="http://www.topografix.com/GPX/1/1 http://www.topografix.com/GPX/1/1/gpx.xsd" version="1.1" creator="VisuGPX - https://www.visugpx.com">
  <metadata>
    <name>Du pas de l\'Oeil à Sphie</name>
    <desc><![CDATA[Montée par la combe Charbonnière retour par les pistes]]></desc>
  </metadata>
  <trk>
    <name><![CDATA[2013-01-12-02-pas de l-oeil-MNT-MNT]]></name>
    <trkseg>
      <trkpt lat="45.05219" lon="5.56259">
        <ele>1239.371338</ele>
        <time>2013-01-12T08:35:34Z</time>
      </trkpt>
      <trkpt lat="45.05226" lon="5.56268">
        <ele>1241.096558</ele>
        <time>2013-01-12T08:41:03Z</time>
      </trkpt>
      <trkpt lat="45.05226" lon="5.56269">
        <ele>1241.137451</ele>
        <time>2013-01-12T08:41:04Z</time>
      </trkpt>
      <trkpt lat="45.05222" lon="5.56292">
        <ele>1241.81958</ele>
        <time>2013-01-12T08:42:15Z</time>
      </trkpt>
      <trkpt lat="45.05222" lon="5.56292">
        <ele>1241.751465</ele>
        <time>2013-01-12T08:42:16Z</time>
      </trkpt>
      <trkpt lat="45.05219" lon="5.56316">
        <ele>1242.165649</ele>
        <time>2013-01-12T08:42:38Z</time>
      </trkpt>
      <trkpt lat="45.05218" lon="5.56327">
        <ele>1242.356323</ele>
        <time>2013-01-12T08:42:47Z</time>
      </trkpt>
      <trkpt lat="45.05216" lon="5.56339">
        <ele>1242.441162</ele>
        <time>2013-01-12T08:42:56Z</time>
      </trkpt>
      <trkpt lat="45.05215" lon="5.56351">
        <ele>1242.614136</ele>
        <time>2013-01-12T08:43:05Z</time>
      </trkpt>
      <trkpt lat="45.05214" lon="5.56363">
        <ele>1242.901001</ele>
        <time>2013-01-12T08:43:15Z</time>
      </trkpt>
      <trkpt lat="45.05212" lon="5.56375">
        <ele>1242.869751</ele>
        <time>2013-01-12T08:43:24Z</time>
      </trkpt>
      <trkpt lat="45.05211" lon="5.56376">
        <ele>1242.838013</ele>
        <time>2013-01-12T08:43:25Z</time>
      </trkpt>
      <trkpt lat="45.0521" lon="5.56399">
        <ele>1243.855713</ele>
        <time>2013-01-12T08:43:42Z</time>
      </trkpt>
      <trkpt lat="45.0521" lon="5.56411">
        <ele>1244.940063</ele>
        <time>2013-01-12T08:43:51Z</time>
      </trkpt>
      <trkpt lat="45.0521" lon="5.56423">
        <ele>1245.95105</ele>
        <time>2013-01-12T08:44:01Z</time>
      </trkpt>
      <trkpt lat="45.05209" lon="5.56435">
        <ele>1246.727051</ele>
        <time>2013-01-12T08:44:13Z</time>
      </trkpt>
      <trkpt lat="45.05208" lon="5.56447">
        <ele>1247.647949</ele>
        <time>2013-01-12T08:44:24Z</time>
      </trkpt>
      <trkpt lat="45.05207" lon="5.5646">
        <ele>1248.608643</ele>
        <time>2013-01-12T08:44:33Z</time>
      </trkpt>
      <trkpt lat="45.05207" lon="5.56461">
        <ele>1248.718994</ele>
        <time>2013-01-12T08:44:34Z</time>
      </trkpt>
      <trkpt lat="45.05207" lon="5.56484">
        <ele>1250.721191</ele>
        <time>2013-01-12T08:44:52Z</time>
      </trkpt>
      <trkpt lat="45.05206" lon="5.56495">
        <ele>1251.686523</ele>
        <time>2013-01-12T08:45:01Z</time>
      </trkpt>
      <trkpt lat="45.05206" lon="5.56507">
        <ele>1252.755493</ele>
        <time>2013-01-12T08:45:10Z</time>
      </trkpt>
      <trkpt lat="45.05205" lon="5.5652">
        <ele>1253.927124</ele>
        <time>2013-01-12T08:45:21Z</time>
      </trkpt>
      <trkpt lat="45.05203" lon="5.56531">
        <ele>1255.184814</ele>
        <time>2013-01-12T08:45:30Z</time>
      </trkpt>
      <trkpt lat="45.05202" lon="5.56543">
        <ele>1256.558594</ele>
        <time>2013-01-12T08:45:39Z</time>
      </trkpt>
      <trkpt lat="45.05202" lon="5.56544">
        <ele>1256.712769</ele>
        <time>2013-01-12T08:45:40Z</time>
      </trkpt>
      <trkpt lat="45.05197" lon="5.56566">
        <ele>1259.074463</ele>
        <time>2013-01-12T08:45:58Z</time>
      </trkpt>
      <trkpt lat="45.05194" lon="5.56577">
        <ele>1260.373779</ele>
        <time>2013-01-12T08:46:08Z</time>
      </trkpt>
      <trkpt lat="45.05194" lon="5.56589">
        <ele>1261.77832</ele>
        <time>2013-01-12T08:46:17Z</time>
      </trkpt>
      <trkpt lat="45.05193" lon="5.56601">
        <ele>1263.180908</ele>
        <time>2013-01-12T08:46:27Z</time>
      </trkpt>
      <trkpt lat="45.05192" lon="5.56613">
        <ele>1264.580322</ele>
        <time>2013-01-12T08:46:37Z</time>
      </trkpt>
      <trkpt lat="45.0519" lon="5.56625">
        <ele>1265.937378</ele>
        <time>2013-01-12T08:46:48Z</time>
      </trkpt>
      <trkpt lat="45.0519" lon="5.56626">
        <ele>1266.054443</ele>
        <time>2013-01-12T08:46:49Z</time>
      </trkpt>
      <trkpt lat="45.05191" lon="5.56649">
        <ele>1269.232544</ele>
        <time>2013-01-12T08:47:11Z</time>
      </trkpt>
      <trkpt lat="45.05191" lon="5.56661">
        <ele>1271.109985</ele>
        <time>2013-01-12T08:47:21Z</time>
      </trkpt>
      <trkpt lat="45.0519" lon="5.56674">
        <ele>1273.059937</ele>
        <time>2013-01-12T08:47:32Z</time>
      </trkpt>
      <trkpt lat="45.05189" lon="5.56686">
        <ele>1274.949951</ele>
        <time>2013-01-12T08:47:43Z</time>
      </trkpt>
      <trkpt lat="45.05191" lon="5.56698">
        <ele>1276.984985</ele>
        <time>2013-01-12T08:48:04Z</time>
      </trkpt>
      <trkpt lat="45.05191" lon="5.567">
        <ele>1277.192505</ele>
        <time>2013-01-12T08:48:05Z</time>
      </trkpt>
      <trkpt lat="45.05189" lon="5.56722">
        <ele>1281.290039</ele>
        <time>2013-01-12T08:48:30Z</time>
      </trkpt>
      <trkpt lat="45.05189" lon="5.56735">
        <ele>1283.655029</ele>
        <time>2013-01-12T08:48:42Z</time>
      </trkpt>
      <trkpt lat="45.0519" lon="5.56747">
        <ele>1285.984985</ele>
        <time>2013-01-12T08:48:53Z</time>
      </trkpt>
      <trkpt lat="45.05189" lon="5.56759">
        <ele>1288.310059</ele>
        <time>2013-01-12T08:49:07Z</time>
      </trkpt>
      <trkpt lat="45.05188" lon="5.5676">
        <ele>1288.425049</ele>
        <time>2013-01-12T08:49:08Z</time>
      </trkpt>
      <trkpt lat="45.05178" lon="5.56779">
        <ele>1292.102051</ele>
        <time>2013-01-12T08:49:30Z</time>
      </trkpt>
      <trkpt lat="45.05175" lon="5.5679">
        <ele>1294.658081</ele>
        <time>2013-01-12T08:49:41Z</time>
      </trkpt>
      <trkpt lat="45.05174" lon="5.56802">
        <ele>1297.4021</ele>
        <time>2013-01-12T08:49:51Z</time>
      </trkpt>
      <trkpt lat="45.05172" lon="5.56814">
        <ele>1300.065796</ele>
        <time>2013-01-12T08:50:02Z</time>
      </trkpt>
      <trkpt lat="45.05152" lon="5.56906">
        <ele>1313.36853</ele>
        <time>2013-01-12T08:50:15Z</time>
      </trkpt>
      <trkpt lat="45.05149" lon="5.57047">
        <ele>1328.906372</ele>
        <time>2013-01-12T08:50:16Z</time>
      </trkpt>
      <trkpt lat="45.05138" lon="5.57064">
        <ele>1331.391724</ele>
        <time>2013-01-12T08:50:39Z</time>
      </trkpt>
      <trkpt lat="45.05113" lon="5.5708">
        <ele>1335.54834</ele>
        <time>2013-01-12T08:50:50Z</time>
      </trkpt>
      <trkpt lat="45.05059" lon="5.5708">
        <ele>1336.712158</ele>
        <time>2013-01-12T08:51:01Z</time>
      </trkpt>
      <trkpt lat="45.05015" lon="5.57063">
        <ele>1335.072388</ele>
        <time>2013-01-12T08:51:12Z</time>
      </trkpt>
      <trkpt lat="45.04978" lon="5.57047">
        <ele>1335.660645</ele>
        <time>2013-01-12T08:51:22Z</time>
      </trkpt>
      <trkpt lat="45.04935" lon="5.57025">
        <ele>1336.915771</ele>
        <time>2013-01-12T08:51:23Z</time>
      </trkpt>
      <trkpt lat="45.04902" lon="5.57022">
        <ele>1340.900391</ele>
        <time>2013-01-12T08:51:34Z</time>
      </trkpt>
      <trkpt lat="45.04868" lon="5.5701">
        <ele>1341.172485</ele>
        <time>2013-01-12T08:58:24Z</time>
      </trkpt>
      <trkpt lat="45.04862" lon="5.57018">
        <ele>1343.266235</ele>
        <time>2013-01-12T08:59:42Z</time>
      </trkpt>
      <trkpt lat="45.0486" lon="5.57019">
        <ele>1343.581055</ele>
        <time>2013-01-12T08:59:43Z</time>
      </trkpt>
      <trkpt lat="45.0485" lon="5.57034">
        <ele>1347.227417</ele>
        <time>2013-01-12T08:59:54Z</time>
      </trkpt>
      <trkpt lat="45.04843" lon="5.57042">
        <ele>1348.986328</ele>
        <time>2013-01-12T09:00:01Z</time>
      </trkpt>
      <trkpt lat="45.04836" lon="5.5705">
        <ele>1350.303589</ele>
        <time>2013-01-12T09:00:08Z</time>
      </trkpt>
      <trkpt lat="45.04831" lon="5.57059">
        <ele>1351.669678</ele>
        <time>2013-01-12T09:00:15Z</time>
      </trkpt>
      <trkpt lat="45.04827" lon="5.57069">
        <ele>1352.796021</ele>
        <time>2013-01-12T09:00:21Z</time>
      </trkpt>
      <trkpt lat="45.04821" lon="5.57079">
        <ele>1353.037109</ele>
        <time>2013-01-12T09:00:26Z</time>
      </trkpt>
      <trkpt lat="45.04816" lon="5.57089">
        <ele>1353.463013</ele>
        <time>2013-01-12T09:00:32Z</time>
      </trkpt>
      <trkpt lat="45.04811" lon="5.57099">
        <ele>1353.761841</ele>
        <time>2013-01-12T09:00:39Z</time>
      </trkpt>
      <trkpt lat="45.04807" lon="5.57109">
        <ele>1354.076294</ele>
        <time>2013-01-12T09:00:46Z</time>
      </trkpt>
      <trkpt lat="45.04806" lon="5.57111">
        <ele>1354.13623</ele>
        <time>2013-01-12T09:00:47Z</time>
      </trkpt>
      <trkpt lat="45.04797" lon="5.57127">
        <ele>1354.348389</ele>
        <time>2013-01-12T09:00:59Z</time>
      </trkpt>
      <trkpt lat="45.04794" lon="5.57139">
        <ele>1354.421997</ele>
        <time>2013-01-12T09:01:06Z</time>
      </trkpt>
      <trkpt lat="45.04792" lon="5.5715">
        <ele>1354.573975</ele>
        <time>2013-01-12T09:01:12Z</time>
      </trkpt>
      <trkpt lat="45.0479" lon="5.57161">
        <ele>1354.631958</ele>
        <time>2013-01-12T09:01:18Z</time>
      </trkpt>
      <trkpt lat="45.04787" lon="5.57173">
        <ele>1354.700806</ele>
        <time>2013-01-12T09:01:25Z</time>
      </trkpt>
      <trkpt lat="45.04784" lon="5.57184">
        <ele>1354.711914</ele>
        <time>2013-01-12T09:01:31Z</time>
      </trkpt>
      <trkpt lat="45.04781" lon="5.57194">
        <ele>1354.40625</ele>
        <time>2013-01-12T09:01:36Z</time>
      </trkpt>
      <trkpt lat="45.04778" lon="5.57205">
        <ele>1353.903809</ele>
        <time>2013-01-12T09:01:41Z</time>
      </trkpt>
      <trkpt lat="45.04777" lon="5.57217">
        <ele>1353.63623</ele>
        <time>2013-01-12T09:01:47Z</time>
      </trkpt>
      <trkpt lat="45.04777" lon="5.57229">
        <ele>1353.496216</ele>
        <time>2013-01-12T09:01:54Z</time>
      </trkpt>
      <trkpt lat="45.04777" lon="5.5723">
        <ele>1353.461182</ele>
        <time>2013-01-12T09:01:55Z</time>
      </trkpt>
      <trkpt lat="45.04774" lon="5.57251">
        <ele>1352.862549</ele>
        <time>2013-01-12T09:02:05Z</time>
      </trkpt>
      <trkpt lat="45.04775" lon="5.57263">
        <ele>1352.519775</ele>
        <time>2013-01-12T09:02:11Z</time>
      </trkpt>
      <trkpt lat="45.04776" lon="5.57275">
        <ele>1352.241455</ele>
        <time>2013-01-12T09:02:18Z</time>
      </trkpt>
      <trkpt lat="45.04778" lon="5.57286">
        <ele>1351.946777</ele>
        <time>2013-01-12T09:02:24Z</time>
      </trkpt>
      <trkpt lat="45.04778" lon="5.57299">
        <ele>1351.515991</ele>
        <time>2013-01-12T09:02:31Z</time>
      </trkpt>
      <trkpt lat="45.04779" lon="5.57311">
        <ele>1351.090088</ele>
        <time>2013-01-12T09:02:39Z</time>
      </trkpt>
      <trkpt lat="45.0478" lon="5.57324">
        <ele>1350.318604</ele>
        <time>2013-01-12T09:02:47Z</time>
      </trkpt>
      <trkpt lat="45.0478" lon="5.57335">
        <ele>1349.179565</ele>
        <time>2013-01-12T09:02:54Z</time>
      </trkpt>
      <trkpt lat="45.04782" lon="5.57347">
        <ele>1348.142944</ele>
        <time>2013-01-12T09:03:02Z</time>
      </trkpt>
      <trkpt lat="45.04782" lon="5.57349">
        <ele>1348.029419</ele>
        <time>2013-01-12T09:03:03Z</time>
      </trkpt>
      <trkpt lat="45.04783" lon="5.5737">
        <ele>1345.863159</ele>
        <time>2013-01-12T09:03:21Z</time>
      </trkpt>
      <trkpt lat="45.04777" lon="5.57378">
        <ele>1344.745117</ele>
        <time>2013-01-12T09:03:32Z</time>
      </trkpt>
      <trkpt lat="45.0477" lon="5.57385">
        <ele>1343.328003</ele>
        <time>2013-01-12T09:03:44Z</time>
      </trkpt>
      <trkpt lat="45.04765" lon="5.57395">
        <ele>1341.667603</ele>
        <time>2013-01-12T09:03:57Z</time>
      </trkpt>
      <trkpt lat="45.04766" lon="5.57407">
        <ele>1339.847046</ele>
        <time>2013-01-12T09:04:03Z</time>
      </trkpt>
      <trkpt lat="45.04772" lon="5.57416">
        <ele>1338.614258</ele>
        <time>2013-01-12T09:04:09Z</time>
      </trkpt>
      <trkpt lat="45.04773" lon="5.57417">
        <ele>1338.417969</ele>
        <time>2013-01-12T09:04:10Z</time>
      </trkpt>
      <trkpt lat="45.04782" lon="5.57434">
        <ele>1335.613281</ele>
        <time>2013-01-12T09:04:22Z</time>
      </trkpt>
      <trkpt lat="45.0479" lon="5.57438">
        <ele>1334.973389</ele>
        <time>2013-01-12T09:05:00Z</time>
      </trkpt>
      <trkpt lat="45.0479" lon="5.57451">
        <ele>1332.002319</ele>
        <time>2013-01-12T09:07:05Z</time>
      </trkpt>
      <trkpt lat="45.0479" lon="5.57453">
        <ele>1331.394043</ele>
        <time>2013-01-12T09:07:06Z</time>
      </trkpt>
      <trkpt lat="45.04782" lon="5.57472">
        <ele>1326.615845</ele>
        <time>2013-01-12T09:07:15Z</time>
      </trkpt>
      <trkpt lat="45.04776" lon="5.5748">
        <ele>1324.623901</ele>
        <time>2013-01-12T09:07:22Z</time>
      </trkpt>
      <trkpt lat="45.04771" lon="5.57489">
        <ele>1322.846436</ele>
        <time>2013-01-12T09:07:28Z</time>
      </trkpt>
      <trkpt lat="45.04764" lon="5.57496">
        <ele>1321.408936</ele>
        <time>2013-01-12T09:07:35Z</time>
      </trkpt>
      <trkpt lat="45.04762" lon="5.57507">
        <ele>1319.060913</ele>
        <time>2013-01-12T09:07:44Z</time>
      </trkpt>
      <trkpt lat="45.04757" lon="5.57518">
        <ele>1317.773071</ele>
        <time>2013-01-12T09:07:51Z</time>
      </trkpt>
      <trkpt lat="45.04749" lon="5.57519">
        <ele>1318.372925</ele>
        <time>2013-01-12T09:07:59Z</time>
      </trkpt>
      <trkpt lat="45.04742" lon="5.57525">
        <ele>1318.330566</ele>
        <time>2013-01-12T09:08:06Z</time>
      </trkpt>
      <trkpt lat="45.04735" lon="5.5753">
        <ele>1318.196655</ele>
        <time>2013-01-12T09:08:12Z</time>
      </trkpt>
      <trkpt lat="45.04734" lon="5.5753">
        <ele>1318.132202</ele>
        <time>2013-01-12T09:08:13Z</time>
      </trkpt>
      <trkpt lat="45.04721" lon="5.57544">
        <ele>1316.558838</ele>
        <time>2013-01-12T09:08:25Z</time>
      </trkpt>
      <trkpt lat="45.04716" lon="5.57551">
        <ele>1315.540771</ele>
        <time>2013-01-12T09:08:29Z</time>
      </trkpt>
      <trkpt lat="45.0471" lon="5.5756">
        <ele>1314.348389</ele>
        <time>2013-01-12T09:08:33Z</time>
      </trkpt>
      <trkpt lat="45.04704" lon="5.57567">
        <ele>1313.300049</ele>
        <time>2013-01-12T09:08:36Z</time>
      </trkpt>
      <trkpt lat="45.04698" lon="5.57576">
        <ele>1312.699951</ele>
        <time>2013-01-12T09:08:40Z</time>
      </trkpt>
      <trkpt lat="45.04694" lon="5.57586">
        <ele>1311.922485</ele>
        <time>2013-01-12T09:08:45Z</time>
      </trkpt>
      <trkpt lat="45.04692" lon="5.57596">
        <ele>1311.012451</ele>
        <time>2013-01-12T09:08:49Z</time>
      </trkpt>
      <trkpt lat="45.04691" lon="5.57608">
        <ele>1309.954956</ele>
        <time>2013-01-12T09:08:54Z</time>
      </trkpt>
      <trkpt lat="45.04686" lon="5.57618">
        <ele>1308.851807</ele>
        <time>2013-01-12T09:09:01Z</time>
      </trkpt>
      <trkpt lat="45.0468" lon="5.57626">
        <ele>1307.742065</ele>
        <time>2013-01-12T09:09:08Z</time>
      </trkpt>
      <trkpt lat="45.04674" lon="5.57635">
        <ele>1307.645142</ele>
        <time>2013-01-12T09:09:15Z</time>
      </trkpt>
      <trkpt lat="45.04673" lon="5.57636">
        <ele>1307.640503</ele>
        <time>2013-01-12T09:09:16Z</time>
      </trkpt>
      <trkpt lat="45.04659" lon="5.57648">
        <ele>1307.423096</ele>
        <time>2013-01-12T09:09:29Z</time>
      </trkpt>
      <trkpt lat="45.04651" lon="5.57654">
        <ele>1307.28064</ele>
        <time>2013-01-12T09:09:36Z</time>
      </trkpt>
      <trkpt lat="45.04644" lon="5.57661">
        <ele>1307.115479</ele>
        <time>2013-01-12T09:09:44Z</time>
      </trkpt>
      <trkpt lat="45.04639" lon="5.57669">
        <ele>1307.313721</ele>
        <time>2013-01-12T09:09:52Z</time>
      </trkpt>
      <trkpt lat="45.04633" lon="5.57679">
        <ele>1307.632446</ele>
        <time>2013-01-12T09:10:01Z</time>
      </trkpt>
      <trkpt lat="45.04628" lon="5.57688">
        <ele>1307.983276</ele>
        <time>2013-01-12T09:10:10Z</time>
      </trkpt>
      <trkpt lat="45.04621" lon="5.57696">
        <ele>1309.237305</ele>
        <time>2013-01-12T09:10:19Z</time>
      </trkpt>
      <trkpt lat="45.04621" lon="5.57697">
        <ele>1309.369263</ele>
        <time>2013-01-12T09:10:20Z</time>
      </trkpt>
      <trkpt lat="45.04609" lon="5.57713">
        <ele>1311.684692</ele>
        <time>2013-01-12T09:10:37Z</time>
      </trkpt>
      <trkpt lat="45.04604" lon="5.57722">
        <ele>1312.746338</ele>
        <time>2013-01-12T09:10:45Z</time>
      </trkpt>
      <trkpt lat="45.04599" lon="5.57731">
        <ele>1313.736694</ele>
        <time>2013-01-12T09:10:53Z</time>
      </trkpt>
      <trkpt lat="45.04593" lon="5.57741">
        <ele>1314.609131</ele>
        <time>2013-01-12T09:11:02Z</time>
      </trkpt>
      <trkpt lat="45.04588" lon="5.5775">
        <ele>1315.430298</ele>
        <time>2013-01-12T09:11:11Z</time>
      </trkpt>
      <trkpt lat="45.04581" lon="5.57758">
        <ele>1316.690063</ele>
        <time>2013-01-12T09:11:21Z</time>
      </trkpt>
      <trkpt lat="45.04581" lon="5.57759">
        <ele>1316.788086</ele>
        <time>2013-01-12T09:11:22Z</time>
      </trkpt>
      <trkpt lat="45.04567" lon="5.57772">
        <ele>1318.6604</ele>
        <time>2013-01-12T09:11:48Z</time>
      </trkpt>
      <trkpt lat="45.04559" lon="5.57778">
        <ele>1319.610107</ele>
        <time>2013-01-12T09:11:58Z</time>
      </trkpt>
      <trkpt lat="45.0455" lon="5.57781">
        <ele>1319.859619</ele>
        <time>2013-01-12T09:12:09Z</time>
      </trkpt>
      <trkpt lat="45.04542" lon="5.57785">
        <ele>1320.76001</ele>
        <time>2013-01-12T09:12:20Z</time>
      </trkpt>
      <trkpt lat="45.04534" lon="5.5779">
        <ele>1322.074097</ele>
        <time>2013-01-12T09:12:31Z</time>
      </trkpt>
      <trkpt lat="45.04533" lon="5.57791">
        <ele>1322.222046</ele>
        <time>2013-01-12T09:12:32Z</time>
      </trkpt>
      <trkpt lat="45.04518" lon="5.57796">
        <ele>1323.591797</ele>
        <time>2013-01-12T09:12:55Z</time>
      </trkpt>
      <trkpt lat="45.04509" lon="5.57799">
        <ele>1324.52124</ele>
        <time>2013-01-12T09:13:06Z</time>
      </trkpt>
      <trkpt lat="45.04501" lon="5.57804">
        <ele>1325.727783</ele>
        <time>2013-01-12T09:13:17Z</time>
      </trkpt>
      <trkpt lat="45.04493" lon="5.5781">
        <ele>1327.157471</ele>
        <time>2013-01-12T09:13:28Z</time>
      </trkpt>
      <trkpt lat="45.04486" lon="5.57817">
        <ele>1328.545654</ele>
        <time>2013-01-12T09:13:39Z</time>
      </trkpt>
      <trkpt lat="45.04485" lon="5.57817">
        <ele>1328.651855</ele>
        <time>2013-01-12T09:13:40Z</time>
      </trkpt>
      <trkpt lat="45.0447" lon="5.57828">
        <ele>1331.094849</ele>
        <time>2013-01-12T09:14:01Z</time>
      </trkpt>
      <trkpt lat="45.04462" lon="5.57833">
        <ele>1332.426025</ele>
        <time>2013-01-12T09:14:17Z</time>
      </trkpt>
      <trkpt lat="45.04455" lon="5.5784">
        <ele>1333.813599</ele>
        <time>2013-01-12T09:14:26Z</time>
      </trkpt>
      <trkpt lat="45.04449" lon="5.57848">
        <ele>1335.030029</ele>
        <time>2013-01-12T09:14:34Z</time>
      </trkpt>
      <trkpt lat="45.04442" lon="5.57855">
        <ele>1335.935669</ele>
        <time>2013-01-12T09:14:43Z</time>
      </trkpt>
      <trkpt lat="45.04441" lon="5.57856">
        <ele>1336.036743</ele>
        <time>2013-01-12T09:14:44Z</time>
      </trkpt>
      <trkpt lat="45.0443" lon="5.57873">
        <ele>1337.515137</ele>
        <time>2013-01-12T09:15:03Z</time>
      </trkpt>
      <trkpt lat="45.04424" lon="5.57882">
        <ele>1337.12915</ele>
        <time>2013-01-12T09:15:12Z</time>
      </trkpt>
      <trkpt lat="45.04418" lon="5.57888">
        <ele>1336.645142</ele>
        <time>2013-01-12T09:15:19Z</time>
      </trkpt>
      <trkpt lat="45.04411" lon="5.57896">
        <ele>1336.26416</ele>
        <time>2013-01-12T09:15:26Z</time>
      </trkpt>
      <trkpt lat="45.04405" lon="5.57905">
        <ele>1335.900146</ele>
        <time>2013-01-12T09:15:34Z</time>
      </trkpt>
      <trkpt lat="45.04397" lon="5.57907">
        <ele>1334.98877</ele>
        <time>2013-01-12T09:15:42Z</time>
      </trkpt>
      <trkpt lat="45.04389" lon="5.57907">
        <ele>1333.987183</ele>
        <time>2013-01-12T09:15:48Z</time>
      </trkpt>
      <trkpt lat="45.04388" lon="5.57907">
        <ele>1333.819458</ele>
        <time>2013-01-12T09:15:49Z</time>
      </trkpt>
      <trkpt lat="45.04373" lon="5.57905">
        <ele>1331.789307</ele>
        <time>2013-01-12T09:16:01Z</time>
      </trkpt>
      <trkpt lat="45.04365" lon="5.57904">
        <ele>1330.726929</ele>
        <time>2013-01-12T09:16:07Z</time>
      </trkpt>
      <trkpt lat="45.04357" lon="5.57902">
        <ele>1330.119873</ele>
        <time>2013-01-12T09:16:11Z</time>
      </trkpt>
      <trkpt lat="45.0435" lon="5.57903">
        <ele>1329.80542</ele>
        <time>2013-01-12T09:16:14Z</time>
      </trkpt>
      <trkpt lat="45.04342" lon="5.57904">
        <ele>1329.543945</ele>
        <time>2013-01-12T09:16:18Z</time>
      </trkpt>
      <trkpt lat="45.04334" lon="5.57908">
        <ele>1329.37439</ele>
        <time>2013-01-12T09:16:34Z</time>
      </trkpt>
      <trkpt lat="45.04325" lon="5.5791">
        <ele>1329.061646</ele>
        <time>2013-01-12T09:16:41Z</time>
      </trkpt>
      <trkpt lat="45.04317" lon="5.57911">
        <ele>1329.043701</ele>
        <time>2013-01-12T09:16:48Z</time>
      </trkpt>
      <trkpt lat="45.04308" lon="5.57912">
        <ele>1329.352295</ele>
        <time>2013-01-12T09:16:55Z</time>
      </trkpt>
      <trkpt lat="45.04307" lon="5.57912">
        <ele>1329.390259</ele>
        <time>2013-01-12T09:16:56Z</time>
      </trkpt>
      <trkpt lat="45.04291" lon="5.57915">
        <ele>1329.784302</ele>
        <time>2013-01-12T09:17:08Z</time>
      </trkpt>
      <trkpt lat="45.04283" lon="5.57917">
        <ele>1329.939209</ele>
        <time>2013-01-12T09:17:15Z</time>
      </trkpt>
      <trkpt lat="45.04274" lon="5.5792">
        <ele>1330.156494</ele>
        <time>2013-01-12T09:17:22Z</time>
      </trkpt>
      <trkpt lat="45.04267" lon="5.57924">
        <ele>1330.927368</ele>
        <time>2013-01-12T09:17:29Z</time>
      </trkpt>
      <trkpt lat="45.04259" lon="5.57926">
        <ele>1331.730835</ele>
        <time>2013-01-12T09:17:36Z</time>
      </trkpt>
      <trkpt lat="45.04251" lon="5.57929">
        <ele>1332.462524</ele>
        <time>2013-01-12T09:17:43Z</time>
      </trkpt>
      <trkpt lat="45.04242" lon="5.57932">
        <ele>1333.159302</ele>
        <time>2013-01-12T09:17:50Z</time>
      </trkpt>
      <trkpt lat="45.04234" lon="5.57933">
        <ele>1333.780884</ele>
        <time>2013-01-12T09:17:57Z</time>
      </trkpt>
      <trkpt lat="45.04233" lon="5.57934">
        <ele>1333.852539</ele>
        <time>2013-01-12T09:17:58Z</time>
      </trkpt>
      <trkpt lat="45.04218" lon="5.57938">
        <ele>1334.778442</ele>
        <time>2013-01-12T09:18:11Z</time>
      </trkpt>
      <trkpt lat="45.0421" lon="5.57942">
        <ele>1335.123657</ele>
        <time>2013-01-12T09:18:18Z</time>
      </trkpt>
      <trkpt lat="45.04203" lon="5.57946">
        <ele>1335.325928</ele>
        <time>2013-01-12T09:18:25Z</time>
      </trkpt>
      <trkpt lat="45.04196" lon="5.57951">
        <ele>1335.420288</ele>
        <time>2013-01-12T09:18:32Z</time>
      </trkpt>
      <trkpt lat="45.04189" lon="5.57956">
        <ele>1335.413696</ele>
        <time>2013-01-12T09:18:39Z</time>
      </trkpt>
      <trkpt lat="45.04181" lon="5.57963">
        <ele>1335.214966</ele>
        <time>2013-01-12T09:18:47Z</time>
      </trkpt>
      <trkpt lat="45.04174" lon="5.57969">
        <ele>1334.96936</ele>
        <time>2013-01-12T09:18:54Z</time>
      </trkpt>
      <trkpt lat="45.04169" lon="5.57977">
        <ele>1334.489746</ele>
        <time>2013-01-12T09:19:01Z</time>
      </trkpt>
      <trkpt lat="45.04168" lon="5.57979">
        <ele>1334.415894</ele>
        <time>2013-01-12T09:19:02Z</time>
      </trkpt>
      <trkpt lat="45.04157" lon="5.57994">
        <ele>1335.674194</ele>
        <time>2013-01-12T09:19:15Z</time>
      </trkpt>
      <trkpt lat="45.0415" lon="5.58002">
        <ele>1336.353516</ele>
        <time>2013-01-12T09:19:23Z</time>
      </trkpt>
      <trkpt lat="45.04144" lon="5.5801">
        <ele>1336.981201</ele>
        <time>2013-01-12T09:19:31Z</time>
      </trkpt>
      <trkpt lat="45.04136" lon="5.58014">
        <ele>1337.442139</ele>
        <time>2013-01-12T09:20:32Z</time>
      </trkpt>
      <trkpt lat="45.04135" lon="5.58014">
        <ele>1337.51123</ele>
        <time>2013-01-12T09:20:33Z</time>
      </trkpt>
      <trkpt lat="45.04119" lon="5.58017">
        <ele>1338.749268</ele>
        <time>2013-01-12T09:20:50Z</time>
      </trkpt>
      <trkpt lat="45.0411" lon="5.58019">
        <ele>1339.360229</ele>
        <time>2013-01-12T09:20:58Z</time>
      </trkpt>
      <trkpt lat="45.04102" lon="5.58018">
        <ele>1339.819336</ele>
        <time>2013-01-12T09:21:05Z</time>
      </trkpt>
      <trkpt lat="45.04093" lon="5.58016">
        <ele>1340.287354</ele>
        <time>2013-01-12T09:21:13Z</time>
      </trkpt>
      <trkpt lat="45.04085" lon="5.58014">
        <ele>1341.109009</ele>
        <time>2013-01-12T09:21:21Z</time>
      </trkpt>
      <trkpt lat="45.04077" lon="5.58011">
        <ele>1341.885254</ele>
        <time>2013-01-12T09:21:28Z</time>
      </trkpt>
      <trkpt lat="45.04069" lon="5.58009">
        <ele>1342.601318</ele>
        <time>2013-01-12T09:21:35Z</time>
      </trkpt>
      <trkpt lat="45.04068" lon="5.58008">
        <ele>1342.683228</ele>
        <time>2013-01-12T09:21:36Z</time>
      </trkpt>
      <trkpt lat="45.04052" lon="5.58002">
        <ele>1343.969971</ele>
        <time>2013-01-12T09:21:51Z</time>
      </trkpt>
      <trkpt lat="45.04044" lon="5.57999">
        <ele>1344.548462</ele>
        <time>2013-01-12T09:21:59Z</time>
      </trkpt>
      <trkpt lat="45.04036" lon="5.57995">
        <ele>1345.046265</ele>
        <time>2013-01-12T09:22:08Z</time>
      </trkpt>
      <trkpt lat="45.04028" lon="5.57991">
        <ele>1345.369507</ele>
        <time>2013-01-12T09:22:16Z</time>
      </trkpt>
      <trkpt lat="45.0402" lon="5.57989">
        <ele>1345.945068</ele>
        <time>2013-01-12T09:22:23Z</time>
      </trkpt>
      <trkpt lat="45.04011" lon="5.57987">
        <ele>1346.512451</ele>
        <time>2013-01-12T09:22:30Z</time>
      </trkpt>
      <trkpt lat="45.04003" lon="5.57986">
        <ele>1347.130615</ele>
        <time>2013-01-12T09:22:37Z</time>
      </trkpt>
      <trkpt lat="45.04002" lon="5.57985">
        <ele>1347.258789</ele>
        <time>2013-01-12T09:22:38Z</time>
      </trkpt>
      <trkpt lat="45.03987" lon="5.5798">
        <ele>1348.704834</ele>
        <time>2013-01-12T09:22:55Z</time>
      </trkpt>
      <trkpt lat="45.03978" lon="5.5798">
        <ele>1349.896362</ele>
        <time>2013-01-12T09:23:10Z</time>
      </trkpt>
      <trkpt lat="45.03969" lon="5.57982">
        <ele>1351.248535</ele>
        <time>2013-01-12T09:23:23Z</time>
      </trkpt>
      <trkpt lat="45.03961" lon="5.57983">
        <ele>1352.488037</ele>
        <time>2013-01-12T09:23:32Z</time>
      </trkpt>
      <trkpt lat="45.03953" lon="5.57986">
        <ele>1354.294189</ele>
        <time>2013-01-12T09:23:42Z</time>
      </trkpt>
      <trkpt lat="45.03952" lon="5.57987">
        <ele>1354.502563</ele>
        <time>2013-01-12T09:23:43Z</time>
      </trkpt>
      <trkpt lat="45.03937" lon="5.57995">
        <ele>1357.70813</ele>
        <time>2013-01-12T09:24:01Z</time>
      </trkpt>
      <trkpt lat="45.0393" lon="5.58001">
        <ele>1359.169678</ele>
        <time>2013-01-12T09:24:10Z</time>
      </trkpt>
      <trkpt lat="45.03922" lon="5.58007">
        <ele>1360.439697</ele>
        <time>2013-01-12T09:24:20Z</time>
      </trkpt>
      <trkpt lat="45.03915" lon="5.58012">
        <ele>1361.548462</ele>
        <time>2013-01-12T09:24:30Z</time>
      </trkpt>
      <trkpt lat="45.03907" lon="5.58016">
        <ele>1363.17749</ele>
        <time>2013-01-12T09:24:41Z</time>
      </trkpt>
      <trkpt lat="45.03899" lon="5.58019">
        <ele>1364.892944</ele>
        <time>2013-01-12T09:24:52Z</time>
      </trkpt>
      <trkpt lat="45.03898" lon="5.58019">
        <ele>1365.034546</ele>
        <time>2013-01-12T09:24:53Z</time>
      </trkpt>
      <trkpt lat="45.03883" lon="5.58028">
        <ele>1368.243896</ele>
        <time>2013-01-12T09:25:14Z</time>
      </trkpt>
      <trkpt lat="45.03875" lon="5.58032">
        <ele>1370.397461</ele>
        <time>2013-01-12T09:25:26Z</time>
      </trkpt>
      <trkpt lat="45.03867" lon="5.58037">
        <ele>1372.603271</ele>
        <time>2013-01-12T09:25:39Z</time>
      </trkpt>
      <trkpt lat="45.0386" lon="5.58044">
        <ele>1375.364258</ele>
        <time>2013-01-12T09:25:56Z</time>
      </trkpt>
      <trkpt lat="45.03859" lon="5.58045">
        <ele>1375.571655</ele>
        <time>2013-01-12T09:25:57Z</time>
      </trkpt>
      <trkpt lat="45.03851" lon="5.58055">
        <ele>1378.572144</ele>
        <time>2013-01-12T09:28:04Z</time>
      </trkpt>
      <trkpt lat="45.03831" lon="5.58079">
        <ele>1384.162231</ele>
        <time>2013-01-12T09:30:00Z</time>
      </trkpt>
      <trkpt lat="45.03822" lon="5.58079">
        <ele>1385.67334</ele>
        <time>2013-01-12T09:30:14Z</time>
      </trkpt>
      <trkpt lat="45.03814" lon="5.58083">
        <ele>1387.315308</ele>
        <time>2013-01-12T09:30:26Z</time>
      </trkpt>
      <trkpt lat="45.03807" lon="5.5809">
        <ele>1389.541138</ele>
        <time>2013-01-12T09:30:39Z</time>
      </trkpt>
      <trkpt lat="45.03801" lon="5.58099">
        <ele>1392.21167</ele>
        <time>2013-01-12T09:30:54Z</time>
      </trkpt>
      <trkpt lat="45.03797" lon="5.5811">
        <ele>1394.680908</ele>
        <time>2013-01-12T09:31:06Z</time>
      </trkpt>
      <trkpt lat="45.03797" lon="5.58111">
        <ele>1394.854248</ele>
        <time>2013-01-12T09:31:07Z</time>
      </trkpt>
      <trkpt lat="45.03785" lon="5.58129">
        <ele>1399.653687</ele>
        <time>2013-01-12T09:31:32Z</time>
      </trkpt>
      <trkpt lat="45.03777" lon="5.58134">
        <ele>1401.751709</ele>
        <time>2013-01-12T09:31:49Z</time>
      </trkpt>
      <trkpt lat="45.03774" lon="5.58145">
        <ele>1403.867188</ele>
        <time>2013-01-12T09:32:04Z</time>
      </trkpt>
      <trkpt lat="45.03702" lon="5.58249">
        <ele>1441.223633</ele>
        <time>2013-01-12T09:32:20Z</time>
      </trkpt>
      <trkpt lat="45.03659" lon="5.58311">
        <ele>1462.340088</ele>
        <time>2013-01-12T09:32:21Z</time>
      </trkpt>
      <trkpt lat="45.03625" lon="5.58386">
        <ele>1482.097656</ele>
        <time>2013-01-12T09:32:52Z</time>
      </trkpt>
      <trkpt lat="45.03579" lon="5.5848">
        <ele>1514.791382</ele>
        <time>2013-01-12T09:33:07Z</time>
      </trkpt>
      <trkpt lat="45.03547" lon="5.5856">
        <ele>1542.475464</ele>
        <time>2013-01-12T09:33:09Z</time>
      </trkpt>
      <trkpt lat="45.0352" lon="5.58582">
        <ele>1554.86731</ele>
        <time>2013-01-12T09:54:24Z</time>
      </trkpt>
      <trkpt lat="45.03512" lon="5.58581">
        <ele>1558.55249</ele>
        <time>2013-01-12T09:55:12Z</time>
      </trkpt>
      <trkpt lat="45.03503" lon="5.58584">
        <ele>1562.494019</ele>
        <time>2013-01-12T09:55:30Z</time>
      </trkpt>
      <trkpt lat="45.03503" lon="5.58584">
        <ele>1562.728149</ele>
        <time>2013-01-12T09:55:31Z</time>
      </trkpt>
      <trkpt lat="45.03492" lon="5.58593">
        <ele>1568.227539</ele>
        <time>2013-01-12T09:56:22Z</time>
      </trkpt>
      <trkpt lat="45.03491" lon="5.58605">
        <ele>1570.251587</ele>
        <time>2013-01-12T09:56:47Z</time>
      </trkpt>
      <trkpt lat="45.03491" lon="5.58606">
        <ele>1570.266968</ele>
        <time>2013-01-12T09:56:48Z</time>
      </trkpt>
      <trkpt lat="45.03489" lon="5.58626">
        <ele>1573.536255</ele>
        <time>2013-01-12T09:57:25Z</time>
      </trkpt>
      <trkpt lat="45.03475" lon="5.58831">
        <ele>1645.924561</ele>
        <time>2013-01-12T10:06:11Z</time>
      </trkpt>
      <trkpt lat="45.03468" lon="5.58838">
        <ele>1649.970093</ele>
        <time>2013-01-12T10:08:41Z</time>
      </trkpt>
      <trkpt lat="45.03468" lon="5.58838">
        <ele>1650.281494</ele>
        <time>2013-01-12T10:08:42Z</time>
      </trkpt>
      <trkpt lat="45.03454" lon="5.58854">
        <ele>1659.157349</ele>
        <time>2013-01-12T10:09:31Z</time>
      </trkpt>
      <trkpt lat="45.03446" lon="5.58859">
        <ele>1662.514771</ele>
        <time>2013-01-12T10:10:00Z</time>
      </trkpt>
      <trkpt lat="45.03446" lon="5.5886">
        <ele>1662.645386</ele>
        <time>2013-01-12T10:10:01Z</time>
      </trkpt>
      <trkpt lat="45.0343" lon="5.58862">
        <ele>1666.950928</ele>
        <time>2013-01-12T10:10:49Z</time>
      </trkpt>
      <trkpt lat="45.03428" lon="5.58873">
        <ele>1673.122437</ele>
        <time>2013-01-12T10:11:19Z</time>
      </trkpt>
      <trkpt lat="45.03429" lon="5.58875">
        <ele>1673.909546</ele>
        <time>2013-01-12T10:11:20Z</time>
      </trkpt>
      <trkpt lat="45.0344" lon="5.5889">
        <ele>1679.679688</ele>
        <time>2013-01-12T10:12:41Z</time>
      </trkpt>
      <trkpt lat="45.03441" lon="5.5889">
        <ele>1679.887451</ele>
        <time>2013-01-12T10:12:42Z</time>
      </trkpt>
      <trkpt lat="45.03435" lon="5.5891">
        <ele>1692.609863</ele>
        <time>2013-01-12T10:13:48Z</time>
      </trkpt>
      <trkpt lat="45.03435" lon="5.5891">
        <ele>1693.11731</ele>
        <time>2013-01-12T10:13:49Z</time>
      </trkpt>
      <trkpt lat="45.03417" lon="5.58913">
        <ele>1696.545776</ele>
        <time>2013-01-12T10:14:49Z</time>
      </trkpt>
      <trkpt lat="45.03417" lon="5.58913">
        <ele>1696.580566</ele>
        <time>2013-01-12T10:14:50Z</time>
      </trkpt>
      <trkpt lat="45.03399" lon="5.58913">
        <ele>1698.876465</ele>
        <time>2013-01-12T10:15:47Z</time>
      </trkpt>
      <trkpt lat="45.03391" lon="5.58909">
        <ele>1697.826416</ele>
        <time>2013-01-12T10:16:11Z</time>
      </trkpt>
      <trkpt lat="45.03391" lon="5.58909">
        <ele>1697.784546</ele>
        <time>2013-01-12T10:16:12Z</time>
      </trkpt>
      <trkpt lat="45.03382" lon="5.5889">
        <ele>1691.327881</ele>
        <time>2013-01-12T10:16:49Z</time>
      </trkpt>
      <trkpt lat="45.03374" lon="5.58884">
        <ele>1691.766235</ele>
        <time>2013-01-12T10:17:07Z</time>
      </trkpt>
      <trkpt lat="45.03367" lon="5.5888">
        <ele>1693.265015</ele>
        <time>2013-01-12T10:17:25Z</time>
      </trkpt>
      <trkpt lat="45.03366" lon="5.58879">
        <ele>1693.324951</ele>
        <time>2013-01-12T10:17:26Z</time>
      </trkpt>
      <trkpt lat="45.0335" lon="5.58873">
        <ele>1697.444946</ele>
        <time>2013-01-12T10:17:57Z</time>
      </trkpt>
      <trkpt lat="45.03341" lon="5.58872">
        <ele>1700.047485</ele>
        <time>2013-01-12T10:18:13Z</time>
      </trkpt>
      <trkpt lat="45.03333" lon="5.58873">
        <ele>1702.840698</ele>
        <time>2013-01-12T10:18:31Z</time>
      </trkpt>
      <trkpt lat="45.03332" lon="5.58873">
        <ele>1703.055908</ele>
        <time>2013-01-12T10:18:32Z</time>
      </trkpt>
      <trkpt lat="45.03315" lon="5.58875">
        <ele>1708.982422</ele>
        <time>2013-01-12T10:19:11Z</time>
      </trkpt>
      <trkpt lat="45.03307" lon="5.58872">
        <ele>1711.06897</ele>
        <time>2013-01-12T10:19:27Z</time>
      </trkpt>
      <trkpt lat="45.03298" lon="5.58871">
        <ele>1713.57251</ele>
        <time>2013-01-12T10:19:42Z</time>
      </trkpt>
      <trkpt lat="45.03297" lon="5.58871">
        <ele>1713.740723</ele>
        <time>2013-01-12T10:19:43Z</time>
      </trkpt>
      <trkpt lat="45.03281" lon="5.58869">
        <ele>1718.310547</ele>
        <time>2013-01-12T10:20:09Z</time>
      </trkpt>
      <trkpt lat="45.03272" lon="5.58867">
        <ele>1720.609131</ele>
        <time>2013-01-12T10:20:24Z</time>
      </trkpt>
      <trkpt lat="45.03264" lon="5.58863">
        <ele>1722.082153</ele>
        <time>2013-01-12T10:20:38Z</time>
      </trkpt>
      <trkpt lat="45.03256" lon="5.58858">
        <ele>1723.680054</ele>
        <time>2013-01-12T10:20:56Z</time>
      </trkpt>
      <trkpt lat="45.03256" lon="5.58858">
        <ele>1723.75</ele>
        <time>2013-01-12T10:20:57Z</time>
      </trkpt>
      <trkpt lat="45.03239" lon="5.58851">
        <ele>1727.349976</ele>
        <time>2013-01-12T10:21:31Z</time>
      </trkpt>
      <trkpt lat="45.03231" lon="5.58847">
        <ele>1729.189941</ele>
        <time>2013-01-12T10:21:45Z</time>
      </trkpt>
      <trkpt lat="45.03223" lon="5.58843">
        <ele>1730.844971</ele>
        <time>2013-01-12T10:21:59Z</time>
      </trkpt>
      <trkpt lat="45.03222" lon="5.58843">
        <ele>1730.925049</ele>
        <time>2013-01-12T10:22:00Z</time>
      </trkpt>
      <trkpt lat="45.03206" lon="5.58838">
        <ele>1734.862549</ele>
        <time>2013-01-12T10:22:45Z</time>
      </trkpt>
      <trkpt lat="45.03198" lon="5.58834">
        <ele>1736.247437</ele>
        <time>2013-01-12T10:22:58Z</time>
      </trkpt>
      <trkpt lat="45.0319" lon="5.58828">
        <ele>1737.070068</ele>
        <time>2013-01-12T10:23:16Z</time>
      </trkpt>
      <trkpt lat="45.0319" lon="5.58827">
        <ele>1737.112549</ele>
        <time>2013-01-12T10:23:17Z</time>
      </trkpt>
      <trkpt lat="45.03174" lon="5.58817">
        <ele>1739.42749</ele>
        <time>2013-01-12T10:23:51Z</time>
      </trkpt>
      <trkpt lat="45.03166" lon="5.58811">
        <ele>1740.269165</ele>
        <time>2013-01-12T10:24:06Z</time>
      </trkpt>
      <trkpt lat="45.03159" lon="5.58804">
        <ele>1741.698853</ele>
        <time>2013-01-12T10:24:23Z</time>
      </trkpt>
      <trkpt lat="45.03158" lon="5.58804">
        <ele>1741.75</ele>
        <time>2013-01-12T10:24:24Z</time>
      </trkpt>
      <trkpt lat="45.03145" lon="5.5879">
        <ele>1744.056763</ele>
        <time>2013-01-12T10:25:03Z</time>
      </trkpt>
      <trkpt lat="45.03137" lon="5.58783">
        <ele>1745.689819</ele>
        <time>2013-01-12T10:25:23Z</time>
      </trkpt>
      <trkpt lat="45.0313" lon="5.58776">
        <ele>1747.103882</ele>
        <time>2013-01-12T10:25:45Z</time>
      </trkpt>
      <trkpt lat="45.0313" lon="5.58776">
        <ele>1747.047974</ele>
        <time>2013-01-12T10:25:46Z</time>
      </trkpt>
      <trkpt lat="45.03114" lon="5.58765">
        <ele>1751.363525</ele>
        <time>2013-01-12T10:26:29Z</time>
      </trkpt>
      <trkpt lat="45.03107" lon="5.58759">
        <ele>1753.505371</ele>
        <time>2013-01-12T10:26:52Z</time>
      </trkpt>
      <trkpt lat="45.03106" lon="5.58759">
        <ele>1753.71228</ele>
        <time>2013-01-12T10:26:53Z</time>
      </trkpt>
      <trkpt lat="45.03091" lon="5.58749">
        <ele>1758.094482</ele>
        <time>2013-01-12T10:27:37Z</time>
      </trkpt>
      <trkpt lat="45.03083" lon="5.58744">
        <ele>1760.114624</ele>
        <time>2013-01-12T10:27:59Z</time>
      </trkpt>
      <trkpt lat="45.03082" lon="5.58744">
        <ele>1760.268311</ele>
        <time>2013-01-12T10:28:00Z</time>
      </trkpt>
      <trkpt lat="45.03067" lon="5.58732">
        <ele>1765.141479</ele>
        <time>2013-01-12T10:28:39Z</time>
      </trkpt>
      <trkpt lat="45.03059" lon="5.58726">
        <ele>1767.402466</ele>
        <time>2013-01-12T10:28:58Z</time>
      </trkpt>
      <trkpt lat="45.03052" lon="5.5872">
        <ele>1769.576172</ele>
        <time>2013-01-12T10:29:18Z</time>
      </trkpt>
      <trkpt lat="45.03051" lon="5.5872">
        <ele>1769.710938</ele>
        <time>2013-01-12T10:29:19Z</time>
      </trkpt>
      <trkpt lat="45.03036" lon="5.5871">
        <ele>1774.081299</ele>
        <time>2013-01-12T10:29:57Z</time>
      </trkpt>
      <trkpt lat="45.03027" lon="5.58706">
        <ele>1776.317139</ele>
        <time>2013-01-12T10:30:33Z</time>
      </trkpt>
      <trkpt lat="45.03027" lon="5.58706">
        <ele>1776.437866</ele>
        <time>2013-01-12T10:30:34Z</time>
      </trkpt>
      <trkpt lat="45.03012" lon="5.58696">
        <ele>1779.392822</ele>
        <time>2013-01-12T10:31:09Z</time>
      </trkpt>
      <trkpt lat="45.03004" lon="5.58691">
        <ele>1780.9104</ele>
        <time>2013-01-12T10:31:27Z</time>
      </trkpt>
      <trkpt lat="45.02996" lon="5.58687">
        <ele>1782.722656</ele>
        <time>2013-01-12T10:31:42Z</time>
      </trkpt>
      <trkpt lat="45.02995" lon="5.58687">
        <ele>1782.922729</ele>
        <time>2013-01-12T10:31:43Z</time>
      </trkpt>
      <trkpt lat="45.0298" lon="5.58679">
        <ele>1786.621582</ele>
        <time>2013-01-12T10:32:11Z</time>
      </trkpt>
      <trkpt lat="45.02971" lon="5.58675">
        <ele>1788.619141</ele>
        <time>2013-01-12T10:32:24Z</time>
      </trkpt>
      <trkpt lat="45.02964" lon="5.58671">
        <ele>1790.48584</ele>
        <time>2013-01-12T10:32:37Z</time>
      </trkpt>
      <trkpt lat="45.02955" lon="5.58667">
        <ele>1792.499634</ele>
        <time>2013-01-12T10:32:50Z</time>
      </trkpt>
      <trkpt lat="45.02955" lon="5.58667">
        <ele>1792.598022</ele>
        <time>2013-01-12T10:32:51Z</time>
      </trkpt>
      <trkpt lat="45.02939" lon="5.58659">
        <ele>1795.483032</ele>
        <time>2013-01-12T10:33:18Z</time>
      </trkpt>
      <trkpt lat="45.02931" lon="5.58654">
        <ele>1796.486816</ele>
        <time>2013-01-12T10:33:32Z</time>
      </trkpt>
      <trkpt lat="45.02924" lon="5.5865">
        <ele>1797.798218</ele>
        <time>2013-01-12T10:33:45Z</time>
      </trkpt>
      <trkpt lat="45.02915" lon="5.58646">
        <ele>1799.180298</ele>
        <time>2013-01-12T10:33:59Z</time>
      </trkpt>
      <trkpt lat="45.02914" lon="5.58646">
        <ele>1799.337646</ele>
        <time>2013-01-12T10:34:00Z</time>
      </trkpt>
      <trkpt lat="45.02899" lon="5.58635">
        <ele>1800.354614</ele>
        <time>2013-01-12T10:34:26Z</time>
      </trkpt>
      <trkpt lat="45.02891" lon="5.5863">
        <ele>1800.993896</ele>
        <time>2013-01-12T10:34:40Z</time>
      </trkpt>
      <trkpt lat="45.02883" lon="5.58625">
        <ele>1801.734863</ele>
        <time>2013-01-12T10:34:53Z</time>
      </trkpt>
      <trkpt lat="45.02875" lon="5.58622">
        <ele>1802.800537</ele>
        <time>2013-01-12T10:35:07Z</time>
      </trkpt>
      <trkpt lat="45.02875" lon="5.58621">
        <ele>1802.871704</ele>
        <time>2013-01-12T10:35:08Z</time>
      </trkpt>
      <trkpt lat="45.02858" lon="5.58615">
        <ele>1805.344238</ele>
        <time>2013-01-12T10:35:36Z</time>
      </trkpt>
      <trkpt lat="45.0285" lon="5.58611">
        <ele>1806.315918</ele>
        <time>2013-01-12T10:35:50Z</time>
      </trkpt>
      <trkpt lat="45.02842" lon="5.58608">
        <ele>1807.513916</ele>
        <time>2013-01-12T10:36:06Z</time>
      </trkpt>
      <trkpt lat="45.02833" lon="5.58605">
        <ele>1808.803589</ele>
        <time>2013-01-12T10:36:20Z</time>
      </trkpt>
      <trkpt lat="45.02833" lon="5.58605">
        <ele>1808.915405</ele>
        <time>2013-01-12T10:36:21Z</time>
      </trkpt>
      <trkpt lat="45.02816" lon="5.586">
        <ele>1811.244385</ele>
        <time>2013-01-12T10:36:47Z</time>
      </trkpt>
      <trkpt lat="45.02808" lon="5.58597">
        <ele>1812.574097</ele>
        <time>2013-01-12T10:37:01Z</time>
      </trkpt>
      <trkpt lat="45.02799" lon="5.58593">
        <ele>1813.80127</ele>
        <time>2013-01-12T10:37:20Z</time>
      </trkpt>
      <trkpt lat="45.02791" lon="5.58595">
        <ele>1816.899658</ele>
        <time>2013-01-12T10:39:06Z</time>
      </trkpt>
      <trkpt lat="45.0279" lon="5.58595">
        <ele>1817.082031</ele>
        <time>2013-01-12T10:39:07Z</time>
      </trkpt>
      <trkpt lat="45.02774" lon="5.5859">
        <ele>1820.044556</ele>
        <time>2013-01-12T10:39:32Z</time>
      </trkpt>
      <trkpt lat="45.02766" lon="5.58586">
        <ele>1821.060791</ele>
        <time>2013-01-12T10:39:45Z</time>
      </trkpt>
      <trkpt lat="45.02758" lon="5.58583">
        <ele>1822.194092</ele>
        <time>2013-01-12T10:39:58Z</time>
      </trkpt>
      <trkpt lat="45.0275" lon="5.58579">
        <ele>1823.16687</ele>
        <time>2013-01-12T10:40:11Z</time>
      </trkpt>
      <trkpt lat="45.02749" lon="5.58579">
        <ele>1823.288086</ele>
        <time>2013-01-12T10:40:12Z</time>
      </trkpt>
      <trkpt lat="45.02733" lon="5.58572">
        <ele>1825.403564</ele>
        <time>2013-01-12T10:40:38Z</time>
      </trkpt>
      <trkpt lat="45.02725" lon="5.58569">
        <ele>1826.571655</ele>
        <time>2013-01-12T10:40:52Z</time>
      </trkpt>
      <trkpt lat="45.02716" lon="5.58567">
        <ele>1828.19458</ele>
        <time>2013-01-12T10:41:07Z</time>
      </trkpt>
      <trkpt lat="45.02708" lon="5.58563">
        <ele>1829.119385</ele>
        <time>2013-01-12T10:41:20Z</time>
      </trkpt>
      <trkpt lat="45.02707" lon="5.58562">
        <ele>1829.123047</ele>
        <time>2013-01-12T10:41:21Z</time>
      </trkpt>
      <trkpt lat="45.02692" lon="5.58556">
        <ele>1830.940063</ele>
        <time>2013-01-12T10:41:46Z</time>
      </trkpt>
      <trkpt lat="45.02684" lon="5.58552">
        <ele>1832.006836</ele>
        <time>2013-01-12T10:42:00Z</time>
      </trkpt>
      <trkpt lat="45.02675" lon="5.58549">
        <ele>1832.977539</ele>
        <time>2013-01-12T10:42:14Z</time>
      </trkpt>
      <trkpt lat="45.02667" lon="5.58546">
        <ele>1833.974976</ele>
        <time>2013-01-12T10:42:27Z</time>
      </trkpt>
      <trkpt lat="45.02666" lon="5.58545">
        <ele>1833.987549</ele>
        <time>2013-01-12T10:42:28Z</time>
      </trkpt>
      <trkpt lat="45.0265" lon="5.5854">
        <ele>1836.117554</ele>
        <time>2013-01-12T10:42:52Z</time>
      </trkpt>
      <trkpt lat="45.02641" lon="5.58536">
        <ele>1836.949951</ele>
        <time>2013-01-12T10:43:04Z</time>
      </trkpt>
      <trkpt lat="45.02633" lon="5.58532">
        <ele>1837.5625</ele>
        <time>2013-01-12T10:43:17Z</time>
      </trkpt>
      <trkpt lat="45.02625" lon="5.58528">
        <ele>1838.359985</ele>
        <time>2013-01-12T10:43:31Z</time>
      </trkpt>
      <trkpt lat="45.02624" lon="5.58528">
        <ele>1838.430054</ele>
        <time>2013-01-12T10:43:32Z</time>
      </trkpt>
      <trkpt lat="45.02609" lon="5.58521">
        <ele>1839.706665</ele>
        <time>2013-01-12T10:43:55Z</time>
      </trkpt>
      <trkpt lat="45.02601" lon="5.58517">
        <ele>1840.141602</ele>
        <time>2013-01-12T10:44:07Z</time>
      </trkpt>
      <trkpt lat="45.02593" lon="5.58512">
        <ele>1840.398804</ele>
        <time>2013-01-12T10:44:18Z</time>
      </trkpt>
      <trkpt lat="45.02585" lon="5.58507">
        <ele>1840.179565</ele>
        <time>2013-01-12T10:44:29Z</time>
      </trkpt>
      <trkpt lat="45.02577" lon="5.58502">
        <ele>1839.760498</ele>
        <time>2013-01-12T10:44:40Z</time>
      </trkpt>
      <trkpt lat="45.02576" lon="5.58501">
        <ele>1839.675415</ele>
        <time>2013-01-12T10:44:41Z</time>
      </trkpt>
      <trkpt lat="45.02562" lon="5.5849">
        <ele>1837.963135</ele>
        <time>2013-01-12T10:45:06Z</time>
      </trkpt>
      <trkpt lat="45.02554" lon="5.58483">
        <ele>1836.82605</ele>
        <time>2013-01-12T10:45:17Z</time>
      </trkpt>
      <trkpt lat="45.02547" lon="5.58478">
        <ele>1835.732056</ele>
        <time>2013-01-12T10:45:27Z</time>
      </trkpt>
      <trkpt lat="45.02539" lon="5.58472">
        <ele>1834.643433</ele>
        <time>2013-01-12T10:45:37Z</time>
      </trkpt>
      <trkpt lat="45.02531" lon="5.58468">
        <ele>1833.908936</ele>
        <time>2013-01-12T10:45:46Z</time>
      </trkpt>
      <trkpt lat="45.0253" lon="5.58468">
        <ele>1833.890869</ele>
        <time>2013-01-12T10:45:47Z</time>
      </trkpt>
      <trkpt lat="45.02514" lon="5.58461">
        <ele>1833.012207</ele>
        <time>2013-01-12T10:46:07Z</time>
      </trkpt>
      <trkpt lat="45.02506" lon="5.58458">
        <ele>1832.959473</ele>
        <time>2013-01-12T10:46:19Z</time>
      </trkpt>
      <trkpt lat="45.02497" lon="5.58457">
        <ele>1833.375488</ele>
        <time>2013-01-12T10:47:48Z</time>
      </trkpt>
      <trkpt lat="45.02496" lon="5.58457">
        <ele>1833.398926</ele>
        <time>2013-01-12T10:47:49Z</time>
      </trkpt>
      <trkpt lat="45.0248" lon="5.58451">
        <ele>1832.571777</ele>
        <time>2013-01-12T10:48:04Z</time>
      </trkpt>
      <trkpt lat="45.02472" lon="5.58448">
        <ele>1832.191162</ele>
        <time>2013-01-12T10:48:13Z</time>
      </trkpt>
      <trkpt lat="45.02464" lon="5.58445">
        <ele>1831.910278</ele>
        <time>2013-01-12T10:48:20Z</time>
      </trkpt>
      <trkpt lat="45.02456" lon="5.58442">
        <ele>1831.14502</ele>
        <time>2013-01-12T10:48:28Z</time>
      </trkpt>
      <trkpt lat="45.02447" lon="5.58438">
        <ele>1829.607544</ele>
        <time>2013-01-12T10:48:37Z</time>
      </trkpt>
      <trkpt lat="45.0244" lon="5.58433">
        <ele>1828.035034</ele>
        <time>2013-01-12T10:48:47Z</time>
      </trkpt>
      <trkpt lat="45.02432" lon="5.58429">
        <ele>1826.825073</ele>
        <time>2013-01-12T10:48:59Z</time>
      </trkpt>
      <trkpt lat="45.02431" lon="5.58429">
        <ele>1826.790039</ele>
        <time>2013-01-12T10:49:00Z</time>
      </trkpt>
      <trkpt lat="45.02415" lon="5.58431">
        <ele>1828.824951</ele>
        <time>2013-01-12T10:49:23Z</time>
      </trkpt>
      <trkpt lat="45.02407" lon="5.58436">
        <ele>1831.300049</ele>
        <time>2013-01-12T10:49:34Z</time>
      </trkpt>
      <trkpt lat="45.02399" lon="5.58439">
        <ele>1833.0625</ele>
        <time>2013-01-12T10:49:44Z</time>
      </trkpt>
      <trkpt lat="45.02391" lon="5.58439">
        <ele>1832.987549</ele>
        <time>2013-01-12T10:49:53Z</time>
      </trkpt>
      <trkpt lat="45.02383" lon="5.58439">
        <ele>1833.212524</ele>
        <time>2013-01-12T10:50:03Z</time>
      </trkpt>
      <trkpt lat="45.02382" lon="5.58438">
        <ele>1833.137451</ele>
        <time>2013-01-12T10:50:04Z</time>
      </trkpt>
      <trkpt lat="45.02366" lon="5.58441">
        <ele>1834.950195</ele>
        <time>2013-01-12T10:50:27Z</time>
      </trkpt>
      <trkpt lat="45.02358" lon="5.58447">
        <ele>1838.21228</ele>
        <time>2013-01-12T10:50:42Z</time>
      </trkpt>
      <trkpt lat="45.02352" lon="5.58455">
        <ele>1844.838135</ele>
        <time>2013-01-12T10:51:08Z</time>
      </trkpt>
      <trkpt lat="45.02352" lon="5.58455">
        <ele>1844.952148</ele>
        <time>2013-01-12T10:51:09Z</time>
      </trkpt>
      <trkpt lat="45.02336" lon="5.58454">
        <ele>1844.776489</ele>
        <time>2013-01-12T10:51:57Z</time>
      </trkpt>
      <trkpt lat="45.02327" lon="5.58455">
        <ele>1845.597534</ele>
        <time>2013-01-12T10:52:52Z</time>
      </trkpt>
      <trkpt lat="45.02327" lon="5.58455">
        <ele>1845.593872</ele>
        <time>2013-01-12T10:52:53Z</time>
      </trkpt>
      <trkpt lat="45.0231" lon="5.58452">
        <ele>1844.841064</ele>
        <time>2013-01-12T10:53:19Z</time>
      </trkpt>
      <trkpt lat="45.02303" lon="5.58445">
        <ele>1841.047974</ele>
        <time>2013-01-12T10:53:29Z</time>
      </trkpt>
      <trkpt lat="45.02294" lon="5.58443">
        <ele>1840.919678</ele>
        <time>2013-01-12T10:53:40Z</time>
      </trkpt>
      <trkpt lat="45.02285" lon="5.58442">
        <ele>1841.509155</ele>
        <time>2013-01-12T10:53:59Z</time>
      </trkpt>
      <trkpt lat="45.02285" lon="5.58442">
        <ele>1841.4552</ele>
        <time>2013-01-12T10:54:00Z</time>
      </trkpt>
      <trkpt lat="45.02269" lon="5.58437">
        <ele>1840.981934</ele>
        <time>2013-01-12T10:54:18Z</time>
      </trkpt>
      <trkpt lat="45.0226" lon="5.58433">
        <ele>1840.636475</ele>
        <time>2013-01-12T10:54:28Z</time>
      </trkpt>
      <trkpt lat="45.02249" lon="5.5843">
        <ele>1840.754272</ele>
        <time>2013-01-12T10:54:43Z</time>
      </trkpt>
      <trkpt lat="45.02241" lon="5.58428">
        <ele>1841.389648</ele>
        <time>2013-01-12T10:54:59Z</time>
      </trkpt>
      <trkpt lat="45.02234" lon="5.58421">
        <ele>1838.881836</ele>
        <time>2013-01-12T10:55:11Z</time>
      </trkpt>
      <trkpt lat="45.02233" lon="5.58421">
        <ele>1838.736206</ele>
        <time>2013-01-12T10:55:12Z</time>
      </trkpt>
      <trkpt lat="45.02219" lon="5.58409">
        <ele>1835.162231</ele>
        <time>2013-01-12T10:56:05Z</time>
      </trkpt>
      <trkpt lat="45.0221" lon="5.58405">
        <ele>1834.626465</ele>
        <time>2013-01-12T10:56:18Z</time>
      </trkpt>
      <trkpt lat="45.0221" lon="5.58405">
        <ele>1834.707642</ele>
        <time>2013-01-12T10:56:19Z</time>
      </trkpt>
      <trkpt lat="45.02196" lon="5.58391">
        <ele>1830.251953</ele>
        <time>2013-01-12T10:56:40Z</time>
      </trkpt>
      <trkpt lat="45.02189" lon="5.58385">
        <ele>1829.361206</ele>
        <time>2013-01-12T10:56:52Z</time>
      </trkpt>
      <trkpt lat="45.02181" lon="5.58381">
        <ele>1829.983765</ele>
        <time>2013-01-12T10:57:04Z</time>
      </trkpt>
      <trkpt lat="45.02172" lon="5.58378">
        <ele>1831.15625</ele>
        <time>2013-01-12T10:57:15Z</time>
      </trkpt>
      <trkpt lat="45.02164" lon="5.58375">
        <ele>1832.482544</ele>
        <time>2013-01-12T10:57:25Z</time>
      </trkpt>
      <trkpt lat="45.02163" lon="5.58375">
        <ele>1832.522461</ele>
        <time>2013-01-12T10:57:26Z</time>
      </trkpt>
      <trkpt lat="45.02148" lon="5.58364">
        <ele>1833.013672</ele>
        <time>2013-01-12T10:57:46Z</time>
      </trkpt>
      <trkpt lat="45.0214" lon="5.58361">
        <ele>1835.569946</ele>
        <time>2013-01-12T10:58:00Z</time>
      </trkpt>
      <trkpt lat="45.0213" lon="5.58359">
        <ele>1839.576294</ele>
        <time>2013-01-12T10:58:12Z</time>
      </trkpt>
      <trkpt lat="45.02123" lon="5.58355">
        <ele>1841.795044</ele>
        <time>2013-01-12T10:58:22Z</time>
      </trkpt>
      <trkpt lat="45.02116" lon="5.58348">
        <ele>1842.744995</ele>
        <time>2013-01-12T10:58:31Z</time>
      </trkpt>
      <trkpt lat="45.02115" lon="5.58348">
        <ele>1843.01123</ele>
        <time>2013-01-12T10:58:32Z</time>
      </trkpt>
      <trkpt lat="45.02101" lon="5.58335">
        <ele>1845.489868</ele>
        <time>2013-01-12T10:59:20Z</time>
      </trkpt>
      <trkpt lat="45.02092" lon="5.58336">
        <ele>1849.063354</ele>
        <time>2013-01-12T10:59:37Z</time>
      </trkpt>
      <trkpt lat="45.02092" lon="5.58335">
        <ele>1849.163574</ele>
        <time>2013-01-12T10:59:38Z</time>
      </trkpt>
      <trkpt lat="45.02077" lon="5.58329">
        <ele>1853.017212</ele>
        <time>2013-01-12T11:00:10Z</time>
      </trkpt>
      <trkpt lat="45.0207" lon="5.58322">
        <ele>1853.453369</ele>
        <time>2013-01-12T11:00:21Z</time>
      </trkpt>
      <trkpt lat="45.02063" lon="5.58313">
        <ele>1852.84375</ele>
        <time>2013-01-12T11:02:43Z</time>
      </trkpt>
      <trkpt lat="45.02063" lon="5.58313">
        <ele>1852.766602</ele>
        <time>2013-01-12T11:02:44Z</time>
      </trkpt>
      <trkpt lat="45.02054" lon="5.58313">
        <ele>1856.741089</ele>
        <time>2013-01-12T11:04:51Z</time>
      </trkpt>
      <trkpt lat="45.0204" lon="5.58327">
        <ele>1866.211792</ele>
        <time>2013-01-12T11:05:51Z</time>
      </trkpt>
      <trkpt lat="45.02033" lon="5.58321">
        <ele>1866.983398</ele>
        <time>2013-01-12T11:06:16Z</time>
      </trkpt>
      <trkpt lat="45.02032" lon="5.5832">
        <ele>1867.003296</ele>
        <time>2013-01-12T11:06:17Z</time>
      </trkpt>
      <trkpt lat="45.02016" lon="5.58317">
        <ele>1872.115967</ele>
        <time>2013-01-12T11:06:49Z</time>
      </trkpt>
      <trkpt lat="45.02008" lon="5.58319">
        <ele>1875.92395</ele>
        <time>2013-01-12T11:07:04Z</time>
      </trkpt>
      <trkpt lat="45.02" lon="5.58323">
        <ele>1879.553711</ele>
        <time>2013-01-12T11:07:17Z</time>
      </trkpt>
      <trkpt lat="45.01993" lon="5.58332">
        <ele>1882.519409</ele>
        <time>2013-01-12T11:07:34Z</time>
      </trkpt>
      <trkpt lat="45.01993" lon="5.58333">
        <ele>1882.676147</ele>
        <time>2013-01-12T11:07:35Z</time>
      </trkpt>
      <trkpt lat="45.01978" lon="5.58344">
        <ele>1886.909424</ele>
        <time>2013-01-12T11:08:02Z</time>
      </trkpt>
      <trkpt lat="45.01973" lon="5.58355">
        <ele>1887.555298</ele>
        <time>2013-01-12T11:08:19Z</time>
      </trkpt>
      <trkpt lat="45.01965" lon="5.58362">
        <ele>1889.64856</ele>
        <time>2013-01-12T11:09:06Z</time>
      </trkpt>
      <trkpt lat="45.01965" lon="5.58362">
        <ele>1889.921509</ele>
        <time>2013-01-12T11:09:07Z</time>
      </trkpt>
      <trkpt lat="45.01961" lon="5.58382">
        <ele>1898.282227</ele>
        <time>2013-01-12T11:09:52Z</time>
      </trkpt>
      <trkpt lat="45.01953" lon="5.58386">
        <ele>1901.491455</ele>
        <time>2013-01-12T11:10:17Z</time>
      </trkpt>
      <trkpt lat="45.01953" lon="5.58387">
        <ele>1901.682739</ele>
        <time>2013-01-12T11:10:18Z</time>
      </trkpt>
      <trkpt lat="45.01936" lon="5.5839">
        <ele>1905.886108</ele>
        <time>2013-01-12T11:10:53Z</time>
      </trkpt>
      <trkpt lat="45.01931" lon="5.58399">
        <ele>1909.406616</ele>
        <time>2013-01-12T11:11:10Z</time>
      </trkpt>
      <trkpt lat="45.01931" lon="5.58411">
        <ele>1912.623047</ele>
        <time>2013-01-12T11:11:21Z</time>
      </trkpt>
      <trkpt lat="45.01932" lon="5.58412">
        <ele>1912.896484</ele>
        <time>2013-01-12T11:11:22Z</time>
      </trkpt>
      <trkpt lat="45.01926" lon="5.58423">
        <ele>1916.865723</ele>
        <time>2013-01-12T11:11:58Z</time>
      </trkpt>
      <trkpt lat="45.01918" lon="5.58426">
        <ele>1919.011597</ele>
        <time>2013-01-12T11:12:14Z</time>
      </trkpt>
      <trkpt lat="45.01909" lon="5.58428">
        <ele>1921.452271</ele>
        <time>2013-01-12T11:12:30Z</time>
      </trkpt>
      <trkpt lat="45.01909" lon="5.58428">
        <ele>1921.55957</ele>
        <time>2013-01-12T11:12:31Z</time>
      </trkpt>
      <trkpt lat="45.01892" lon="5.58431">
        <ele>1925.446045</ele>
        <time>2013-01-12T11:12:56Z</time>
      </trkpt>
      <trkpt lat="45.01884" lon="5.58431">
        <ele>1927.093872</ele>
        <time>2013-01-12T11:13:09Z</time>
      </trkpt>
      <trkpt lat="45.01875" lon="5.58431">
        <ele>1928.842163</ele>
        <time>2013-01-12T11:13:21Z</time>
      </trkpt>
      <trkpt lat="45.01866" lon="5.5843">
        <ele>1930.675293</ele>
        <time>2013-01-12T11:13:34Z</time>
      </trkpt>
      <trkpt lat="45.01866" lon="5.5843">
        <ele>1930.82373</ele>
        <time>2013-01-12T11:13:35Z</time>
      </trkpt>
      <trkpt lat="45.01849" lon="5.58432">
        <ele>1935.168579</ele>
        <time>2013-01-12T11:14:01Z</time>
      </trkpt>
      <trkpt lat="45.01841" lon="5.58431">
        <ele>1936.830078</ele>
        <time>2013-01-12T11:14:13Z</time>
      </trkpt>
      <trkpt lat="45.01833" lon="5.58429">
        <ele>1938.290161</ele>
        <time>2013-01-12T11:14:24Z</time>
      </trkpt>
      <trkpt lat="45.01824" lon="5.58427">
        <ele>1939.593506</ele>
        <time>2013-01-12T11:14:36Z</time>
      </trkpt>
      <trkpt lat="45.01824" lon="5.58427">
        <ele>1939.684204</ele>
        <time>2013-01-12T11:14:37Z</time>
      </trkpt>
      <trkpt lat="45.01807" lon="5.58426">
        <ele>1943.281982</ele>
        <time>2013-01-12T11:15:02Z</time>
      </trkpt>
      <trkpt lat="45.01798" lon="5.58426">
        <ele>1945.173462</ele>
        <time>2013-01-12T11:15:14Z</time>
      </trkpt>
      <trkpt lat="45.0179" lon="5.58427">
        <ele>1947.291748</ele>
        <time>2013-01-12T11:15:25Z</time>
      </trkpt>
      <trkpt lat="45.01781" lon="5.58429">
        <ele>1949.064697</ele>
        <time>2013-01-12T11:15:36Z</time>
      </trkpt>
      <trkpt lat="45.01772" lon="5.5843">
        <ele>1950.068115</ele>
        <time>2013-01-12T11:16:02Z</time>
      </trkpt>
      <trkpt lat="45.01772" lon="5.5843">
        <ele>1950.091553</ele>
        <time>2013-01-12T11:16:03Z</time>
      </trkpt>
      <trkpt lat="45.01763" lon="5.58429">
        <ele>1950.812378</ele>
        <time>2013-01-12T11:17:12Z</time>
      </trkpt>
      <trkpt lat="45.01747" lon="5.58424">
        <ele>1951.752197</ele>
        <time>2013-01-12T11:17:28Z</time>
      </trkpt>
      <trkpt lat="45.01739" lon="5.58422">
        <ele>1952.241455</ele>
        <time>2013-01-12T11:17:36Z</time>
      </trkpt>
      <trkpt lat="45.01731" lon="5.5842">
        <ele>1952.202881</ele>
        <time>2013-01-12T11:17:44Z</time>
      </trkpt>
      <trkpt lat="45.01722" lon="5.58419">
        <ele>1952.278442</ele>
        <time>2013-01-12T11:17:53Z</time>
      </trkpt>
      <trkpt lat="45.01713" lon="5.58422">
        <ele>1952.239014</ele>
        <time>2013-01-12T11:18:02Z</time>
      </trkpt>
      <trkpt lat="45.01705" lon="5.58426">
        <ele>1951.864014</ele>
        <time>2013-01-12T11:18:10Z</time>
      </trkpt>
      <trkpt lat="45.01698" lon="5.5843">
        <ele>1951.154419</ele>
        <time>2013-01-12T11:18:17Z</time>
      </trkpt>
      <trkpt lat="45.01697" lon="5.5843">
        <ele>1951.07312</ele>
        <time>2013-01-12T11:18:18Z</time>
      </trkpt>
      <trkpt lat="45.01682" lon="5.58439">
        <ele>1947.264771</ele>
        <time>2013-01-12T11:18:31Z</time>
      </trkpt>
      <trkpt lat="45.01674" lon="5.58444">
        <ele>1944.440308</ele>
        <time>2013-01-12T11:18:39Z</time>
      </trkpt>
      <trkpt lat="45.01666" lon="5.58447">
        <ele>1941.547485</ele>
        <time>2013-01-12T11:18:47Z</time>
      </trkpt>
      <trkpt lat="45.01656" lon="5.58448">
        <ele>1938.469482</ele>
        <time>2013-01-12T11:18:57Z</time>
      </trkpt>
      <trkpt lat="45.01649" lon="5.58452">
        <ele>1935.454468</ele>
        <time>2013-01-12T11:19:08Z</time>
      </trkpt>
      <trkpt lat="45.0164" lon="5.58453">
        <ele>1936.475342</ele>
        <time>2013-01-12T11:19:18Z</time>
      </trkpt>
      <trkpt lat="45.01631" lon="5.58451">
        <ele>1938.370483</ele>
        <time>2013-01-12T11:19:28Z</time>
      </trkpt>
      <trkpt lat="45.01631" lon="5.58451">
        <ele>1938.476318</ele>
        <time>2013-01-12T11:19:29Z</time>
      </trkpt>
      <trkpt lat="45.01616" lon="5.58442">
        <ele>1942.561523</ele>
        <time>2013-01-12T11:20:11Z</time>
      </trkpt>
      <trkpt lat="45.01607" lon="5.58437">
        <ele>1944.556152</ele>
        <time>2013-01-12T11:20:22Z</time>
      </trkpt>
      <trkpt lat="45.016" lon="5.58431">
        <ele>1946.948853</ele>
        <time>2013-01-12T11:20:33Z</time>
      </trkpt>
      <trkpt lat="45.01599" lon="5.58431">
        <ele>1947.213501</ele>
        <time>2013-01-12T11:20:34Z</time>
      </trkpt>
      <trkpt lat="45.01583" lon="5.58428">
        <ele>1950.964355</ele>
        <time>2013-01-12T11:20:52Z</time>
      </trkpt>
      <trkpt lat="45.01575" lon="5.58425">
        <ele>1952.807251</ele>
        <time>2013-01-12T11:21:01Z</time>
      </trkpt>
      <trkpt lat="45.01568" lon="5.58418">
        <ele>1954.355469</ele>
        <time>2013-01-12T11:21:09Z</time>
      </trkpt>
      <trkpt lat="45.0156" lon="5.58414">
        <ele>1955.526855</ele>
        <time>2013-01-12T11:21:18Z</time>
      </trkpt>
      <trkpt lat="45.01551" lon="5.58412">
        <ele>1956.005127</ele>
        <time>2013-01-12T11:21:28Z</time>
      </trkpt>
      <trkpt lat="45.01543" lon="5.58407">
        <ele>1957.02124</ele>
        <time>2013-01-12T11:21:37Z</time>
      </trkpt>
      <trkpt lat="45.01542" lon="5.58407">
        <ele>1957.160278</ele>
        <time>2013-01-12T11:21:38Z</time>
      </trkpt>
      <trkpt lat="45.01526" lon="5.58402">
        <ele>1959.831665</ele>
        <time>2013-01-12T11:21:55Z</time>
      </trkpt>
      <trkpt lat="45.01517" lon="5.58401">
        <ele>1960.992676</ele>
        <time>2013-01-12T11:22:04Z</time>
      </trkpt>
      <trkpt lat="45.01509" lon="5.58401">
        <ele>1957.44104</ele>
        <time>2013-01-12T11:22:13Z</time>
      </trkpt>
      <trkpt lat="45.01501" lon="5.584">
        <ele>1952.721558</ele>
        <time>2013-01-12T11:22:27Z</time>
      </trkpt>
      <trkpt lat="45.01493" lon="5.58405">
        <ele>1945.618896</ele>
        <time>2013-01-12T11:22:37Z</time>
      </trkpt>
      <trkpt lat="45.01501" lon="5.58406">
        <ele>1950.068481</ele>
        <time>2013-01-12T11:24:06Z</time>
      </trkpt>
      <trkpt lat="45.01502" lon="5.58406">
        <ele>1950.737427</ele>
        <time>2013-01-12T11:24:07Z</time>
      </trkpt>
      <trkpt lat="45.01518" lon="5.58407">
        <ele>1958.8573</ele>
        <time>2013-01-12T11:24:32Z</time>
      </trkpt>
      <trkpt lat="45.01526" lon="5.58405">
        <ele>1959.020752</ele>
        <time>2013-01-12T11:24:39Z</time>
      </trkpt>
      <trkpt lat="45.01533" lon="5.58402">
        <ele>1958.982544</ele>
        <time>2013-01-12T11:24:46Z</time>
      </trkpt>
      <trkpt lat="45.01542" lon="5.58401">
        <ele>1957.934937</ele>
        <time>2013-01-12T11:24:53Z</time>
      </trkpt>
      <trkpt lat="45.0155" lon="5.58403">
        <ele>1956.630005</ele>
        <time>2013-01-12T11:25:00Z</time>
      </trkpt>
      <trkpt lat="45.01558" lon="5.58402">
        <ele>1955.6073</ele>
        <time>2013-01-12T11:25:07Z</time>
      </trkpt>
      <trkpt lat="45.01559" lon="5.58402">
        <ele>1955.369995</ele>
        <time>2013-01-12T11:25:08Z</time>
      </trkpt>
      <trkpt lat="45.01574" lon="5.58407">
        <ele>1953.588257</ele>
        <time>2013-01-12T11:25:25Z</time>
      </trkpt>
      <trkpt lat="45.01582" lon="5.58409">
        <ele>1952.44397</ele>
        <time>2013-01-12T11:25:35Z</time>
      </trkpt>
      <trkpt lat="45.01591" lon="5.58411">
        <ele>1951.210327</ele>
        <time>2013-01-12T11:25:44Z</time>
      </trkpt>
      <trkpt lat="45.01599" lon="5.58415">
        <ele>1949.55249</ele>
        <time>2013-01-12T11:25:56Z</time>
      </trkpt>
      <trkpt lat="45.01606" lon="5.58422">
        <ele>1947.351929</ele>
        <time>2013-01-12T11:26:06Z</time>
      </trkpt>
      <trkpt lat="45.01613" lon="5.58431">
        <ele>1945.222046</ele>
        <time>2013-01-12T11:26:14Z</time>
      </trkpt>
      <trkpt lat="45.01614" lon="5.58432">
        <ele>1944.885376</ele>
        <time>2013-01-12T11:26:15Z</time>
      </trkpt>
      <trkpt lat="45.01627" lon="5.58441">
        <ele>1941.504639</ele>
        <time>2013-01-12T11:26:28Z</time>
      </trkpt>
      <trkpt lat="45.01635" lon="5.58444">
        <ele>1939.621826</ele>
        <time>2013-01-12T11:26:33Z</time>
      </trkpt>
      <trkpt lat="45.01643" lon="5.58444">
        <ele>1938.790283</ele>
        <time>2013-01-12T11:26:39Z</time>
      </trkpt>
      <trkpt lat="45.01651" lon="5.58442">
        <ele>1939.035156</ele>
        <time>2013-01-12T11:26:44Z</time>
      </trkpt>
      <trkpt lat="45.01659" lon="5.58441">
        <ele>1941.390503</ele>
        <time>2013-01-12T11:26:51Z</time>
      </trkpt>
      <trkpt lat="45.01666" lon="5.58434">
        <ele>1944.9823</ele>
        <time>2013-01-12T11:27:17Z</time>
      </trkpt>
      <trkpt lat="45.01667" lon="5.58433">
        <ele>1945.233276</ele>
        <time>2013-01-12T11:27:18Z</time>
      </trkpt>
      <trkpt lat="45.01683" lon="5.58429">
        <ele>1949.098267</ele>
        <time>2013-01-12T11:27:37Z</time>
      </trkpt>
      <trkpt lat="45.01691" lon="5.58425">
        <ele>1951.069336</ele>
        <time>2013-01-12T11:27:46Z</time>
      </trkpt>
      <trkpt lat="45.01699" lon="5.58422">
        <ele>1952.143921</ele>
        <time>2013-01-12T11:27:55Z</time>
      </trkpt>
      <trkpt lat="45.01708" lon="5.58419">
        <ele>1952.414551</ele>
        <time>2013-01-12T11:28:04Z</time>
      </trkpt>
      <trkpt lat="45.01716" lon="5.58416">
        <ele>1952.443726</ele>
        <time>2013-01-12T11:28:13Z</time>
      </trkpt>
      <trkpt lat="45.01724" lon="5.58414">
        <ele>1952.175415</ele>
        <time>2013-01-12T11:28:21Z</time>
      </trkpt>
      <trkpt lat="45.01725" lon="5.58414">
        <ele>1952.13623</ele>
        <time>2013-01-12T11:28:22Z</time>
      </trkpt>
      <trkpt lat="45.01741" lon="5.58417">
        <ele>1951.704956</ele>
        <time>2013-01-12T11:28:34Z</time>
      </trkpt>
      <trkpt lat="45.01749" lon="5.58418">
        <ele>1950.864502</ele>
        <time>2013-01-12T11:28:42Z</time>
      </trkpt>
      <trkpt lat="45.01758" lon="5.58421">
        <ele>1950.112549</ele>
        <time>2013-01-12T11:28:51Z</time>
      </trkpt>
      <trkpt lat="45.01767" lon="5.58424">
        <ele>1949.608643</ele>
        <time>2013-01-12T11:29:32Z</time>
      </trkpt>
      <trkpt lat="45.01767" lon="5.58424">
        <ele>1949.646484</ele>
        <time>2013-01-12T11:29:33Z</time>
      </trkpt>
      <trkpt lat="45.01776" lon="5.58427">
        <ele>1949.13501</ele>
        <time>2013-01-12T11:30:34Z</time>
      </trkpt>
      <trkpt lat="45.01791" lon="5.58426">
        <ele>1946.66394</ele>
        <time>2013-01-12T11:30:45Z</time>
      </trkpt>
      <trkpt lat="45.01799" lon="5.58425">
        <ele>1944.735474</ele>
        <time>2013-01-12T11:30:51Z</time>
      </trkpt>
      <trkpt lat="45.01807" lon="5.58424">
        <ele>1942.516602</ele>
        <time>2013-01-12T11:30:57Z</time>
      </trkpt>
      <trkpt lat="45.01816" lon="5.58422">
        <ele>1939.993896</ele>
        <time>2013-01-12T11:31:03Z</time>
      </trkpt>
      <trkpt lat="45.01823" lon="5.58422">
        <ele>1938.25</ele>
        <time>2013-01-12T11:31:08Z</time>
      </trkpt>
      <trkpt lat="45.01831" lon="5.58424">
        <ele>1936.998535</ele>
        <time>2013-01-12T11:31:35Z</time>
      </trkpt>
      <trkpt lat="45.01833" lon="5.58424">
        <ele>1936.690674</ele>
        <time>2013-01-12T11:31:36Z</time>
      </trkpt>
      <trkpt lat="45.01848" lon="5.58421">
        <ele>1931.863892</ele>
        <time>2013-01-12T11:31:47Z</time>
      </trkpt>
      <trkpt lat="45.01856" lon="5.5842">
        <ele>1929.336792</ele>
        <time>2013-01-12T11:31:51Z</time>
      </trkpt>
      <trkpt lat="45.01864" lon="5.5842">
        <ele>1927.222534</ele>
        <time>2013-01-12T11:31:55Z</time>
      </trkpt>
      <trkpt lat="45.01872" lon="5.58419">
        <ele>1924.828003</ele>
        <time>2013-01-12T11:31:59Z</time>
      </trkpt>
      <trkpt lat="45.0188" lon="5.58417">
        <ele>1922.253906</ele>
        <time>2013-01-12T11:32:03Z</time>
      </trkpt>
      <trkpt lat="45.01889" lon="5.58415">
        <ele>1920.398438</ele>
        <time>2013-01-12T11:32:07Z</time>
      </trkpt>
      <trkpt lat="45.01897" lon="5.58412">
        <ele>1918.515137</ele>
        <time>2013-01-12T11:32:11Z</time>
      </trkpt>
      <trkpt lat="45.01904" lon="5.58412">
        <ele>1917.15564</ele>
        <time>2013-01-12T11:32:14Z</time>
      </trkpt>
      <trkpt lat="45.01912" lon="5.5841">
        <ele>1915.424561</ele>
        <time>2013-01-12T11:32:17Z</time>
      </trkpt>
      <trkpt lat="45.01919" lon="5.58409">
        <ele>1913.554199</ele>
        <time>2013-01-12T11:32:20Z</time>
      </trkpt>
      <trkpt lat="45.01927" lon="5.58405">
        <ele>1911.558228</ele>
        <time>2013-01-12T11:32:24Z</time>
      </trkpt>
      <trkpt lat="45.01935" lon="5.58402">
        <ele>1909.606812</ele>
        <time>2013-01-12T11:32:30Z</time>
      </trkpt>
      <trkpt lat="45.01944" lon="5.584">
        <ele>1907.709351</ele>
        <time>2013-01-12T11:32:34Z</time>
      </trkpt>
      <trkpt lat="45.01951" lon="5.58399">
        <ele>1906.289673</ele>
        <time>2013-01-12T11:32:37Z</time>
      </trkpt>
      <trkpt lat="45.01953" lon="5.58398">
        <ele>1905.725586</ele>
        <time>2013-01-12T11:32:38Z</time>
      </trkpt>
      <trkpt lat="45.01967" lon="5.58394">
        <ele>1901.977783</ele>
        <time>2013-01-12T11:32:44Z</time>
      </trkpt>
      <trkpt lat="45.01974" lon="5.58391">
        <ele>1899.840576</ele>
        <time>2013-01-12T11:32:47Z</time>
      </trkpt>
      <trkpt lat="45.01982" lon="5.58386">
        <ele>1896.902344</ele>
        <time>2013-01-12T11:32:50Z</time>
      </trkpt>
      <trkpt lat="45.0199" lon="5.58383">
        <ele>1894.703247</ele>
        <time>2013-01-12T11:32:54Z</time>
      </trkpt>
      <trkpt lat="45.01991" lon="5.58371">
        <ele>1889.629761</ele>
        <time>2013-01-12T11:33:41Z</time>
      </trkpt>
      <trkpt lat="45.0199" lon="5.5837">
        <ele>1889.443604</ele>
        <time>2013-01-12T11:33:42Z</time>
      </trkpt>
      <trkpt lat="45.01992" lon="5.5836">
        <ele>1885.19104</ele>
        <time>2013-01-12T11:34:03Z</time>
      </trkpt>
      <trkpt lat="45.02001" lon="5.58359">
        <ele>1883.945679</ele>
        <time>2013-01-12T11:34:17Z</time>
      </trkpt>
      <trkpt lat="45.02005" lon="5.5837">
        <ele>1887.195313</ele>
        <time>2013-01-12T11:40:12Z</time>
      </trkpt>
      <trkpt lat="45.02006" lon="5.5837">
        <ele>1887.203247</ele>
        <time>2013-01-12T11:40:13Z</time>
      </trkpt>
      <trkpt lat="45.02001" lon="5.58359">
        <ele>1883.973755</ele>
        <time>2013-01-12T12:02:51Z</time>
      </trkpt>
      <trkpt lat="45.01999" lon="5.58346">
        <ele>1882.558838</ele>
        <time>2013-01-12T12:07:36Z</time>
      </trkpt>
      <trkpt lat="45.02" lon="5.58323">
        <ele>1879.315308</ele>
        <time>2013-01-12T12:08:30Z</time>
      </trkpt>
      <trkpt lat="45.02007" lon="5.58319">
        <ele>1876.052246</ele>
        <time>2013-01-12T12:08:36Z</time>
      </trkpt>
      <trkpt lat="45.02015" lon="5.58314">
        <ele>1872.057617</ele>
        <time>2013-01-12T12:08:42Z</time>
      </trkpt>
      <trkpt lat="45.02016" lon="5.58314">
        <ele>1871.542969</ele>
        <time>2013-01-12T12:08:43Z</time>
      </trkpt>
      <trkpt lat="45.02032" lon="5.58314">
        <ele>1865.626709</ele>
        <time>2013-01-12T12:09:02Z</time>
      </trkpt>
      <trkpt lat="45.0204" lon="5.58315">
        <ele>1862.71521</ele>
        <time>2013-01-12T12:09:15Z</time>
      </trkpt>
      <trkpt lat="45.02048" lon="5.58311">
        <ele>1858.296875</ele>
        <time>2013-01-12T12:09:27Z</time>
      </trkpt>
      <trkpt lat="45.02055" lon="5.58308">
        <ele>1854.21936</ele>
        <time>2013-01-12T12:09:36Z</time>
      </trkpt>
      <trkpt lat="45.02064" lon="5.58309">
        <ele>1851.458252</ele>
        <time>2013-01-12T12:09:47Z</time>
      </trkpt>
      <trkpt lat="45.02064" lon="5.58311">
        <ele>1851.744141</ele>
        <time>2013-01-12T12:09:48Z</time>
      </trkpt>
      <trkpt lat="45.02073" lon="5.58328">
        <ele>1854.441772</ele>
        <time>2013-01-12T12:10:03Z</time>
      </trkpt>
      <trkpt lat="45.02078" lon="5.58337">
        <ele>1855.572388</ele>
        <time>2013-01-12T12:10:09Z</time>
      </trkpt>
      <trkpt lat="45.02084" lon="5.58328">
        <ele>1850.203857</ele>
        <time>2013-01-12T12:10:34Z</time>
      </trkpt>
      <trkpt lat="45.02091" lon="5.58327">
        <ele>1846.911743</ele>
        <time>2013-01-12T12:10:41Z</time>
      </trkpt>
      <trkpt lat="45.02093" lon="5.58316">
        <ele>1842.057861</ele>
        <time>2013-01-12T12:10:48Z</time>
      </trkpt>
      <trkpt lat="45.02095" lon="5.58309">
        <ele>1838.940674</ele>
        <time>2013-01-12T12:10:52Z</time>
      </trkpt>
      <trkpt lat="45.02096" lon="5.58303">
        <ele>1836.881348</ele>
        <time>2013-01-12T12:10:53Z</time>
      </trkpt>
      <trkpt lat="45.021" lon="5.58287">
        <ele>1838.284912</ele>
        <time>2013-01-12T12:11:04Z</time>
      </trkpt>
      <trkpt lat="45.02103" lon="5.58276">
        <ele>1839.011353</ele>
        <time>2013-01-12T12:11:14Z</time>
      </trkpt>
      <trkpt lat="45.02108" lon="5.58266">
        <ele>1838.150635</ele>
        <time>2013-01-12T12:11:24Z</time>
      </trkpt>
      <trkpt lat="45.02115" lon="5.58259">
        <ele>1835.554688</ele>
        <time>2013-01-12T12:11:42Z</time>
      </trkpt>
      <trkpt lat="45.02121" lon="5.58249">
        <ele>1833.800781</ele>
        <time>2013-01-12T12:12:04Z</time>
      </trkpt>
      <trkpt lat="45.02122" lon="5.58248">
        <ele>1833.466553</ele>
        <time>2013-01-12T12:12:05Z</time>
      </trkpt>
      <trkpt lat="45.02135" lon="5.58238">
        <ele>1827.010986</ele>
        <time>2013-01-12T12:12:30Z</time>
      </trkpt>
      <trkpt lat="45.02144" lon="5.58237">
        <ele>1821.861084</ele>
        <time>2013-01-12T12:12:43Z</time>
      </trkpt>
      <trkpt lat="45.02153" lon="5.58234">
        <ele>1817.452515</ele>
        <time>2013-01-12T12:12:57Z</time>
      </trkpt>
      <trkpt lat="45.02159" lon="5.58224">
        <ele>1815.677856</ele>
        <time>2013-01-12T12:13:21Z</time>
      </trkpt>
      <trkpt lat="45.02159" lon="5.58223">
        <ele>1815.718628</ele>
        <time>2013-01-12T12:13:22Z</time>
      </trkpt>
      <trkpt lat="45.02169" lon="5.58205">
        <ele>1812.665039</ele>
        <time>2013-01-12T12:13:54Z</time>
      </trkpt>
      <trkpt lat="45.02173" lon="5.58214">
        <ele>1809.150146</ele>
        <time>2013-01-12T12:14:34Z</time>
      </trkpt>
      <trkpt lat="45.02174" lon="5.58216">
        <ele>1808.60376</ele>
        <time>2013-01-12T12:14:35Z</time>
      </trkpt>
      <trkpt lat="45.02181" lon="5.58209">
        <ele>1805.284058</ele>
        <time>2013-01-12T12:15:45Z</time>
      </trkpt>
      <trkpt lat="45.02182" lon="5.58208">
        <ele>1805.011475</ele>
        <time>2013-01-12T12:15:46Z</time>
      </trkpt>
      <trkpt lat="45.0219" lon="5.58191">
        <ele>1801.605835</ele>
        <time>2013-01-12T12:15:58Z</time>
      </trkpt>
      <trkpt lat="45.02196" lon="5.58183">
        <ele>1798.805908</ele>
        <time>2013-01-12T12:16:02Z</time>
      </trkpt>
      <trkpt lat="45.02204" lon="5.58178">
        <ele>1796.483032</ele>
        <time>2013-01-12T12:16:36Z</time>
      </trkpt>
      <trkpt lat="45.02213" lon="5.58178">
        <ele>1792.773315</ele>
        <time>2013-01-12T12:16:55Z</time>
      </trkpt>
      <trkpt lat="45.02214" lon="5.5818">
        <ele>1792.20874</ele>
        <time>2013-01-12T12:16:56Z</time>
      </trkpt>
      <trkpt lat="45.02228" lon="5.58176">
        <ele>1787.261597</ele>
        <time>2013-01-12T12:17:06Z</time>
      </trkpt>
      <trkpt lat="45.02221" lon="5.58183">
        <ele>1787.974731</ele>
        <time>2013-01-12T12:21:44Z</time>
      </trkpt>
      <trkpt lat="45.02221" lon="5.58183">
        <ele>1788.307373</ele>
        <time>2013-01-12T12:21:45Z</time>
      </trkpt>
      <trkpt lat="45.02205" lon="5.58189">
        <ele>1794.484375</ele>
        <time>2013-01-12T12:22:24Z</time>
      </trkpt>
      <trkpt lat="45.02204" lon="5.58177">
        <ele>1796.967773</ele>
        <time>2013-01-12T12:22:44Z</time>
      </trkpt>
      <trkpt lat="45.02207" lon="5.58166">
        <ele>1798.969849</ele>
        <time>2013-01-12T12:23:01Z</time>
      </trkpt>
      <trkpt lat="45.02208" lon="5.58165">
        <ele>1799.109009</ele>
        <time>2013-01-12T12:23:02Z</time>
      </trkpt>
      <trkpt lat="45.02203" lon="5.58143">
        <ele>1808.207642</ele>
        <time>2013-01-12T12:23:33Z</time>
      </trkpt>
      <trkpt lat="45.02199" lon="5.58132">
        <ele>1813.675049</ele>
        <time>2013-01-12T12:23:49Z</time>
      </trkpt>
      <trkpt lat="45.0219" lon="5.58134">
        <ele>1817.956909</ele>
        <time>2013-01-12T12:24:18Z</time>
      </trkpt>
      <trkpt lat="45.0219" lon="5.58134">
        <ele>1818.141602</ele>
        <time>2013-01-12T12:24:19Z</time>
      </trkpt>
      <trkpt lat="45.02193" lon="5.58112">
        <ele>1823.22644</ele>
        <time>2013-01-12T12:24:54Z</time>
      </trkpt>
      <trkpt lat="45.02196" lon="5.58101">
        <ele>1823.453125</ele>
        <time>2013-01-12T12:25:05Z</time>
      </trkpt>
      <trkpt lat="45.02201" lon="5.58091">
        <ele>1822.364868</ele>
        <time>2013-01-12T12:25:17Z</time>
      </trkpt>
      <trkpt lat="45.02203" lon="5.58078">
        <ele>1824.035767</ele>
        <time>2013-01-12T12:25:29Z</time>
      </trkpt>
      <trkpt lat="45.02203" lon="5.58077">
        <ele>1824.11145</ele>
        <time>2013-01-12T12:25:30Z</time>
      </trkpt>
      <trkpt lat="45.02204" lon="5.58054">
        <ele>1828.08313</ele>
        <time>2013-01-12T12:25:51Z</time>
      </trkpt>
      <trkpt lat="45.02208" lon="5.58043">
        <ele>1827.090942</ele>
        <time>2013-01-12T12:26:02Z</time>
      </trkpt>
      <trkpt lat="45.02211" lon="5.58032">
        <ele>1826.410522</ele>
        <time>2013-01-12T12:26:13Z</time>
      </trkpt>
      <trkpt lat="45.02214" lon="5.5802">
        <ele>1826.109375</ele>
        <time>2013-01-12T12:26:23Z</time>
      </trkpt>
      <trkpt lat="45.02219" lon="5.5801">
        <ele>1824.242188</ele>
        <time>2013-01-12T12:26:35Z</time>
      </trkpt>
      <trkpt lat="45.02219" lon="5.58009">
        <ele>1824.049438</ele>
        <time>2013-01-12T12:26:36Z</time>
      </trkpt>
      <trkpt lat="45.02225" lon="5.57987">
        <ele>1821.92041</ele>
        <time>2013-01-12T12:27:00Z</time>
      </trkpt>
      <trkpt lat="45.02226" lon="5.57974">
        <ele>1821.775635</ele>
        <time>2013-01-12T12:27:11Z</time>
      </trkpt>
      <trkpt lat="45.02228" lon="5.57963">
        <ele>1820.993774</ele>
        <time>2013-01-12T12:27:21Z</time>
      </trkpt>
      <trkpt lat="45.02232" lon="5.57952">
        <ele>1819.567993</ele>
        <time>2013-01-12T12:27:33Z</time>
      </trkpt>
      <trkpt lat="45.02229" lon="5.5794">
        <ele>1820.958496</ele>
        <time>2013-01-12T12:27:44Z</time>
      </trkpt>
      <trkpt lat="45.02228" lon="5.5794">
        <ele>1821.127686</ele>
        <time>2013-01-12T12:27:45Z</time>
      </trkpt>
      <trkpt lat="45.02219" lon="5.57921">
        <ele>1823.483521</ele>
        <time>2013-01-12T12:28:13Z</time>
      </trkpt>
      <trkpt lat="45.02217" lon="5.57909">
        <ele>1822.779907</ele>
        <time>2013-01-12T12:28:21Z</time>
      </trkpt>
      <trkpt lat="45.02216" lon="5.57897">
        <ele>1821.674561</ele>
        <time>2013-01-12T12:28:33Z</time>
      </trkpt>
      <trkpt lat="45.02211" lon="5.57887">
        <ele>1821.956055</ele>
        <time>2013-01-12T12:28:48Z</time>
      </trkpt>
      <trkpt lat="45.0221" lon="5.57886">
        <ele>1822.080933</ele>
        <time>2013-01-12T12:28:49Z</time>
      </trkpt>
      <trkpt lat="45.02198" lon="5.57871">
        <ele>1824.131348</ele>
        <time>2013-01-12T12:29:09Z</time>
      </trkpt>
      <trkpt lat="45.02189" lon="5.57867">
        <ele>1826.37207</ele>
        <time>2013-01-12T12:29:28Z</time>
      </trkpt>
      <trkpt lat="45.02192" lon="5.57856">
        <ele>1822.533813</ele>
        <time>2013-01-12T12:30:04Z</time>
      </trkpt>
      <trkpt lat="45.02191" lon="5.57854">
        <ele>1822.391724</ele>
        <time>2013-01-12T12:30:05Z</time>
      </trkpt>
      <trkpt lat="45.0218" lon="5.5784">
        <ele>1821.80481</ele>
        <time>2013-01-12T12:30:27Z</time>
      </trkpt>
      <trkpt lat="45.02173" lon="5.57833">
        <ele>1821.475464</ele>
        <time>2013-01-12T12:30:39Z</time>
      </trkpt>
      <trkpt lat="45.02166" lon="5.57826">
        <ele>1820.938965</ele>
        <time>2013-01-12T12:30:49Z</time>
      </trkpt>
      <trkpt lat="45.02159" lon="5.5782">
        <ele>1820.577148</ele>
        <time>2013-01-12T12:30:59Z</time>
      </trkpt>
      <trkpt lat="45.02151" lon="5.57815">
        <ele>1820.62561</ele>
        <time>2013-01-12T12:31:10Z</time>
      </trkpt>
      <trkpt lat="45.0215" lon="5.57814">
        <ele>1820.625</ele>
        <time>2013-01-12T12:31:11Z</time>
      </trkpt>
      <trkpt lat="45.02135" lon="5.57805">
        <ele>1820.882935</ele>
        <time>2013-01-12T12:32:09Z</time>
      </trkpt>
      <trkpt lat="45.02129" lon="5.57797">
        <ele>1818.80249</ele>
        <time>2013-01-12T12:32:18Z</time>
      </trkpt>
      <trkpt lat="45.02128" lon="5.57796">
        <ele>1818.569946</ele>
        <time>2013-01-12T12:32:19Z</time>
      </trkpt>
      <trkpt lat="45.02115" lon="5.57784">
        <ele>1817.062256</ele>
        <time>2013-01-12T12:32:39Z</time>
      </trkpt>
      <trkpt lat="45.02107" lon="5.57779">
        <ele>1816.553833</ele>
        <time>2013-01-12T12:32:49Z</time>
      </trkpt>
      <trkpt lat="45.02099" lon="5.57773">
        <ele>1815.997314</ele>
        <time>2013-01-12T12:32:59Z</time>
      </trkpt>
      <trkpt lat="45.02092" lon="5.57768">
        <ele>1814.944092</ele>
        <time>2013-01-12T12:33:08Z</time>
      </trkpt>
      <trkpt lat="45.02084" lon="5.5776">
        <ele>1813.086914</ele>
        <time>2013-01-12T12:33:18Z</time>
      </trkpt>
      <trkpt lat="45.02077" lon="5.57754">
        <ele>1811.524048</ele>
        <time>2013-01-12T12:33:27Z</time>
      </trkpt>
      <trkpt lat="45.02076" lon="5.57754">
        <ele>1811.388672</ele>
        <time>2013-01-12T12:33:28Z</time>
      </trkpt>
      <trkpt lat="45.02062" lon="5.57743">
        <ele>1809.52124</ele>
        <time>2013-01-12T12:33:47Z</time>
      </trkpt>
      <trkpt lat="45.02054" lon="5.57736">
        <ele>1807.88623</ele>
        <time>2013-01-12T12:33:58Z</time>
      </trkpt>
      <trkpt lat="45.02048" lon="5.57729">
        <ele>1806.02002</ele>
        <time>2013-01-12T12:34:07Z</time>
      </trkpt>
      <trkpt lat="45.0204" lon="5.57725">
        <ele>1806.436523</ele>
        <time>2013-01-12T12:34:16Z</time>
      </trkpt>
      <trkpt lat="45.02032" lon="5.57721">
        <ele>1806.893066</ele>
        <time>2013-01-12T12:34:25Z</time>
      </trkpt>
      <trkpt lat="45.02025" lon="5.57715">
        <ele>1807.287476</ele>
        <time>2013-01-12T12:34:34Z</time>
      </trkpt>
      <trkpt lat="45.02024" lon="5.57714">
        <ele>1807.333008</ele>
        <time>2013-01-12T12:34:35Z</time>
      </trkpt>
      <trkpt lat="45.0201" lon="5.57701">
        <ele>1807.585449</ele>
        <time>2013-01-12T12:34:52Z</time>
      </trkpt>
      <trkpt lat="45.02003" lon="5.57695">
        <ele>1807.80188</ele>
        <time>2013-01-12T12:35:01Z</time>
      </trkpt>
      <trkpt lat="45.01996" lon="5.57688">
        <ele>1808.11145</ele>
        <time>2013-01-12T12:36:34Z</time>
      </trkpt>
      <trkpt lat="45.01995" lon="5.57688">
        <ele>1808.103394</ele>
        <time>2013-01-12T12:36:35Z</time>
      </trkpt>
      <trkpt lat="45.01983" lon="5.57672">
        <ele>1807.41626</ele>
        <time>2013-01-12T12:37:14Z</time>
      </trkpt>
      <trkpt lat="45.01976" lon="5.57664">
        <ele>1807.451294</ele>
        <time>2013-01-12T12:37:25Z</time>
      </trkpt>
      <trkpt lat="45.0197" lon="5.57657">
        <ele>1807.847534</ele>
        <time>2013-01-12T12:37:35Z</time>
      </trkpt>
      <trkpt lat="45.01969" lon="5.57656">
        <ele>1807.917236</ele>
        <time>2013-01-12T12:37:36Z</time>
      </trkpt>
      <trkpt lat="45.01956" lon="5.57642">
        <ele>1809.035522</ele>
        <time>2013-01-12T12:37:55Z</time>
      </trkpt>
      <trkpt lat="45.01949" lon="5.57634">
        <ele>1809.576294</ele>
        <time>2013-01-12T12:38:05Z</time>
      </trkpt>
      <trkpt lat="45.01943" lon="5.57625">
        <ele>1809.645996</ele>
        <time>2013-01-12T12:38:15Z</time>
      </trkpt>
      <trkpt lat="45.01938" lon="5.57616">
        <ele>1809.789063</ele>
        <time>2013-01-12T12:38:25Z</time>
      </trkpt>
      <trkpt lat="45.01931" lon="5.57609">
        <ele>1810.948364</ele>
        <time>2013-01-12T12:38:34Z</time>
      </trkpt>
      <trkpt lat="45.01923" lon="5.57604">
        <ele>1812.453369</ele>
        <time>2013-01-12T12:38:45Z</time>
      </trkpt>
      <trkpt lat="45.01922" lon="5.57603">
        <ele>1812.610229</ele>
        <time>2013-01-12T12:38:46Z</time>
      </trkpt>
      <trkpt lat="45.01906" lon="5.57599">
        <ele>1816.733765</ele>
        <time>2013-01-12T12:39:06Z</time>
      </trkpt>
      <trkpt lat="45.01898" lon="5.57599">
        <ele>1819.346069</ele>
        <time>2013-01-12T12:39:16Z</time>
      </trkpt>
      <trkpt lat="45.0189" lon="5.57599">
        <ele>1822.070801</ele>
        <time>2013-01-12T12:39:27Z</time>
      </trkpt>
      <trkpt lat="45.01881" lon="5.57598">
        <ele>1824.770752</ele>
        <time>2013-01-12T12:39:38Z</time>
      </trkpt>
      <trkpt lat="45.01873" lon="5.57592">
        <ele>1826.818481</ele>
        <time>2013-01-12T12:39:50Z</time>
      </trkpt>
      <trkpt lat="45.01873" lon="5.57591">
        <ele>1827.079468</ele>
        <time>2013-01-12T12:39:51Z</time>
      </trkpt>
      <trkpt lat="45.01865" lon="5.5757">
        <ele>1831.20105</ele>
        <time>2013-01-12T12:40:14Z</time>
      </trkpt>
      <trkpt lat="45.01865" lon="5.57559">
        <ele>1832.231079</ele>
        <time>2013-01-12T12:40:26Z</time>
      </trkpt>
      <trkpt lat="45.01866" lon="5.57546">
        <ele>1832.812866</ele>
        <time>2013-01-12T12:40:39Z</time>
      </trkpt>
      <trkpt lat="45.01866" lon="5.57534">
        <ele>1833.734497</ele>
        <time>2013-01-12T12:40:53Z</time>
      </trkpt>
      <trkpt lat="45.01866" lon="5.57533">
        <ele>1833.89978</ele>
        <time>2013-01-12T12:40:54Z</time>
      </trkpt>
      <trkpt lat="45.01849" lon="5.5753">
        <ele>1838.57605</ele>
        <time>2013-01-12T12:41:17Z</time>
      </trkpt>
      <trkpt lat="45.01841" lon="5.57532">
        <ele>1840.576782</ele>
        <time>2013-01-12T12:41:35Z</time>
      </trkpt>
      <trkpt lat="45.01832" lon="5.57534">
        <ele>1842.698364</ele>
        <time>2013-01-12T12:41:51Z</time>
      </trkpt>
      <trkpt lat="45.01823" lon="5.57533">
        <ele>1844.824951</ele>
        <time>2013-01-12T12:42:09Z</time>
      </trkpt>
      <trkpt lat="45.01823" lon="5.57533">
        <ele>1844.943726</ele>
        <time>2013-01-12T12:42:10Z</time>
      </trkpt>
      <trkpt lat="45.01807" lon="5.57534">
        <ele>1848.349243</ele>
        <time>2013-01-12T12:42:43Z</time>
      </trkpt>
      <trkpt lat="45.018" lon="5.57542">
        <ele>1849.030029</ele>
        <time>2013-01-12T12:42:54Z</time>
      </trkpt>
      <trkpt lat="45.01792" lon="5.57546">
        <ele>1850.038574</ele>
        <time>2013-01-12T12:43:03Z</time>
      </trkpt>
      <trkpt lat="45.01783" lon="5.57549">
        <ele>1851.106079</ele>
        <time>2013-01-12T12:43:13Z</time>
      </trkpt>
      <trkpt lat="45.01783" lon="5.57549">
        <ele>1851.211426</ele>
        <time>2013-01-12T12:43:14Z</time>
      </trkpt>
      <trkpt lat="45.01767" lon="5.57554">
        <ele>1853.388794</ele>
        <time>2013-01-12T12:44:07Z</time>
      </trkpt>
      <trkpt lat="45.01758" lon="5.57557">
        <ele>1853.115845</ele>
        <time>2013-01-12T12:44:15Z</time>
      </trkpt>
      <trkpt lat="45.01757" lon="5.57557">
        <ele>1853.07251</ele>
        <time>2013-01-12T12:44:16Z</time>
      </trkpt>
      <trkpt lat="45.01741" lon="5.5756">
        <ele>1852.421021</ele>
        <time>2013-01-12T12:44:33Z</time>
      </trkpt>
      <trkpt lat="45.01733" lon="5.57564">
        <ele>1852.138306</ele>
        <time>2013-01-12T12:44:42Z</time>
      </trkpt>
      <trkpt lat="45.01726" lon="5.5757">
        <ele>1851.956909</ele>
        <time>2013-01-12T12:44:49Z</time>
      </trkpt>
      <trkpt lat="45.01718" lon="5.57575">
        <ele>1851.412476</ele>
        <time>2013-01-12T12:44:58Z</time>
      </trkpt>
      <trkpt lat="45.01709" lon="5.57577">
        <ele>1849.983765</ele>
        <time>2013-01-12T12:45:05Z</time>
      </trkpt>
      <trkpt lat="45.01702" lon="5.57582">
        <ele>1848.736206</ele>
        <time>2013-01-12T12:45:12Z</time>
      </trkpt>
      <trkpt lat="45.01695" lon="5.5759">
        <ele>1848.257324</ele>
        <time>2013-01-12T12:45:20Z</time>
      </trkpt>
      <trkpt lat="45.01694" lon="5.57591">
        <ele>1848.263672</ele>
        <time>2013-01-12T12:45:21Z</time>
      </trkpt>
      <trkpt lat="45.01685" lon="5.57608">
        <ele>1848.509033</ele>
        <time>2013-01-12T12:45:34Z</time>
      </trkpt>
      <trkpt lat="45.01681" lon="5.57613">
        <ele>1848.473145</ele>
        <time>2013-01-12T12:45:36Z</time>
      </trkpt>
      <trkpt lat="45.01673" lon="5.57619">
        <ele>1848.15271</ele>
        <time>2013-01-12T12:45:38Z</time>
      </trkpt>
      <trkpt lat="45.01666" lon="5.57622">
        <ele>1847.513306</ele>
        <time>2013-01-12T12:45:42Z</time>
      </trkpt>
      <trkpt lat="45.01658" lon="5.57623">
        <ele>1846.641357</ele>
        <time>2013-01-12T12:45:49Z</time>
      </trkpt>
      <trkpt lat="45.01649" lon="5.57626">
        <ele>1845.842896</ele>
        <time>2013-01-12T12:46:00Z</time>
      </trkpt>
      <trkpt lat="45.01641" lon="5.57628">
        <ele>1845.244263</ele>
        <time>2013-01-12T12:46:12Z</time>
      </trkpt>
      <trkpt lat="45.01633" lon="5.57632">
        <ele>1844.990112</ele>
        <time>2013-01-12T12:46:20Z</time>
      </trkpt>
      <trkpt lat="45.01626" lon="5.57637">
        <ele>1845.148438</ele>
        <time>2013-01-12T12:46:28Z</time>
      </trkpt>
      <trkpt lat="45.01625" lon="5.57638">
        <ele>1845.206055</ele>
        <time>2013-01-12T12:46:29Z</time>
      </trkpt>
      <trkpt lat="45.01611" lon="5.5765">
        <ele>1846.625977</ele>
        <time>2013-01-12T12:46:44Z</time>
      </trkpt>
      <trkpt lat="45.01604" lon="5.57656">
        <ele>1847.167236</ele>
        <time>2013-01-12T12:46:51Z</time>
      </trkpt>
      <trkpt lat="45.01596" lon="5.57662">
        <ele>1847.281128</ele>
        <time>2013-01-12T12:47:22Z</time>
      </trkpt>
      <trkpt lat="45.01591" lon="5.57671">
        <ele>1847.959961</ele>
        <time>2013-01-12T12:47:30Z</time>
      </trkpt>
      <trkpt lat="45.0159" lon="5.57672">
        <ele>1848.049805</ele>
        <time>2013-01-12T12:47:31Z</time>
      </trkpt>
      <trkpt lat="45.01578" lon="5.57685">
        <ele>1847.80835</ele>
        <time>2013-01-12T12:48:10Z</time>
      </trkpt>
      <trkpt lat="45.01572" lon="5.57692">
        <ele>1847.432373</ele>
        <time>2013-01-12T12:48:19Z</time>
      </trkpt>
      <trkpt lat="45.01564" lon="5.57699">
        <ele>1846.535034</ele>
        <time>2013-01-12T12:48:28Z</time>
      </trkpt>
      <trkpt lat="45.01557" lon="5.57705">
        <ele>1846.719238</ele>
        <time>2013-01-12T12:48:37Z</time>
      </trkpt>
      <trkpt lat="45.01556" lon="5.57706">
        <ele>1846.872437</ele>
        <time>2013-01-12T12:48:38Z</time>
      </trkpt>
      <trkpt lat="45.01543" lon="5.57718">
        <ele>1847.421021</ele>
        <time>2013-01-12T12:48:55Z</time>
      </trkpt>
      <trkpt lat="45.01536" lon="5.57724">
        <ele>1847.538452</ele>
        <time>2013-01-12T12:49:03Z</time>
      </trkpt>
      <trkpt lat="45.01528" lon="5.57731">
        <ele>1848.594116</ele>
        <time>2013-01-12T12:49:11Z</time>
      </trkpt>
      <trkpt lat="45.01521" lon="5.57737">
        <ele>1849.308228</ele>
        <time>2013-01-12T12:49:26Z</time>
      </trkpt>
      <trkpt lat="45.01513" lon="5.57743">
        <ele>1849.700806</ele>
        <time>2013-01-12T12:49:36Z</time>
      </trkpt>
      <trkpt lat="45.01506" lon="5.57749">
        <ele>1849.696777</ele>
        <time>2013-01-12T12:49:44Z</time>
      </trkpt>
      <trkpt lat="45.01505" lon="5.57749">
        <ele>1849.626953</ele>
        <time>2013-01-12T12:49:45Z</time>
      </trkpt>
      <trkpt lat="45.0149" lon="5.57756">
        <ele>1848.347412</ele>
        <time>2013-01-12T12:50:01Z</time>
      </trkpt>
      <trkpt lat="45.01481" lon="5.57758">
        <ele>1849.364502</ele>
        <time>2013-01-12T12:50:10Z</time>
      </trkpt>
      <trkpt lat="45.01473" lon="5.57761">
        <ele>1850.901245</ele>
        <time>2013-01-12T12:50:20Z</time>
      </trkpt>
      <trkpt lat="45.01464" lon="5.57763">
        <ele>1852.562866</ele>
        <time>2013-01-12T12:50:29Z</time>
      </trkpt>
      <trkpt lat="45.01455" lon="5.57766">
        <ele>1854.443726</ele>
        <time>2013-01-12T12:50:57Z</time>
      </trkpt>
      <trkpt lat="45.01454" lon="5.57766">
        <ele>1854.524658</ele>
        <time>2013-01-12T12:50:58Z</time>
      </trkpt>
      <trkpt lat="45.01438" lon="5.57761">
        <ele>1854.543701</ele>
        <time>2013-01-12T12:51:18Z</time>
      </trkpt>
      <trkpt lat="45.01429" lon="5.57757">
        <ele>1854.671387</ele>
        <time>2013-01-12T12:51:27Z</time>
      </trkpt>
      <trkpt lat="45.0142" lon="5.57754">
        <ele>1855.53479</ele>
        <time>2013-01-12T12:51:37Z</time>
      </trkpt>
      <trkpt lat="45.01412" lon="5.57752">
        <ele>1856.412964</ele>
        <time>2013-01-12T12:51:46Z</time>
      </trkpt>
      <trkpt lat="45.01404" lon="5.57747">
        <ele>1856.807983</ele>
        <time>2013-01-12T12:51:57Z</time>
      </trkpt>
      <trkpt lat="45.01396" lon="5.57742">
        <ele>1857.378174</ele>
        <time>2013-01-12T12:52:08Z</time>
      </trkpt>
      <trkpt lat="45.01396" lon="5.57742">
        <ele>1857.471802</ele>
        <time>2013-01-12T12:52:09Z</time>
      </trkpt>
      <trkpt lat="45.01381" lon="5.57733">
        <ele>1858.916992</ele>
        <time>2013-01-12T12:52:30Z</time>
      </trkpt>
      <trkpt lat="45.01373" lon="5.57728">
        <ele>1859.467529</ele>
        <time>2013-01-12T12:52:41Z</time>
      </trkpt>
      <trkpt lat="45.01365" lon="5.57722">
        <ele>1859.885498</ele>
        <time>2013-01-12T12:52:53Z</time>
      </trkpt>
      <trkpt lat="45.01358" lon="5.57715">
        <ele>1859.946655</ele>
        <time>2013-01-12T12:53:05Z</time>
      </trkpt>
      <trkpt lat="45.01351" lon="5.57708">
        <ele>1860.040039</ele>
        <time>2013-01-12T12:53:17Z</time>
      </trkpt>
      <trkpt lat="45.01351" lon="5.57707">
        <ele>1859.986084</ele>
        <time>2013-01-12T12:53:18Z</time>
      </trkpt>
      <trkpt lat="45.01337" lon="5.57693">
        <ele>1860.449951</ele>
        <time>2013-01-12T12:53:43Z</time>
      </trkpt>
      <trkpt lat="45.01331" lon="5.57686">
        <ele>1860.861328</ele>
        <time>2013-01-12T12:53:55Z</time>
      </trkpt>
      <trkpt lat="45.01323" lon="5.5768">
        <ele>1862.774536</ele>
        <time>2013-01-12T12:54:07Z</time>
      </trkpt>
      <trkpt lat="45.01316" lon="5.57674">
        <ele>1864.575928</ele>
        <time>2013-01-12T12:54:19Z</time>
      </trkpt>
      <trkpt lat="45.01315" lon="5.57674">
        <ele>1864.713989</ele>
        <time>2013-01-12T12:54:20Z</time>
      </trkpt>
      <trkpt lat="45.01302" lon="5.57661">
        <ele>1868.09729</ele>
        <time>2013-01-12T12:54:42Z</time>
      </trkpt>
      <trkpt lat="45.01296" lon="5.57652">
        <ele>1869.644409</ele>
        <time>2013-01-12T12:54:55Z</time>
      </trkpt>
      <trkpt lat="45.0129" lon="5.57643">
        <ele>1871.169434</ele>
        <time>2013-01-12T12:55:08Z</time>
      </trkpt>
      <trkpt lat="45.0129" lon="5.57631">
        <ele>1871.38562</ele>
        <time>2013-01-12T12:55:23Z</time>
      </trkpt>
      <trkpt lat="45.01291" lon="5.5763">
        <ele>1871.362305</ele>
        <time>2013-01-12T12:55:24Z</time>
      </trkpt>
      <trkpt lat="45.01279" lon="5.57617">
        <ele>1875.158569</ele>
        <time>2013-01-12T12:55:49Z</time>
      </trkpt>
      <trkpt lat="45.0127" lon="5.57617">
        <ele>1876.983887</ele>
        <time>2013-01-12T12:56:03Z</time>
      </trkpt>
      <trkpt lat="45.01261" lon="5.57619">
        <ele>1878.932007</ele>
        <time>2013-01-12T12:56:18Z</time>
      </trkpt>
      <trkpt lat="45.01254" lon="5.57611">
        <ele>1883.801147</ele>
        <time>2013-01-12T12:56:45Z</time>
      </trkpt>
      <trkpt lat="45.01254" lon="5.57611">
        <ele>1883.902588</ele>
        <time>2013-01-12T12:56:46Z</time>
      </trkpt>
      <trkpt lat="45.01253" lon="5.57598">
        <ele>1888.751587</ele>
        <time>2013-01-12T12:58:35Z</time>
      </trkpt>
      <trkpt lat="45.01236" lon="5.57606">
        <ele>1891.02832</ele>
        <time>2013-01-12T12:59:19Z</time>
      </trkpt>
      <trkpt lat="45.01228" lon="5.5761">
        <ele>1892.301758</ele>
        <time>2013-01-12T12:59:32Z</time>
      </trkpt>
      <trkpt lat="45.01223" lon="5.576">
        <ele>1897.341431</ele>
        <time>2013-01-12T12:59:56Z</time>
      </trkpt>
      <trkpt lat="45.01223" lon="5.57599">
        <ele>1897.743164</ele>
        <time>2013-01-12T12:59:57Z</time>
      </trkpt>
      <trkpt lat="45.01218" lon="5.57582">
        <ele>1905.074097</ele>
        <time>2013-01-12T13:00:43Z</time>
      </trkpt>
      <trkpt lat="45.01209" lon="5.57584">
        <ele>1907.331543</ele>
        <time>2013-01-12T13:01:06Z</time>
      </trkpt>
      <trkpt lat="45.01209" lon="5.57584">
        <ele>1907.507202</ele>
        <time>2013-01-12T13:01:07Z</time>
      </trkpt>
      <trkpt lat="45.01193" lon="5.57581">
        <ele>1913.390259</ele>
        <time>2013-01-12T13:02:04Z</time>
      </trkpt>
      <trkpt lat="45.01185" lon="5.57583">
        <ele>1915.855469</ele>
        <time>2013-01-12T13:02:16Z</time>
      </trkpt>
      <trkpt lat="45.01184" lon="5.57583">
        <ele>1915.999878</ele>
        <time>2013-01-12T13:02:17Z</time>
      </trkpt>
      <trkpt lat="45.01169" lon="5.57594">
        <ele>1919.509033</ele>
        <time>2013-01-12T13:02:44Z</time>
      </trkpt>
      <trkpt lat="45.01165" lon="5.57604">
        <ele>1919.710205</ele>
        <time>2013-01-12T13:03:02Z</time>
      </trkpt>
      <trkpt lat="45.01156" lon="5.57604">
        <ele>1923.115356</ele>
        <time>2013-01-12T13:03:17Z</time>
      </trkpt>
      <trkpt lat="45.01155" lon="5.57604">
        <ele>1923.374634</ele>
        <time>2013-01-12T13:03:18Z</time>
      </trkpt>
      <trkpt lat="45.01141" lon="5.57592">
        <ele>1930.342651</ele>
        <time>2013-01-12T13:03:52Z</time>
      </trkpt>
      <trkpt lat="45.01143" lon="5.5758">
        <ele>1931.042725</ele>
        <time>2013-01-12T13:04:07Z</time>
      </trkpt>
      <trkpt lat="45.01145" lon="5.57568">
        <ele>1931.748169</ele>
        <time>2013-01-12T13:04:23Z</time>
      </trkpt>
      <trkpt lat="45.01146" lon="5.57567">
        <ele>1931.760132</ele>
        <time>2013-01-12T13:04:24Z</time>
      </trkpt>
      <trkpt lat="45.01144" lon="5.57543">
        <ele>1935.551025</ele>
        <time>2013-01-12T13:04:55Z</time>
      </trkpt>
      <trkpt lat="45.01151" lon="5.57534">
        <ele>1935.643433</ele>
        <time>2013-01-12T13:05:12Z</time>
      </trkpt>
      <trkpt lat="45.01151" lon="5.57522">
        <ele>1938.097534</ele>
        <time>2013-01-12T13:05:29Z</time>
      </trkpt>
      <trkpt lat="45.01151" lon="5.57522">
        <ele>1938.326538</ele>
        <time>2013-01-12T13:05:30Z</time>
      </trkpt>
      <trkpt lat="45.01138" lon="5.57507">
        <ele>1943.47522</ele>
        <time>2013-01-12T13:06:20Z</time>
      </trkpt>
      <trkpt lat="45.0113" lon="5.57509">
        <ele>1944.868652</ele>
        <time>2013-01-12T13:07:02Z</time>
      </trkpt>
      <trkpt lat="45.01129" lon="5.57509">
        <ele>1945.014648</ele>
        <time>2013-01-12T13:07:03Z</time>
      </trkpt>
      <trkpt lat="45.01113" lon="5.57516">
        <ele>1947.759644</ele>
        <time>2013-01-12T13:07:30Z</time>
      </trkpt>
      <trkpt lat="45.01106" lon="5.57508">
        <ele>1950.390015</ele>
        <time>2013-01-12T13:07:46Z</time>
      </trkpt>
      <trkpt lat="45.01102" lon="5.57497">
        <ele>1952.549438</ele>
        <time>2013-01-12T13:07:59Z</time>
      </trkpt>
      <trkpt lat="45.01094" lon="5.57492">
        <ele>1954.776855</ele>
        <time>2013-01-12T13:08:19Z</time>
      </trkpt>
      <trkpt lat="45.01094" lon="5.57492">
        <ele>1954.881836</ele>
        <time>2013-01-12T13:08:20Z</time>
      </trkpt>
      <trkpt lat="45.01077" lon="5.57496">
        <ele>1957.934082</ele>
        <time>2013-01-12T13:08:46Z</time>
      </trkpt>
      <trkpt lat="45.01068" lon="5.57496">
        <ele>1959.796387</ele>
        <time>2013-01-12T13:09:08Z</time>
      </trkpt>
      <trkpt lat="45.0106" lon="5.57492">
        <ele>1961.775146</ele>
        <time>2013-01-12T13:09:22Z</time>
      </trkpt>
      <trkpt lat="45.0106" lon="5.57491">
        <ele>1961.904053</ele>
        <time>2013-01-12T13:09:23Z</time>
      </trkpt>
      <trkpt lat="45.01048" lon="5.57479">
        <ele>1965.002441</ele>
        <time>2013-01-12T13:09:53Z</time>
      </trkpt>
      <trkpt lat="45.01041" lon="5.57485">
        <ele>1966.301758</ele>
        <time>2013-01-12T13:10:05Z</time>
      </trkpt>
      <trkpt lat="45.01033" lon="5.57489">
        <ele>1967.728149</ele>
        <time>2013-01-12T13:10:16Z</time>
      </trkpt>
      <trkpt lat="45.01024" lon="5.57491">
        <ele>1969.470337</ele>
        <time>2013-01-12T13:10:29Z</time>
      </trkpt>
      <trkpt lat="45.01023" lon="5.57492">
        <ele>1969.583984</ele>
        <time>2013-01-12T13:10:30Z</time>
      </trkpt>
      <trkpt lat="45.01007" lon="5.57497">
        <ele>1972.530518</ele>
        <time>2013-01-12T13:10:53Z</time>
      </trkpt>
      <trkpt lat="45.00998" lon="5.57498">
        <ele>1973.999756</ele>
        <time>2013-01-12T13:11:05Z</time>
      </trkpt>
      <trkpt lat="45.0099" lon="5.575">
        <ele>1975.098999</ele>
        <time>2013-01-12T13:11:16Z</time>
      </trkpt>
      <trkpt lat="45.00982" lon="5.57501">
        <ele>1976.338379</ele>
        <time>2013-01-12T13:11:28Z</time>
      </trkpt>
      <trkpt lat="45.00974" lon="5.57505">
        <ele>1977.21521</ele>
        <time>2013-01-12T13:11:37Z</time>
      </trkpt>
      <trkpt lat="45.00973" lon="5.57505">
        <ele>1977.366943</ele>
        <time>2013-01-12T13:11:38Z</time>
      </trkpt>
      <trkpt lat="45.00957" lon="5.57505">
        <ele>1979.692505</ele>
        <time>2013-01-12T13:12:13Z</time>
      </trkpt>
      <trkpt lat="45.00948" lon="5.57506">
        <ele>1981.020386</ele>
        <time>2013-01-12T13:12:25Z</time>
      </trkpt>
      <trkpt lat="45.0094" lon="5.57506">
        <ele>1982.379272</ele>
        <time>2013-01-12T13:12:35Z</time>
      </trkpt>
      <trkpt lat="45.00931" lon="5.57506">
        <ele>1983.780396</ele>
        <time>2013-01-12T13:12:45Z</time>
      </trkpt>
      <trkpt lat="45.0093" lon="5.57505">
        <ele>1983.946533</ele>
        <time>2013-01-12T13:12:46Z</time>
      </trkpt>
      <trkpt lat="45.00914" lon="5.57506">
        <ele>1986.5</ele>
        <time>2013-01-12T13:13:02Z</time>
      </trkpt>
      <trkpt lat="45.00905" lon="5.57507">
        <ele>1987.950195</ele>
        <time>2013-01-12T13:13:11Z</time>
      </trkpt>
      <trkpt lat="45.00897" lon="5.57511">
        <ele>1989.090088</ele>
        <time>2013-01-12T13:13:21Z</time>
      </trkpt>
      <trkpt lat="45.00888" lon="5.57514">
        <ele>1990.299805</ele>
        <time>2013-01-12T13:13:32Z</time>
      </trkpt>
      <trkpt lat="45.0088" lon="5.57517">
        <ele>1991.491699</ele>
        <time>2013-01-12T13:13:43Z</time>
      </trkpt>
      <trkpt lat="45.00872" lon="5.57519">
        <ele>1992.675537</ele>
        <time>2013-01-12T13:13:53Z</time>
      </trkpt>
      <trkpt lat="45.00871" lon="5.57519">
        <ele>1992.852051</ele>
        <time>2013-01-12T13:13:54Z</time>
      </trkpt>
      <trkpt lat="45.00855" lon="5.57526">
        <ele>1995.157837</ele>
        <time>2013-01-12T13:14:17Z</time>
      </trkpt>
      <trkpt lat="45.00847" lon="5.57532">
        <ele>1995.938721</ele>
        <time>2013-01-12T13:14:29Z</time>
      </trkpt>
      <trkpt lat="45.00839" lon="5.57537">
        <ele>1997.802979</ele>
        <time>2013-01-12T13:14:43Z</time>
      </trkpt>
      <trkpt lat="45.00831" lon="5.57543">
        <ele>1999.747192</ele>
        <time>2013-01-12T13:15:04Z</time>
      </trkpt>
      <trkpt lat="45.00831" lon="5.57543">
        <ele>1999.895996</ele>
        <time>2013-01-12T13:15:05Z</time>
      </trkpt>
      <trkpt lat="45.00816" lon="5.57552">
        <ele>2003.178955</ele>
        <time>2013-01-12T13:16:32Z</time>
      </trkpt>
      <trkpt lat="45.00815" lon="5.57552">
        <ele>2003.355957</ele>
        <time>2013-01-12T13:16:33Z</time>
      </trkpt>
      <trkpt lat="45.00799" lon="5.57545">
        <ele>2005.702393</ele>
        <time>2013-01-12T13:16:51Z</time>
      </trkpt>
      <trkpt lat="45.00792" lon="5.57539">
        <ele>2006.755615</ele>
        <time>2013-01-12T13:17:00Z</time>
      </trkpt>
      <trkpt lat="45.00786" lon="5.57531">
        <ele>2007.468262</ele>
        <time>2013-01-12T13:17:10Z</time>
      </trkpt>
      <trkpt lat="45.00778" lon="5.57525">
        <ele>2009.021973</ele>
        <time>2013-01-12T13:17:20Z</time>
      </trkpt>
      <trkpt lat="45.0077" lon="5.57522">
        <ele>2010.067261</ele>
        <time>2013-01-12T13:17:30Z</time>
      </trkpt>
      <trkpt lat="45.00761" lon="5.57522">
        <ele>2010.7771</ele>
        <time>2013-01-12T13:17:39Z</time>
      </trkpt>
      <trkpt lat="45.00761" lon="5.57522">
        <ele>2010.842407</ele>
        <time>2013-01-12T13:17:40Z</time>
      </trkpt>
      <trkpt lat="45.00744" lon="5.5752">
        <ele>2012.287598</ele>
        <time>2013-01-12T13:18:10Z</time>
      </trkpt>
      <trkpt lat="45.00735" lon="5.57518">
        <ele>2013.052612</ele>
        <time>2013-01-12T13:18:21Z</time>
      </trkpt>
      <trkpt lat="45.00727" lon="5.57517">
        <ele>2013.701782</ele>
        <time>2013-01-12T13:18:31Z</time>
      </trkpt>
      <trkpt lat="45.00718" lon="5.57516">
        <ele>2014.212036</ele>
        <time>2013-01-12T13:18:41Z</time>
      </trkpt>
      <trkpt lat="45.00717" lon="5.57516">
        <ele>2014.266846</ele>
        <time>2013-01-12T13:18:42Z</time>
      </trkpt>
      <trkpt lat="45.00701" lon="5.57516">
        <ele>2015.253418</ele>
        <time>2013-01-12T13:19:02Z</time>
      </trkpt>
      <trkpt lat="45.00692" lon="5.57519">
        <ele>2015.69812</ele>
        <time>2013-01-12T13:19:12Z</time>
      </trkpt>
      <trkpt lat="45.00685" lon="5.57523">
        <ele>2016.117554</ele>
        <time>2013-01-12T13:19:21Z</time>
      </trkpt>
      <trkpt lat="45.00677" lon="5.57526">
        <ele>2016.787476</ele>
        <time>2013-01-12T13:19:29Z</time>
      </trkpt>
      <trkpt lat="45.00669" lon="5.5753">
        <ele>2017.550049</ele>
        <time>2013-01-12T13:19:37Z</time>
      </trkpt>
      <trkpt lat="45.00662" lon="5.57535">
        <ele>2018.349976</ele>
        <time>2013-01-12T13:19:45Z</time>
      </trkpt>
      <trkpt lat="45.00661" lon="5.57535">
        <ele>2018.432495</ele>
        <time>2013-01-12T13:19:46Z</time>
      </trkpt>
      <trkpt lat="45.00647" lon="5.57547">
        <ele>2020.23999</ele>
        <time>2013-01-12T13:20:02Z</time>
      </trkpt>
      <trkpt lat="45.00641" lon="5.57556">
        <ele>2021.339966</ele>
        <time>2013-01-12T13:20:13Z</time>
      </trkpt>
      <trkpt lat="45.00635" lon="5.57565">
        <ele>2022.494019</ele>
        <time>2013-01-12T13:20:33Z</time>
      </trkpt>
      <trkpt lat="45.00633" lon="5.57577">
        <ele>2023.587646</ele>
        <time>2013-01-12T13:20:44Z</time>
      </trkpt>
      <trkpt lat="45.00634" lon="5.57589">
        <ele>2024.928345</ele>
        <time>2013-01-12T13:20:54Z</time>
      </trkpt>
      <trkpt lat="45.00633" lon="5.5759">
        <ele>2025.081421</ele>
        <time>2013-01-12T13:20:55Z</time>
      </trkpt>
      <trkpt lat="45.00621" lon="5.57606">
        <ele>2027.615845</ele>
        <time>2013-01-12T13:21:12Z</time>
      </trkpt>
      <trkpt lat="45.00615" lon="5.57615">
        <ele>2028.962524</ele>
        <time>2013-01-12T13:21:23Z</time>
      </trkpt>
      <trkpt lat="45.0061" lon="5.57625">
        <ele>2030.354614</ele>
        <time>2013-01-12T13:21:35Z</time>
      </trkpt>
      <trkpt lat="45.00604" lon="5.57633">
        <ele>2031.495728</ele>
        <time>2013-01-12T13:21:47Z</time>
      </trkpt>
      <trkpt lat="45.00596" lon="5.5764">
        <ele>2032.374634</ele>
        <time>2013-01-12T13:22:01Z</time>
      </trkpt>
      <trkpt lat="45.00596" lon="5.5764">
        <ele>2032.445801</ele>
        <time>2013-01-12T13:22:02Z</time>
      </trkpt>
      <trkpt lat="45.00588" lon="5.5766">
        <ele>2037.207275</ele>
        <time>2013-01-12T13:22:27Z</time>
      </trkpt>
      <trkpt lat="45.00584" lon="5.57671">
        <ele>2039.967896</ele>
        <time>2013-01-12T13:22:41Z</time>
      </trkpt>
      <trkpt lat="45.00577" lon="5.57678">
        <ele>2041.71521</ele>
        <time>2013-01-12T13:22:54Z</time>
      </trkpt>
      <trkpt lat="45.0057" lon="5.57686">
        <ele>2043.44812</ele>
        <time>2013-01-12T13:23:07Z</time>
      </trkpt>
      <trkpt lat="45.0057" lon="5.57686">
        <ele>2043.5448</ele>
        <time>2013-01-12T13:23:08Z</time>
      </trkpt>
      <trkpt lat="45.00571" lon="5.57704">
        <ele>2047.647827</ele>
        <time>2013-01-12T13:23:33Z</time>
      </trkpt>
      <trkpt lat="45.00578" lon="5.57712">
        <ele>2050.093262</ele>
        <time>2013-01-12T13:23:45Z</time>
      </trkpt>
      <trkpt lat="45.00576" lon="5.57724">
        <ele>2053.727295</ele>
        <time>2013-01-12T13:24:06Z</time>
      </trkpt>
      <trkpt lat="45.00568" lon="5.5773">
        <ele>2055.192627</ele>
        <time>2013-01-12T13:24:19Z</time>
      </trkpt>
      <trkpt lat="45.00568" lon="5.57731">
        <ele>2055.32373</ele>
        <time>2013-01-12T13:24:20Z</time>
      </trkpt>
      <trkpt lat="45.00556" lon="5.57748">
        <ele>2059.378418</ele>
        <time>2013-01-12T13:24:47Z</time>
      </trkpt>
      <trkpt lat="45.00549" lon="5.57756">
        <ele>2061.01123</ele>
        <time>2013-01-12T13:24:59Z</time>
      </trkpt>
      <trkpt lat="45.00545" lon="5.57766">
        <ele>2063.436768</ele>
        <time>2013-01-12T13:25:10Z</time>
      </trkpt>
      <trkpt lat="45.0054" lon="5.57776">
        <ele>2066.221191</ele>
        <time>2013-01-12T13:25:22Z</time>
      </trkpt>
      <trkpt lat="45.0054" lon="5.57777">
        <ele>2066.536133</ele>
        <time>2013-01-12T13:25:23Z</time>
      </trkpt>
      <trkpt lat="45.00557" lon="5.57782">
        <ele>2070.600342</ele>
        <time>2013-01-12T13:26:06Z</time>
      </trkpt>
      <trkpt lat="45.00558" lon="5.57794">
        <ele>2075.414063</ele>
        <time>2013-01-12T13:26:46Z</time>
      </trkpt>
      <trkpt lat="45.00558" lon="5.57795">
        <ele>2075.563965</ele>
        <time>2013-01-12T13:26:47Z</time>
      </trkpt>
      <trkpt lat="45.00546" lon="5.57811">
        <ele>2080.057861</ele>
        <time>2013-01-12T13:27:11Z</time>
      </trkpt>
      <trkpt lat="45.0054" lon="5.57821">
        <ele>2082.702393</ele>
        <time>2013-01-12T13:27:26Z</time>
      </trkpt>
      <trkpt lat="45.00548" lon="5.57828">
        <ele>2086.437256</ele>
        <time>2013-01-12T13:28:13Z</time>
      </trkpt>
      <trkpt lat="45.00548" lon="5.57828">
        <ele>2086.48877</ele>
        <time>2013-01-12T13:28:14Z</time>
      </trkpt>
      <trkpt lat="45.00564" lon="5.57827">
        <ele>2088.989502</ele>
        <time>2013-01-12T13:28:42Z</time>
      </trkpt>
      <trkpt lat="45.00573" lon="5.57828">
        <ele>2090.979248</ele>
        <time>2013-01-12T13:28:56Z</time>
      </trkpt>
      <trkpt lat="45.00571" lon="5.5784">
        <ele>2096.026855</ele>
        <time>2013-01-12T13:29:27Z</time>
      </trkpt>
      <trkpt lat="45.00571" lon="5.57841">
        <ele>2096.337158</ele>
        <time>2013-01-12T13:29:28Z</time>
      </trkpt>
      <trkpt lat="45.00558" lon="5.57858">
        <ele>2101.706787</ele>
        <time>2013-01-12T13:29:56Z</time>
      </trkpt>
      <trkpt lat="45.00567" lon="5.57858">
        <ele>2103.676025</ele>
        <time>2013-01-12T13:30:19Z</time>
      </trkpt>
      <trkpt lat="45.00575" lon="5.57859">
        <ele>2105.611328</ele>
        <time>2013-01-12T13:30:33Z</time>
      </trkpt>
      <trkpt lat="45.00576" lon="5.57859">
        <ele>2105.746338</ele>
        <time>2013-01-12T13:30:34Z</time>
      </trkpt>
      <trkpt lat="45.00572" lon="5.57879">
        <ele>2114.499756</ele>
        <time>2013-01-12T13:31:37Z</time>
      </trkpt>
      <trkpt lat="45.00572" lon="5.5788">
        <ele>2114.626221</ele>
        <time>2013-01-12T13:31:38Z</time>
      </trkpt>
      <trkpt lat="45.00585" lon="5.5789">
        <ele>2122.345215</ele>
        <time>2013-01-12T13:32:28Z</time>
      </trkpt>
      <trkpt lat="45.00583" lon="5.57903">
        <ele>2127.594482</ele>
        <time>2013-01-12T13:33:11Z</time>
      </trkpt>
      <trkpt lat="45.00583" lon="5.57903">
        <ele>2127.725342</ele>
        <time>2013-01-12T13:33:12Z</time>
      </trkpt>
      <trkpt lat="45.0057" lon="5.57919">
        <ele>2130.920654</ele>
        <time>2013-01-12T13:33:42Z</time>
      </trkpt>
      <trkpt lat="45.00577" lon="5.57926">
        <ele>2135.410889</ele>
        <time>2013-01-12T13:34:32Z</time>
      </trkpt>
      <trkpt lat="45.00578" lon="5.57926">
        <ele>2135.467285</ele>
        <time>2013-01-12T13:34:33Z</time>
      </trkpt>
      <trkpt lat="45.0057" lon="5.57946">
        <ele>2141.573242</ele>
        <time>2013-01-12T13:35:38Z</time>
      </trkpt>
      <trkpt lat="45.00569" lon="5.57947">
        <ele>2141.720215</ele>
        <time>2013-01-12T13:35:39Z</time>
      </trkpt>
      <trkpt lat="45.00572" lon="5.57962">
        <ele>2146.93042</ele>
        <time>2013-01-12T13:36:17Z</time>
      </trkpt>
      <trkpt lat="45.00581" lon="5.57962">
        <ele>2149.63623</ele>
        <time>2013-01-12T13:36:30Z</time>
      </trkpt>
      <trkpt lat="45.0059" lon="5.57965">
        <ele>2148.095703</ele>
        <time>2013-01-12T13:36:44Z</time>
      </trkpt>
      <trkpt lat="45.0059" lon="5.57965">
        <ele>2147.855225</ele>
        <time>2013-01-12T13:36:45Z</time>
      </trkpt>
      <trkpt lat="45.0059" lon="5.57984">
        <ele>2139.926514</ele>
        <time>2013-01-12T13:37:14Z</time>
      </trkpt>
      <trkpt lat="45.00593" lon="5.57995">
        <ele>2133.710693</ele>
        <time>2013-01-12T13:42:29Z</time>
      </trkpt>
      <trkpt lat="45.00594" lon="5.57995">
        <ele>2133.557373</ele>
        <time>2013-01-12T13:42:30Z</time>
      </trkpt>
      <trkpt lat="45.00587" lon="5.57986">
        <ele>2139.853027</ele>
        <time>2013-01-12T13:46:22Z</time>
      </trkpt>
      <trkpt lat="45.00587" lon="5.57973">
        <ele>2145.299561</ele>
        <time>2013-01-12T13:52:36Z</time>
      </trkpt>
      <trkpt lat="45.00578" lon="5.57953">
        <ele>2146.283203</ele>
        <time>2013-01-12T13:52:54Z</time>
      </trkpt>
      <trkpt lat="45.00577" lon="5.5794">
        <ele>2141.022461</ele>
        <time>2013-01-12T13:53:10Z</time>
      </trkpt>
      <trkpt lat="45.00571" lon="5.57933">
        <ele>2136.760498</ele>
        <time>2013-01-12T13:53:27Z</time>
      </trkpt>
      <trkpt lat="45.00575" lon="5.57923">
        <ele>2133.738281</ele>
        <time>2013-01-12T13:53:34Z</time>
      </trkpt>
      <trkpt lat="45.0058" lon="5.57914">
        <ele>2131.296875</ele>
        <time>2013-01-12T13:53:42Z</time>
      </trkpt>
      <trkpt lat="45.00581" lon="5.57912">
        <ele>2130.844971</ele>
        <time>2013-01-12T13:53:43Z</time>
      </trkpt>
      <trkpt lat="45.00581" lon="5.57891">
        <ele>2121.919922</ele>
        <time>2013-01-12T13:53:59Z</time>
      </trkpt>
      <trkpt lat="45.00577" lon="5.57882">
        <ele>2116.548096</ele>
        <time>2013-01-12T13:54:10Z</time>
      </trkpt>
      <trkpt lat="45.00579" lon="5.5787">
        <ele>2111.291992</ele>
        <time>2013-01-12T13:54:16Z</time>
      </trkpt>
      <trkpt lat="45.00585" lon="5.5786">
        <ele>2107.931641</ele>
        <time>2013-01-12T13:54:23Z</time>
      </trkpt>
      <trkpt lat="45.00577" lon="5.57856">
        <ele>2104.352051</ele>
        <time>2013-01-12T13:54:30Z</time>
      </trkpt>
      <trkpt lat="45.00578" lon="5.57843">
        <ele>2098.653809</ele>
        <time>2013-01-12T13:54:39Z</time>
      </trkpt>
      <trkpt lat="45.00571" lon="5.57836">
        <ele>2094.009521</ele>
        <time>2013-01-12T13:54:48Z</time>
      </trkpt>
      <trkpt lat="45.00569" lon="5.57836">
        <ele>2093.614014</ele>
        <time>2013-01-12T13:54:49Z</time>
      </trkpt>
      <trkpt lat="45.00564" lon="5.57828">
        <ele>2089.364746</ele>
        <time>2013-01-12T13:55:21Z</time>
      </trkpt>
      <trkpt lat="45.00569" lon="5.5782">
        <ele>2086.963623</ele>
        <time>2013-01-12T13:55:26Z</time>
      </trkpt>
      <trkpt lat="45.00567" lon="5.57807">
        <ele>2081.738281</ele>
        <time>2013-01-12T13:55:35Z</time>
      </trkpt>
      <trkpt lat="45.00569" lon="5.57796">
        <ele>2077.638428</ele>
        <time>2013-01-12T13:55:41Z</time>
      </trkpt>
      <trkpt lat="45.00563" lon="5.57786">
        <ele>2073.037354</ele>
        <time>2013-01-12T13:55:49Z</time>
      </trkpt>
      <trkpt lat="45.00556" lon="5.57785">
        <ele>2071.483154</ele>
        <time>2013-01-12T13:55:53Z</time>
      </trkpt>
      <trkpt lat="45.00554" lon="5.57784">
        <ele>2071.070313</ele>
        <time>2013-01-12T13:55:54Z</time>
      </trkpt>
      <trkpt lat="45.0055" lon="5.57774">
        <ele>2066.721191</ele>
        <time>2013-01-12T13:56:02Z</time>
      </trkpt>
      <trkpt lat="45.00555" lon="5.57768">
        <ele>2065.080811</ele>
        <time>2013-01-12T13:56:05Z</time>
      </trkpt>
      <trkpt lat="45.00562" lon="5.5776">
        <ele>2063.63916</ele>
        <time>2013-01-12T13:56:09Z</time>
      </trkpt>
      <trkpt lat="45.00568" lon="5.57753">
        <ele>2062.172607</ele>
        <time>2013-01-12T13:56:14Z</time>
      </trkpt>
      <trkpt lat="45.00567" lon="5.57741">
        <ele>2058.294922</ele>
        <time>2013-01-12T13:56:23Z</time>
      </trkpt>
      <trkpt lat="45.00558" lon="5.5774">
        <ele>2057.297607</ele>
        <time>2013-01-12T13:56:27Z</time>
      </trkpt>
      <trkpt lat="45.00551" lon="5.57739">
        <ele>2056.697754</ele>
        <time>2013-01-12T13:56:30Z</time>
      </trkpt>
      <trkpt lat="45.00551" lon="5.57727">
        <ele>2053.279053</ele>
        <time>2013-01-12T13:56:38Z</time>
      </trkpt>
      <trkpt lat="45.00558" lon="5.57723">
        <ele>2052.626465</ele>
        <time>2013-01-12T13:56:42Z</time>
      </trkpt>
      <trkpt lat="45.00565" lon="5.57719">
        <ele>2051.620361</ele>
        <time>2013-01-12T13:56:56Z</time>
      </trkpt>
      <trkpt lat="45.00567" lon="5.57718">
        <ele>2051.328369</ele>
        <time>2013-01-12T13:56:57Z</time>
      </trkpt>
      <trkpt lat="45.00579" lon="5.57711">
        <ele>2049.777344</ele>
        <time>2013-01-12T13:57:01Z</time>
      </trkpt>
      <trkpt lat="45.00586" lon="5.57707">
        <ele>2048.795654</ele>
        <time>2013-01-12T13:57:03Z</time>
      </trkpt>
      <trkpt lat="45.00593" lon="5.57703">
        <ele>2047.876953</ele>
        <time>2013-01-12T13:57:05Z</time>
      </trkpt>
      <trkpt lat="45.006" lon="5.57696">
        <ele>2046.49231</ele>
        <time>2013-01-12T13:57:07Z</time>
      </trkpt>
      <trkpt lat="45.00604" lon="5.57693">
        <ele>2045.84436</ele>
        <time>2013-01-12T13:57:08Z</time>
      </trkpt>
      <trkpt lat="45.00608" lon="5.57691">
        <ele>2045.249634</ele>
        <time>2013-01-12T13:57:09Z</time>
      </trkpt>
      <trkpt lat="45.00613" lon="5.57688">
        <ele>2044.572632</ele>
        <time>2013-01-12T13:57:10Z</time>
      </trkpt>
      <trkpt lat="45.0062" lon="5.57683">
        <ele>2043.501221</ele>
        <time>2013-01-12T13:57:12Z</time>
      </trkpt>
      <trkpt lat="45.00627" lon="5.57679">
        <ele>2042.433472</ele>
        <time>2013-01-12T13:57:14Z</time>
      </trkpt>
      <trkpt lat="45.00633" lon="5.57676">
        <ele>2041.739868</ele>
        <time>2013-01-12T13:57:16Z</time>
      </trkpt>
      <trkpt lat="45.00641" lon="5.57674">
        <ele>2040.932617</ele>
        <time>2013-01-12T13:57:20Z</time>
      </trkpt>
      <trkpt lat="45.00642" lon="5.57662">
        <ele>2037.399414</ele>
        <time>2013-01-12T13:57:24Z</time>
      </trkpt>
      <trkpt lat="45.0065" lon="5.57657">
        <ele>2035.930298</ele>
        <time>2013-01-12T13:57:27Z</time>
      </trkpt>
      <trkpt lat="45.00652" lon="5.57645">
        <ele>2032.902588</ele>
        <time>2013-01-12T13:57:30Z</time>
      </trkpt>
      <trkpt lat="45.00657" lon="5.57638">
        <ele>2031.822144</ele>
        <time>2013-01-12T13:57:33Z</time>
      </trkpt>
      <trkpt lat="45.00664" lon="5.57634">
        <ele>2031.11853</ele>
        <time>2013-01-12T13:57:36Z</time>
      </trkpt>
      <trkpt lat="45.0067" lon="5.57627">
        <ele>2029.967651</ele>
        <time>2013-01-12T13:57:38Z</time>
      </trkpt>
      <trkpt lat="45.00675" lon="5.5762">
        <ele>2028.524536</ele>
        <time>2013-01-12T13:57:40Z</time>
      </trkpt>
      <trkpt lat="45.00676" lon="5.5761">
        <ele>2026.776367</ele>
        <time>2013-01-12T13:57:42Z</time>
      </trkpt>
      <trkpt lat="45.00676" lon="5.57598">
        <ele>2024.64502</ele>
        <time>2013-01-12T13:57:45Z</time>
      </trkpt>
      <trkpt lat="45.00675" lon="5.57586">
        <ele>2022.55835</ele>
        <time>2013-01-12T13:57:48Z</time>
      </trkpt>
      <trkpt lat="45.00672" lon="5.57578">
        <ele>2021.862549</ele>
        <time>2013-01-12T13:57:50Z</time>
      </trkpt>
      <trkpt lat="45.00671" lon="5.57572">
        <ele>2021.375</ele>
        <time>2013-01-12T13:57:51Z</time>
      </trkpt>
      <trkpt lat="45.00671" lon="5.57565">
        <ele>2020.704956</ele>
        <time>2013-01-12T13:57:52Z</time>
      </trkpt>
      <trkpt lat="45.00672" lon="5.57557">
        <ele>2019.952515</ele>
        <time>2013-01-12T13:57:53Z</time>
      </trkpt>
      <trkpt lat="45.00676" lon="5.57547">
        <ele>2018.780029</ele>
        <time>2013-01-12T13:57:55Z</time>
      </trkpt>
      <trkpt lat="45.00682" lon="5.57541">
        <ele>2017.922485</ele>
        <time>2013-01-12T13:57:57Z</time>
      </trkpt>
      <trkpt lat="45.00687" lon="5.57532">
        <ele>2016.779541</ele>
        <time>2013-01-12T13:58:00Z</time>
      </trkpt>
      <trkpt lat="45.00689" lon="5.57529">
        <ele>2016.361328</ele>
        <time>2013-01-12T13:58:01Z</time>
      </trkpt>
      <trkpt lat="45.00702" lon="5.57519">
        <ele>2015.068237</ele>
        <time>2013-01-12T13:58:06Z</time>
      </trkpt>
      <trkpt lat="45.0071" lon="5.57515">
        <ele>2014.775513</ele>
        <time>2013-01-12T13:58:08Z</time>
      </trkpt>
      <trkpt lat="45.00714" lon="5.57511">
        <ele>2014.644531</ele>
        <time>2013-01-12T13:58:09Z</time>
      </trkpt>
      <trkpt lat="45.00721" lon="5.57504">
        <ele>2014.520874</ele>
        <time>2013-01-12T13:58:11Z</time>
      </trkpt>
      <trkpt lat="45.00728" lon="5.57498">
        <ele>2014.496826</ele>
        <time>2013-01-12T13:58:16Z</time>
      </trkpt>
      <trkpt lat="45.00734" lon="5.5749">
        <ele>2014.596924</ele>
        <time>2013-01-12T13:58:23Z</time>
      </trkpt>
      <trkpt lat="45.0074" lon="5.57482">
        <ele>2014.751099</ele>
        <time>2013-01-12T13:58:32Z</time>
      </trkpt>
      <trkpt lat="45.00747" lon="5.57476">
        <ele>2014.854248</ele>
        <time>2013-01-12T13:58:43Z</time>
      </trkpt>
      <trkpt lat="45.00755" lon="5.57472">
        <ele>2014.932373</ele>
        <time>2013-01-12T13:58:54Z</time>
      </trkpt>
      <trkpt lat="45.00762" lon="5.57465">
        <ele>2015.263428</ele>
        <time>2013-01-12T13:59:07Z</time>
      </trkpt>
      <trkpt lat="45.00763" lon="5.57464">
        <ele>2015.308838</ele>
        <time>2013-01-12T13:59:08Z</time>
      </trkpt>
      <trkpt lat="45.00775" lon="5.57448">
        <ele>2016.367554</ele>
        <time>2013-01-12T13:59:39Z</time>
      </trkpt>
      <trkpt lat="45.00781" lon="5.5744">
        <ele>2016.767334</ele>
        <time>2013-01-12T13:59:48Z</time>
      </trkpt>
      <trkpt lat="45.00787" lon="5.57431">
        <ele>2017.231445</ele>
        <time>2013-01-12T14:00:00Z</time>
      </trkpt>
      <trkpt lat="45.00793" lon="5.57423">
        <ele>2017.646362</ele>
        <time>2013-01-12T14:00:13Z</time>
      </trkpt>
      <trkpt lat="45.00794" lon="5.57422">
        <ele>2017.715332</ele>
        <time>2013-01-12T14:00:14Z</time>
      </trkpt>
      <trkpt lat="45.00804" lon="5.57404">
        <ele>2019.374756</ele>
        <time>2013-01-12T14:00:40Z</time>
      </trkpt>
      <trkpt lat="45.00806" lon="5.57392">
        <ele>2019.23584</ele>
        <time>2013-01-12T14:00:46Z</time>
      </trkpt>
      <trkpt lat="45.00809" lon="5.57381">
        <ele>2018.928589</ele>
        <time>2013-01-12T14:00:59Z</time>
      </trkpt>
      <trkpt lat="45.00812" lon="5.57369">
        <ele>2018.564819</ele>
        <time>2013-01-12T14:01:15Z</time>
      </trkpt>
      <trkpt lat="45.00812" lon="5.57369">
        <ele>2018.550903</ele>
        <time>2013-01-12T14:01:16Z</time>
      </trkpt>
      <trkpt lat="45.00823" lon="5.57352">
        <ele>2017.593506</ele>
        <time>2013-01-12T14:01:37Z</time>
      </trkpt>
      <trkpt lat="45.00829" lon="5.57347">
        <ele>2016.898315</ele>
        <time>2013-01-12T14:01:40Z</time>
      </trkpt>
      <trkpt lat="45.00833" lon="5.57341">
        <ele>2016.348389</ele>
        <time>2013-01-12T14:01:42Z</time>
      </trkpt>
      <trkpt lat="45.00838" lon="5.57332">
        <ele>2014.595215</ele>
        <time>2013-01-12T14:01:44Z</time>
      </trkpt>
      <trkpt lat="45.0084" lon="5.57326">
        <ele>2013.544434</ele>
        <time>2013-01-12T14:01:45Z</time>
      </trkpt>
      <trkpt lat="45.00845" lon="5.57316">
        <ele>2011.559937</ele>
        <time>2013-01-12T14:01:47Z</time>
      </trkpt>
      <trkpt lat="45.00851" lon="5.57307">
        <ele>2009.740479</ele>
        <time>2013-01-12T14:01:50Z</time>
      </trkpt>
      <trkpt lat="45.00856" lon="5.57297">
        <ele>2007.908325</ele>
        <time>2013-01-12T14:01:54Z</time>
      </trkpt>
      <trkpt lat="45.00859" lon="5.57286">
        <ele>2005.938599</ele>
        <time>2013-01-12T14:01:57Z</time>
      </trkpt>
      <trkpt lat="45.00864" lon="5.57275">
        <ele>2002.865479</ele>
        <time>2013-01-12T14:02:04Z</time>
      </trkpt>
      <trkpt lat="45.0087" lon="5.57267">
        <ele>1998.84436</ele>
        <time>2013-01-12T14:02:11Z</time>
      </trkpt>
      <trkpt lat="45.00878" lon="5.57265">
        <ele>1997.147217</ele>
        <time>2013-01-12T14:03:13Z</time>
      </trkpt>
      <trkpt lat="45.0088" lon="5.57267">
        <ele>1997.734863</ele>
        <time>2013-01-12T14:03:14Z</time>
      </trkpt>
      <trkpt lat="45.00894" lon="5.57272">
        <ele>1996.760742</ele>
        <time>2013-01-12T14:03:19Z</time>
      </trkpt>
      <trkpt lat="45.00902" lon="5.57271">
        <ele>1994.744263</ele>
        <time>2013-01-12T14:03:25Z</time>
      </trkpt>
      <trkpt lat="45.00911" lon="5.57272">
        <ele>1993.249268</ele>
        <time>2013-01-12T14:03:32Z</time>
      </trkpt>
      <trkpt lat="45.00919" lon="5.57275">
        <ele>1992.505005</ele>
        <time>2013-01-12T14:03:39Z</time>
      </trkpt>
      <trkpt lat="45.00925" lon="5.5728">
        <ele>1993.816406</ele>
        <time>2013-01-12T14:03:42Z</time>
      </trkpt>
      <trkpt lat="45.00932" lon="5.57284">
        <ele>1994.701538</ele>
        <time>2013-01-12T14:03:44Z</time>
      </trkpt>
      <trkpt lat="45.0094" lon="5.57288">
        <ele>1995.28479</ele>
        <time>2013-01-12T14:03:46Z</time>
      </trkpt>
      <trkpt lat="45.00948" lon="5.57291">
        <ele>1995.706665</ele>
        <time>2013-01-12T14:03:48Z</time>
      </trkpt>
      <trkpt lat="45.00956" lon="5.57292">
        <ele>1995.953125</ele>
        <time>2013-01-12T14:04:15Z</time>
      </trkpt>
      <trkpt lat="45.00957" lon="5.57292">
        <ele>1995.96106</ele>
        <time>2013-01-12T14:04:16Z</time>
      </trkpt>
      <trkpt lat="45.00972" lon="5.57298">
        <ele>1996.164673</ele>
        <time>2013-01-12T14:04:37Z</time>
      </trkpt>
      <trkpt lat="45.0098" lon="5.57301">
        <ele>1996.000732</ele>
        <time>2013-01-12T14:04:41Z</time>
      </trkpt>
      <trkpt lat="45.00988" lon="5.57301">
        <ele>1995.968872</ele>
        <time>2013-01-12T14:04:45Z</time>
      </trkpt>
      <trkpt lat="45.00997" lon="5.57301">
        <ele>1995.860962</ele>
        <time>2013-01-12T14:04:55Z</time>
      </trkpt>
      <trkpt lat="45.01005" lon="5.57306">
        <ele>1995.137207</ele>
        <time>2013-01-12T14:05:06Z</time>
      </trkpt>
      <trkpt lat="45.01009" lon="5.57315">
        <ele>1993.512939</ele>
        <time>2013-01-12T14:05:10Z</time>
      </trkpt>
      <trkpt lat="45.01013" lon="5.57326">
        <ele>1991.284058</ele>
        <time>2013-01-12T14:05:20Z</time>
      </trkpt>
      <trkpt lat="45.01013" lon="5.57329">
        <ele>1990.752808</ele>
        <time>2013-01-12T14:05:21Z</time>
      </trkpt>
      <trkpt lat="45.01011" lon="5.57344">
        <ele>1988.306274</ele>
        <time>2013-01-12T14:05:24Z</time>
      </trkpt>
      <trkpt lat="45.01011" lon="5.5735">
        <ele>1987.334961</ele>
        <time>2013-01-12T14:05:25Z</time>
      </trkpt>
      <trkpt lat="45.0101" lon="5.57363">
        <ele>1985.733887</ele>
        <time>2013-01-12T14:05:27Z</time>
      </trkpt>
      <trkpt lat="45.01009" lon="5.57374">
        <ele>1984.404907</ele>
        <time>2013-01-12T14:05:29Z</time>
      </trkpt>
      <trkpt lat="45.01008" lon="5.5738">
        <ele>1983.825562</ele>
        <time>2013-01-12T14:05:30Z</time>
      </trkpt>
      <trkpt lat="45.01007" lon="5.57387">
        <ele>1983.121826</ele>
        <time>2013-01-12T14:05:31Z</time>
      </trkpt>
      <trkpt lat="45.01006" lon="5.57395">
        <ele>1982.304443</ele>
        <time>2013-01-12T14:05:32Z</time>
      </trkpt>
      <trkpt lat="45.01006" lon="5.57403">
        <ele>1981.306641</ele>
        <time>2013-01-12T14:05:33Z</time>
      </trkpt>
      <trkpt lat="45.01006" lon="5.57411">
        <ele>1980.154175</ele>
        <time>2013-01-12T14:05:34Z</time>
      </trkpt>
      <trkpt lat="45.01006" lon="5.57419">
        <ele>1979.354858</ele>
        <time>2013-01-12T14:05:35Z</time>
      </trkpt>
      <trkpt lat="45.01004" lon="5.57429">
        <ele>1978.976807</ele>
        <time>2013-01-12T14:05:37Z</time>
      </trkpt>
      <trkpt lat="45.01002" lon="5.5744">
        <ele>1978.434448</ele>
        <time>2013-01-12T14:05:41Z</time>
      </trkpt>
      <trkpt lat="45.00999" lon="5.57451">
        <ele>1977.944946</ele>
        <time>2013-01-12T14:05:50Z</time>
      </trkpt>
      <trkpt lat="45.00997" lon="5.57462">
        <ele>1977.478638</ele>
        <time>2013-01-12T14:05:59Z</time>
      </trkpt>
      <trkpt lat="45.00995" lon="5.57472">
        <ele>1976.855347</ele>
        <time>2013-01-12T14:06:03Z</time>
      </trkpt>
      <trkpt lat="45.01004" lon="5.57472">
        <ele>1975.244629</ele>
        <time>2013-01-12T14:06:23Z</time>
      </trkpt>
      <trkpt lat="45.01004" lon="5.57472">
        <ele>1975.178711</ele>
        <time>2013-01-12T14:06:24Z</time>
      </trkpt>
      <trkpt lat="45.01019" lon="5.57467">
        <ele>1972.182861</ele>
        <time>2013-01-12T14:06:33Z</time>
      </trkpt>
      <trkpt lat="45.01025" lon="5.57473">
        <ele>1970.418457</ele>
        <time>2013-01-12T14:06:36Z</time>
      </trkpt>
      <trkpt lat="45.0103" lon="5.57482">
        <ele>1968.814697</ele>
        <time>2013-01-12T14:06:39Z</time>
      </trkpt>
      <trkpt lat="45.01031" lon="5.57492">
        <ele>1967.99939</ele>
        <time>2013-01-12T14:06:41Z</time>
      </trkpt>
      <trkpt lat="45.01034" lon="5.57503">
        <ele>1966.557495</ele>
        <time>2013-01-12T14:06:45Z</time>
      </trkpt>
      <trkpt lat="45.01042" lon="5.57502">
        <ele>1964.977051</ele>
        <time>2013-01-12T14:06:48Z</time>
      </trkpt>
      <trkpt lat="45.01049" lon="5.57496">
        <ele>1963.992188</ele>
        <time>2013-01-12T14:06:51Z</time>
      </trkpt>
      <trkpt lat="45.01054" lon="5.57504">
        <ele>1962.424561</ele>
        <time>2013-01-12T14:06:55Z</time>
      </trkpt>
      <trkpt lat="45.01062" lon="5.57507">
        <ele>1960.404785</ele>
        <time>2013-01-12T14:07:01Z</time>
      </trkpt>
      <trkpt lat="45.01068" lon="5.57501">
        <ele>1959.524048</ele>
        <time>2013-01-12T14:07:04Z</time>
      </trkpt>
      <trkpt lat="45.01071" lon="5.5751">
        <ele>1958.046631</ele>
        <time>2013-01-12T14:07:08Z</time>
      </trkpt>
      <trkpt lat="45.01078" lon="5.57512">
        <ele>1956.271118</ele>
        <time>2013-01-12T14:07:12Z</time>
      </trkpt>
      <trkpt lat="45.01085" lon="5.57521">
        <ele>1954.046387</ele>
        <time>2013-01-12T14:07:18Z</time>
      </trkpt>
      <trkpt lat="45.01081" lon="5.57532">
        <ele>1953.866577</ele>
        <time>2013-01-12T14:07:22Z</time>
      </trkpt>
      <trkpt lat="45.01088" lon="5.57534">
        <ele>1951.997192</ele>
        <time>2013-01-12T14:07:26Z</time>
      </trkpt>
      <trkpt lat="45.01091" lon="5.57532">
        <ele>1951.512451</ele>
        <time>2013-01-12T14:07:27Z</time>
      </trkpt>
      <trkpt lat="45.01102" lon="5.57528">
        <ele>1949.150024</ele>
        <time>2013-01-12T14:07:31Z</time>
      </trkpt>
      <trkpt lat="45.01108" lon="5.57527">
        <ele>1947.738037</ele>
        <time>2013-01-12T14:07:33Z</time>
      </trkpt>
      <trkpt lat="45.01116" lon="5.57524">
        <ele>1945.992676</ele>
        <time>2013-01-12T14:07:36Z</time>
      </trkpt>
      <trkpt lat="45.01123" lon="5.57519">
        <ele>1945.004883</ele>
        <time>2013-01-12T14:07:39Z</time>
      </trkpt>
      <trkpt lat="45.01132" lon="5.57522">
        <ele>1942.545166</ele>
        <time>2013-01-12T14:08:49Z</time>
      </trkpt>
      <trkpt lat="45.01132" lon="5.57522">
        <ele>1942.516846</ele>
        <time>2013-01-12T14:08:50Z</time>
      </trkpt>
      <trkpt lat="45.01139" lon="5.57535">
        <ele>1938.498047</ele>
        <time>2013-01-12T14:09:23Z</time>
      </trkpt>
      <trkpt lat="45.01147" lon="5.57534">
        <ele>1936.604004</ele>
        <time>2013-01-12T14:09:26Z</time>
      </trkpt>
      <trkpt lat="45.01155" lon="5.57534">
        <ele>1934.702759</ele>
        <time>2013-01-12T14:09:29Z</time>
      </trkpt>
      <trkpt lat="45.01156" lon="5.57543">
        <ele>1932.192871</ele>
        <time>2013-01-12T14:09:34Z</time>
      </trkpt>
      <trkpt lat="45.01151" lon="5.57552">
        <ele>1932.160034</ele>
        <time>2013-01-12T14:09:37Z</time>
      </trkpt>
      <trkpt lat="45.01151" lon="5.57562">
        <ele>1930.775879</ele>
        <time>2013-01-12T14:09:42Z</time>
      </trkpt>
      <trkpt lat="45.01149" lon="5.57574">
        <ele>1929.809814</ele>
        <time>2013-01-12T14:09:46Z</time>
      </trkpt>
      <trkpt lat="45.01144" lon="5.57584">
        <ele>1930.334473</ele>
        <time>2013-01-12T14:09:49Z</time>
      </trkpt>
      <trkpt lat="45.01148" lon="5.57593">
        <ele>1927.855347</ele>
        <time>2013-01-12T14:09:56Z</time>
      </trkpt>
      <trkpt lat="45.01149" lon="5.57595">
        <ele>1927.055298</ele>
        <time>2013-01-12T14:09:57Z</time>
      </trkpt>
      <trkpt lat="45.01159" lon="5.57602">
        <ele>1922.055176</ele>
        <time>2013-01-12T14:10:05Z</time>
      </trkpt>
      <trkpt lat="45.01166" lon="5.57594">
        <ele>1920.85498</ele>
        <time>2013-01-12T14:10:10Z</time>
      </trkpt>
      <trkpt lat="45.01172" lon="5.57589">
        <ele>1919.243164</ele>
        <time>2013-01-12T14:10:12Z</time>
      </trkpt>
      <trkpt lat="45.01179" lon="5.57587">
        <ele>1917.063721</ele>
        <time>2013-01-12T14:10:14Z</time>
      </trkpt>
      <trkpt lat="45.01187" lon="5.57585">
        <ele>1914.607056</ele>
        <time>2013-01-12T14:10:18Z</time>
      </trkpt>
      <trkpt lat="45.01195" lon="5.57583">
        <ele>1912.480835</ele>
        <time>2013-01-12T14:10:21Z</time>
      </trkpt>
      <trkpt lat="45.01203" lon="5.5758">
        <ele>1910.473633</ele>
        <time>2013-01-12T14:10:25Z</time>
      </trkpt>
      <trkpt lat="45.0121" lon="5.57587">
        <ele>1906.078735</ele>
        <time>2013-01-12T14:10:32Z</time>
      </trkpt>
      <trkpt lat="45.01218" lon="5.57584">
        <ele>1904.290039</ele>
        <time>2013-01-12T14:10:35Z</time>
      </trkpt>
      <trkpt lat="45.01222" lon="5.57594">
        <ele>1899.68811</ele>
        <time>2013-01-12T14:10:41Z</time>
      </trkpt>
      <trkpt lat="45.0123" lon="5.57597">
        <ele>1896.006714</ele>
        <time>2013-01-12T14:10:47Z</time>
      </trkpt>
      <trkpt lat="45.01238" lon="5.57594">
        <ele>1894.574097</ele>
        <time>2013-01-12T14:10:50Z</time>
      </trkpt>
      <trkpt lat="45.01243" lon="5.57604">
        <ele>1889.482544</ele>
        <time>2013-01-12T14:10:58Z</time>
      </trkpt>
      <trkpt lat="45.01245" lon="5.57604">
        <ele>1889.159912</ele>
        <time>2013-01-12T14:10:59Z</time>
      </trkpt>
      <trkpt lat="45.01253" lon="5.57613">
        <ele>1883.306763</ele>
        <time>2013-01-12T14:11:05Z</time>
      </trkpt>
      <trkpt lat="45.01258" lon="5.57623">
        <ele>1879.634399</ele>
        <time>2013-01-12T14:11:10Z</time>
      </trkpt>
      <trkpt lat="45.01266" lon="5.57621">
        <ele>1876.991577</ele>
        <time>2013-01-12T14:11:13Z</time>
      </trkpt>
      <trkpt lat="45.01272" lon="5.57621">
        <ele>1875.408325</ele>
        <time>2013-01-12T14:11:15Z</time>
      </trkpt>
      <trkpt lat="45.01278" lon="5.57629">
        <ele>1873.907104</ele>
        <time>2013-01-12T14:11:18Z</time>
      </trkpt>
      <trkpt lat="45.0128" lon="5.57637">
        <ele>1873.368164</ele>
        <time>2013-01-12T14:11:20Z</time>
      </trkpt>
      <trkpt lat="45.01283" lon="5.57648">
        <ele>1872.343628</ele>
        <time>2013-01-12T14:11:22Z</time>
      </trkpt>
      <trkpt lat="45.01292" lon="5.57649">
        <ele>1870.497559</ele>
        <time>2013-01-12T14:11:38Z</time>
      </trkpt>
      <trkpt lat="45.013" lon="5.57645">
        <ele>1868.93042</ele>
        <time>2013-01-12T14:11:52Z</time>
      </trkpt>
      <trkpt lat="45.01308" lon="5.57649">
        <ele>1867.113892</ele>
        <time>2013-01-12T14:12:08Z</time>
      </trkpt>
      <trkpt lat="45.01309" lon="5.57649">
        <ele>1866.998291</ele>
        <time>2013-01-12T14:12:09Z</time>
      </trkpt>
      <trkpt lat="45.01316" lon="5.57668">
        <ele>1864.819702</ele>
        <time>2013-01-12T14:12:22Z</time>
      </trkpt>
      <trkpt lat="45.01319" lon="5.57677">
        <ele>1863.87439</ele>
        <time>2013-01-12T14:12:24Z</time>
      </trkpt>
      <trkpt lat="45.01324" lon="5.57687">
        <ele>1862.208496</ele>
        <time>2013-01-12T14:12:26Z</time>
      </trkpt>
      <trkpt lat="45.01328" lon="5.57691">
        <ele>1862.235474</ele>
        <time>2013-01-12T14:12:27Z</time>
      </trkpt>
      <trkpt lat="45.01332" lon="5.57695">
        <ele>1862.244385</ele>
        <time>2013-01-12T14:12:28Z</time>
      </trkpt>
      <trkpt lat="45.01335" lon="5.577">
        <ele>1862.36084</ele>
        <time>2013-01-12T14:12:29Z</time>
      </trkpt>
      <trkpt lat="45.01339" lon="5.57704">
        <ele>1862.305542</ele>
        <time>2013-01-12T14:12:30Z</time>
      </trkpt>
      <trkpt lat="45.01343" lon="5.57708">
        <ele>1862.186035</ele>
        <time>2013-01-12T14:12:31Z</time>
      </trkpt>
      <trkpt lat="45.01348" lon="5.57712">
        <ele>1861.79895</ele>
        <time>2013-01-12T14:12:32Z</time>
      </trkpt>
      <trkpt lat="45.01354" lon="5.57717">
        <ele>1861.245239</ele>
        <time>2013-01-12T14:12:33Z</time>
      </trkpt>
      <trkpt lat="45.01361" lon="5.57721">
        <ele>1860.720337</ele>
        <time>2013-01-12T14:12:34Z</time>
      </trkpt>
      <trkpt lat="45.01368" lon="5.57726">
        <ele>1860.149414</ele>
        <time>2013-01-12T14:12:35Z</time>
      </trkpt>
      <trkpt lat="45.01375" lon="5.5773">
        <ele>1859.58313</ele>
        <time>2013-01-12T14:12:36Z</time>
      </trkpt>
      <trkpt lat="45.01383" lon="5.57735">
        <ele>1858.836548</ele>
        <time>2013-01-12T14:12:37Z</time>
      </trkpt>
      <trkpt lat="45.0139" lon="5.57738">
        <ele>1857.953491</ele>
        <time>2013-01-12T14:12:38Z</time>
      </trkpt>
      <trkpt lat="45.01397" lon="5.57742">
        <ele>1857.119873</ele>
        <time>2013-01-12T14:12:39Z</time>
      </trkpt>
      <trkpt lat="45.01404" lon="5.57745">
        <ele>1856.520752</ele>
        <time>2013-01-12T14:12:40Z</time>
      </trkpt>
      <trkpt lat="45.01411" lon="5.57749">
        <ele>1855.991943</ele>
        <time>2013-01-12T14:12:41Z</time>
      </trkpt>
      <trkpt lat="45.01418" lon="5.57752">
        <ele>1855.376343</ele>
        <time>2013-01-12T14:12:42Z</time>
      </trkpt>
      <trkpt lat="45.01424" lon="5.57754">
        <ele>1854.767334</ele>
        <time>2013-01-12T14:12:43Z</time>
      </trkpt>
      <trkpt lat="45.01429" lon="5.57755">
        <ele>1854.242676</ele>
        <time>2013-01-12T14:12:44Z</time>
      </trkpt>
      <trkpt lat="45.01434" lon="5.57757">
        <ele>1853.927124</ele>
        <time>2013-01-12T14:12:45Z</time>
      </trkpt>
      <trkpt lat="45.01439" lon="5.57759">
        <ele>1853.74585</ele>
        <time>2013-01-12T14:12:46Z</time>
      </trkpt>
      <trkpt lat="45.01443" lon="5.5776">
        <ele>1853.406982</ele>
        <time>2013-01-12T14:12:47Z</time>
      </trkpt>
      <trkpt lat="45.01448" lon="5.57762">
        <ele>1853.361328</ele>
        <time>2013-01-12T14:12:48Z</time>
      </trkpt>
      <trkpt lat="45.01453" lon="5.57762">
        <ele>1853.046265</ele>
        <time>2013-01-12T14:12:49Z</time>
      </trkpt>
      <trkpt lat="45.01458" lon="5.57761">
        <ele>1852.44397</ele>
        <time>2013-01-12T14:12:50Z</time>
      </trkpt>
      <trkpt lat="45.01466" lon="5.57759">
        <ele>1850.751709</ele>
        <time>2013-01-12T14:12:52Z</time>
      </trkpt>
      <trkpt lat="45.01473" lon="5.57757">
        <ele>1849.691284</ele>
        <time>2013-01-12T14:12:54Z</time>
      </trkpt>
      <trkpt lat="45.01479" lon="5.57755">
        <ele>1848.948242</ele>
        <time>2013-01-12T14:12:56Z</time>
      </trkpt>
      <trkpt lat="45.01487" lon="5.57754">
        <ele>1848.070557</ele>
        <time>2013-01-12T14:12:58Z</time>
      </trkpt>
      <trkpt lat="45.01495" lon="5.57752">
        <ele>1848.403564</ele>
        <time>2013-01-12T14:13:00Z</time>
      </trkpt>
      <trkpt lat="45.01502" lon="5.57749">
        <ele>1849.130371</ele>
        <time>2013-01-12T14:13:02Z</time>
      </trkpt>
      <trkpt lat="45.01509" lon="5.57745">
        <ele>1849.526855</ele>
        <time>2013-01-12T14:13:04Z</time>
      </trkpt>
      <trkpt lat="45.01516" lon="5.57741">
        <ele>1849.525024</ele>
        <time>2013-01-12T14:13:06Z</time>
      </trkpt>
      <trkpt lat="45.01522" lon="5.57737">
        <ele>1849.333374</ele>
        <time>2013-01-12T14:13:08Z</time>
      </trkpt>
      <trkpt lat="45.01527" lon="5.57732">
        <ele>1848.856079</ele>
        <time>2013-01-12T14:13:10Z</time>
      </trkpt>
      <trkpt lat="45.0153" lon="5.5773">
        <ele>1848.558105</ele>
        <time>2013-01-12T14:13:11Z</time>
      </trkpt>
      <trkpt lat="45.01541" lon="5.57719">
        <ele>1847.433228</ele>
        <time>2013-01-12T14:13:20Z</time>
      </trkpt>
      <trkpt lat="45.01549" lon="5.57713">
        <ele>1847.366333</ele>
        <time>2013-01-12T14:13:26Z</time>
      </trkpt>
      <trkpt lat="45.01555" lon="5.57708">
        <ele>1847.390747</ele>
        <time>2013-01-12T14:13:31Z</time>
      </trkpt>
      <trkpt lat="45.01562" lon="5.57704">
        <ele>1847.306885</ele>
        <time>2013-01-12T14:13:35Z</time>
      </trkpt>
      <trkpt lat="45.01569" lon="5.57699">
        <ele>1847.571411</ele>
        <time>2013-01-12T14:13:38Z</time>
      </trkpt>
      <trkpt lat="45.01576" lon="5.57692">
        <ele>1848.234985</ele>
        <time>2013-01-12T14:13:41Z</time>
      </trkpt>
      <trkpt lat="45.01583" lon="5.57685">
        <ele>1848.717529</ele>
        <time>2013-01-12T14:13:49Z</time>
      </trkpt>
      <trkpt lat="45.01589" lon="5.57676">
        <ele>1848.519897</ele>
        <time>2013-01-12T14:14:11Z</time>
      </trkpt>
      <trkpt lat="45.01589" lon="5.57675">
        <ele>1848.495117</ele>
        <time>2013-01-12T14:14:12Z</time>
      </trkpt>
      <trkpt lat="45.016" lon="5.57657">
        <ele>1846.907349</ele>
        <time>2013-01-12T14:14:49Z</time>
      </trkpt>
      <trkpt lat="45.01607" lon="5.5765">
        <ele>1846.198364</ele>
        <time>2013-01-12T14:15:06Z</time>
      </trkpt>
      <trkpt lat="45.01614" lon="5.57643">
        <ele>1845.474976</ele>
        <time>2013-01-12T14:15:19Z</time>
      </trkpt>
      <trkpt lat="45.01615" lon="5.57643">
        <ele>1845.387329</ele>
        <time>2013-01-12T14:15:20Z</time>
      </trkpt>
      <trkpt lat="45.01629" lon="5.57633">
        <ele>1844.734863</ele>
        <time>2013-01-12T14:15:36Z</time>
      </trkpt>
      <trkpt lat="45.01637" lon="5.5763">
        <ele>1845.049561</ele>
        <time>2013-01-12T14:15:42Z</time>
      </trkpt>
      <trkpt lat="45.01645" lon="5.57627">
        <ele>1845.64563</ele>
        <time>2013-01-12T14:15:52Z</time>
      </trkpt>
      <trkpt lat="45.01654" lon="5.57625">
        <ele>1846.320923</ele>
        <time>2013-01-12T14:16:07Z</time>
      </trkpt>
      <trkpt lat="45.01662" lon="5.57621">
        <ele>1846.966431</ele>
        <time>2013-01-12T14:16:24Z</time>
      </trkpt>
      <trkpt lat="45.01663" lon="5.57621">
        <ele>1847.047852</ele>
        <time>2013-01-12T14:16:25Z</time>
      </trkpt>
      <trkpt lat="45.01679" lon="5.57613">
        <ele>1848.205566</ele>
        <time>2013-01-12T14:17:11Z</time>
      </trkpt>
      <trkpt lat="45.01685" lon="5.57605">
        <ele>1848.217529</ele>
        <time>2013-01-12T14:17:56Z</time>
      </trkpt>
      <trkpt lat="45.01686" lon="5.57605">
        <ele>1848.258789</ele>
        <time>2013-01-12T14:17:57Z</time>
      </trkpt>
      <trkpt lat="45.01698" lon="5.57587">
        <ele>1848.571411</ele>
        <time>2013-01-12T14:18:32Z</time>
      </trkpt>
      <trkpt lat="45.01705" lon="5.5758">
        <ele>1849.203735</ele>
        <time>2013-01-12T14:18:44Z</time>
      </trkpt>
      <trkpt lat="45.01713" lon="5.57577">
        <ele>1850.719971</ele>
        <time>2013-01-12T14:18:58Z</time>
      </trkpt>
      <trkpt lat="45.01714" lon="5.57577">
        <ele>1850.836304</ele>
        <time>2013-01-12T14:18:59Z</time>
      </trkpt>
      <trkpt lat="45.0173" lon="5.57568">
        <ele>1852.053711</ele>
        <time>2013-01-12T14:19:30Z</time>
      </trkpt>
      <trkpt lat="45.01738" lon="5.57562">
        <ele>1852.298706</ele>
        <time>2013-01-12T14:19:40Z</time>
      </trkpt>
      <trkpt lat="45.01746" lon="5.5756">
        <ele>1852.628174</ele>
        <time>2013-01-12T14:19:48Z</time>
      </trkpt>
      <trkpt lat="45.01754" lon="5.57558">
        <ele>1852.947388</ele>
        <time>2013-01-12T14:19:56Z</time>
      </trkpt>
      <trkpt lat="45.01762" lon="5.57555">
        <ele>1853.329834</ele>
        <time>2013-01-12T14:20:09Z</time>
      </trkpt>
      <trkpt lat="45.01763" lon="5.57555">
        <ele>1853.362427</ele>
        <time>2013-01-12T14:20:10Z</time>
      </trkpt>
      <trkpt lat="45.01777" lon="5.57551">
        <ele>1851.966064</ele>
        <time>2013-01-12T14:20:23Z</time>
      </trkpt>
      <trkpt lat="45.01785" lon="5.57549">
        <ele>1850.835449</ele>
        <time>2013-01-12T14:20:26Z</time>
      </trkpt>
      <trkpt lat="45.01792" lon="5.57548">
        <ele>1849.985352</ele>
        <time>2013-01-12T14:20:28Z</time>
      </trkpt>
      <trkpt lat="45.018" lon="5.57544">
        <ele>1848.930298</ele>
        <time>2013-01-12T14:20:34Z</time>
      </trkpt>
      <trkpt lat="45.01806" lon="5.57536">
        <ele>1848.319824</ele>
        <time>2013-01-12T14:20:48Z</time>
      </trkpt>
      <trkpt lat="45.01813" lon="5.57531">
        <ele>1847.380005</ele>
        <time>2013-01-12T14:20:56Z</time>
      </trkpt>
      <trkpt lat="45.01822" lon="5.57532">
        <ele>1845.224365</ele>
        <time>2013-01-12T14:21:03Z</time>
      </trkpt>
      <trkpt lat="45.0183" lon="5.57535">
        <ele>1843.119995</ele>
        <time>2013-01-12T14:21:17Z</time>
      </trkpt>
      <trkpt lat="45.01833" lon="5.57535">
        <ele>1842.425781</ele>
        <time>2013-01-12T14:21:18Z</time>
      </trkpt>
      <trkpt lat="45.01844" lon="5.57538">
        <ele>1839.484863</ele>
        <time>2013-01-12T14:21:26Z</time>
      </trkpt>
      <trkpt lat="45.01851" lon="5.57535">
        <ele>1837.901611</ele>
        <time>2013-01-12T14:21:31Z</time>
      </trkpt>
      <trkpt lat="45.01854" lon="5.57546">
        <ele>1836.472046</ele>
        <time>2013-01-12T14:21:37Z</time>
      </trkpt>
      <trkpt lat="45.01861" lon="5.57553">
        <ele>1833.911255</ele>
        <time>2013-01-12T14:21:44Z</time>
      </trkpt>
      <trkpt lat="45.01866" lon="5.57563">
        <ele>1831.621948</ele>
        <time>2013-01-12T14:21:54Z</time>
      </trkpt>
      <trkpt lat="45.01871" lon="5.57573">
        <ele>1829.160034</ele>
        <time>2013-01-12T14:22:03Z</time>
      </trkpt>
      <trkpt lat="45.01879" lon="5.57575">
        <ele>1826.447876</ele>
        <time>2013-01-12T14:22:07Z</time>
      </trkpt>
      <trkpt lat="45.01881" lon="5.57582">
        <ele>1825.274292</ele>
        <time>2013-01-12T14:22:09Z</time>
      </trkpt>
      <trkpt lat="45.01885" lon="5.57592">
        <ele>1823.098267</ele>
        <time>2013-01-12T14:22:11Z</time>
      </trkpt>
      <trkpt lat="45.0189" lon="5.57597">
        <ele>1821.878296</ele>
        <time>2013-01-12T14:22:13Z</time>
      </trkpt>
      <trkpt lat="45.01897" lon="5.57599">
        <ele>1819.478638</ele>
        <time>2013-01-12T14:22:15Z</time>
      </trkpt>
      <trkpt lat="45.01902" lon="5.57601">
        <ele>1818.175537</ele>
        <time>2013-01-12T14:22:16Z</time>
      </trkpt>
      <trkpt lat="45.01907" lon="5.57603">
        <ele>1817.010742</ele>
        <time>2013-01-12T14:22:17Z</time>
      </trkpt>
      <trkpt lat="45.01912" lon="5.57605">
        <ele>1815.942139</ele>
        <time>2013-01-12T14:22:18Z</time>
      </trkpt>
      <trkpt lat="45.01917" lon="5.57608">
        <ele>1814.850586</ele>
        <time>2013-01-12T14:22:19Z</time>
      </trkpt>
      <trkpt lat="45.01922" lon="5.57612">
        <ele>1813.859131</ele>
        <time>2013-01-12T14:22:20Z</time>
      </trkpt>
      <trkpt lat="45.01927" lon="5.57616">
        <ele>1812.900513</ele>
        <time>2013-01-12T14:22:21Z</time>
      </trkpt>
      <trkpt lat="45.01934" lon="5.57622">
        <ele>1812.032593</ele>
        <time>2013-01-12T14:22:23Z</time>
      </trkpt>
      <trkpt lat="45.0194" lon="5.57628">
        <ele>1810.924683</ele>
        <time>2013-01-12T14:22:30Z</time>
      </trkpt>
      <trkpt lat="45.01947" lon="5.57633">
        <ele>1809.863525</ele>
        <time>2013-01-12T14:22:34Z</time>
      </trkpt>
      <trkpt lat="45.01955" lon="5.57638">
        <ele>1808.88623</ele>
        <time>2013-01-12T14:22:39Z</time>
      </trkpt>
      <trkpt lat="45.01961" lon="5.57642">
        <ele>1807.80127</ele>
        <time>2013-01-12T14:22:42Z</time>
      </trkpt>
      <trkpt lat="45.01969" lon="5.57646">
        <ele>1806.414673</ele>
        <time>2013-01-12T14:22:45Z</time>
      </trkpt>
      <trkpt lat="45.01977" lon="5.57653">
        <ele>1805.450928</ele>
        <time>2013-01-12T14:22:48Z</time>
      </trkpt>
      <trkpt lat="45.01983" lon="5.57655">
        <ele>1804.1604</ele>
        <time>2013-01-12T14:22:50Z</time>
      </trkpt>
      <trkpt lat="45.01991" lon="5.57654">
        <ele>1802.276245</ele>
        <time>2013-01-12T14:22:52Z</time>
      </trkpt>
      <trkpt lat="45.01998" lon="5.57652">
        <ele>1800.040039</ele>
        <time>2013-01-12T14:22:54Z</time>
      </trkpt>
      <trkpt lat="45.02006" lon="5.57653">
        <ele>1798.153809</ele>
        <time>2013-01-12T14:22:56Z</time>
      </trkpt>
      <trkpt lat="45.02014" lon="5.57652">
        <ele>1796.053711</ele>
        <time>2013-01-12T14:22:58Z</time>
      </trkpt>
      <trkpt lat="45.02021" lon="5.57652">
        <ele>1794.303711</ele>
        <time>2013-01-12T14:23:00Z</time>
      </trkpt>
      <trkpt lat="45.02028" lon="5.57654">
        <ele>1792.69873</ele>
        <time>2013-01-12T14:23:03Z</time>
      </trkpt>
      <trkpt lat="45.02037" lon="5.57654">
        <ele>1790.570923</ele>
        <time>2013-01-12T14:23:11Z</time>
      </trkpt>
      <trkpt lat="45.02045" lon="5.57659">
        <ele>1789.293457</ele>
        <time>2013-01-12T14:23:17Z</time>
      </trkpt>
      <trkpt lat="45.02053" lon="5.57662">
        <ele>1787.843506</ele>
        <time>2013-01-12T14:23:22Z</time>
      </trkpt>
      <trkpt lat="45.02055" lon="5.5766">
        <ele>1787.188354</ele>
        <time>2013-01-12T14:23:23Z</time>
      </trkpt>
      <trkpt lat="45.02067" lon="5.57653">
        <ele>1783.059448</ele>
        <time>2013-01-12T14:23:28Z</time>
      </trkpt>
      <trkpt lat="45.02075" lon="5.5766">
        <ele>1782.386353</ele>
        <time>2013-01-12T14:23:31Z</time>
      </trkpt>
      <trkpt lat="45.02081" lon="5.57657">
        <ele>1780.686035</ele>
        <time>2013-01-12T14:23:33Z</time>
      </trkpt>
      <trkpt lat="45.02088" lon="5.57657">
        <ele>1779.131714</ele>
        <time>2013-01-12T14:23:35Z</time>
      </trkpt>
      <trkpt lat="45.02097" lon="5.57658">
        <ele>1777.495728</ele>
        <time>2013-01-12T14:23:37Z</time>
      </trkpt>
      <trkpt lat="45.02101" lon="5.57659">
        <ele>1776.629272</ele>
        <time>2013-01-12T14:23:38Z</time>
      </trkpt>
      <trkpt lat="45.0211" lon="5.5766">
        <ele>1775.008057</ele>
        <time>2013-01-12T14:23:40Z</time>
      </trkpt>
      <trkpt lat="45.02114" lon="5.57661">
        <ele>1774.271362</ele>
        <time>2013-01-12T14:23:41Z</time>
      </trkpt>
      <trkpt lat="45.02122" lon="5.57665">
        <ele>1773.153076</ele>
        <time>2013-01-12T14:23:43Z</time>
      </trkpt>
      <trkpt lat="45.0213" lon="5.5767">
        <ele>1772.520874</ele>
        <time>2013-01-12T14:23:45Z</time>
      </trkpt>
      <trkpt lat="45.02137" lon="5.57675">
        <ele>1772.512451</ele>
        <time>2013-01-12T14:23:47Z</time>
      </trkpt>
      <trkpt lat="45.02145" lon="5.57679">
        <ele>1772.438721</ele>
        <time>2013-01-12T14:23:49Z</time>
      </trkpt>
      <trkpt lat="45.02153" lon="5.57684">
        <ele>1772.342529</ele>
        <time>2013-01-12T14:23:51Z</time>
      </trkpt>
      <trkpt lat="45.02157" lon="5.57686">
        <ele>1772.097534</ele>
        <time>2013-01-12T14:23:52Z</time>
      </trkpt>
      <trkpt lat="45.02162" lon="5.57688">
        <ele>1771.743774</ele>
        <time>2013-01-12T14:23:53Z</time>
      </trkpt>
      <trkpt lat="45.0217" lon="5.57691">
        <ele>1771.577271</ele>
        <time>2013-01-12T14:23:55Z</time>
      </trkpt>
      <trkpt lat="45.02177" lon="5.57692">
        <ele>1771.346069</ele>
        <time>2013-01-12T14:23:57Z</time>
      </trkpt>
      <trkpt lat="45.02184" lon="5.57691">
        <ele>1770.552002</ele>
        <time>2013-01-12T14:23:59Z</time>
      </trkpt>
      <trkpt lat="45.02191" lon="5.5769">
        <ele>1769.588623</ele>
        <time>2013-01-12T14:24:01Z</time>
      </trkpt>
      <trkpt lat="45.02199" lon="5.57688">
        <ele>1768.565674</ele>
        <time>2013-01-12T14:24:03Z</time>
      </trkpt>
      <trkpt lat="45.02206" lon="5.57684">
        <ele>1766.993042</ele>
        <time>2013-01-12T14:24:05Z</time>
      </trkpt>
      <trkpt lat="45.02214" lon="5.5768">
        <ele>1765.528076</ele>
        <time>2013-01-12T14:24:07Z</time>
      </trkpt>
      <trkpt lat="45.02221" lon="5.57676">
        <ele>1764.887695</ele>
        <time>2013-01-12T14:24:09Z</time>
      </trkpt>
      <trkpt lat="45.02228" lon="5.57672">
        <ele>1764.969604</ele>
        <time>2013-01-12T14:24:11Z</time>
      </trkpt>
      <trkpt lat="45.02235" lon="5.57669">
        <ele>1765.211914</ele>
        <time>2013-01-12T14:24:13Z</time>
      </trkpt>
      <trkpt lat="45.02244" lon="5.57666">
        <ele>1765.645264</ele>
        <time>2013-01-12T14:24:22Z</time>
      </trkpt>
      <trkpt lat="45.02252" lon="5.57662">
        <ele>1766.005859</ele>
        <time>2013-01-12T14:24:49Z</time>
      </trkpt>
      <trkpt lat="45.02252" lon="5.57662">
        <ele>1766.051147</ele>
        <time>2013-01-12T14:24:50Z</time>
      </trkpt>
      <trkpt lat="45.02268" lon="5.57656">
        <ele>1766.463623</ele>
        <time>2013-01-12T14:25:05Z</time>
      </trkpt>
      <trkpt lat="45.02275" lon="5.57652">
        <ele>1766.301514</ele>
        <time>2013-01-12T14:25:08Z</time>
      </trkpt>
      <trkpt lat="45.02281" lon="5.57649">
        <ele>1766.143677</ele>
        <time>2013-01-12T14:25:10Z</time>
      </trkpt>
      <trkpt lat="45.02289" lon="5.57643">
        <ele>1765.817017</ele>
        <time>2013-01-12T14:25:33Z</time>
      </trkpt>
      <trkpt lat="45.02295" lon="5.57637">
        <ele>1765.289307</ele>
        <time>2013-01-12T14:25:55Z</time>
      </trkpt>
      <trkpt lat="45.02297" lon="5.57636">
        <ele>1765.267334</ele>
        <time>2013-01-12T14:25:56Z</time>
      </trkpt>
      <trkpt lat="45.0231" lon="5.57633">
        <ele>1764.293213</ele>
        <time>2013-01-12T14:26:03Z</time>
      </trkpt>
      <trkpt lat="45.02317" lon="5.57631">
        <ele>1762.96814</ele>
        <time>2013-01-12T14:26:06Z</time>
      </trkpt>
      <trkpt lat="45.02325" lon="5.57627">
        <ele>1761.141724</ele>
        <time>2013-01-12T14:26:09Z</time>
      </trkpt>
      <trkpt lat="45.02333" lon="5.57623">
        <ele>1759.337402</ele>
        <time>2013-01-12T14:26:12Z</time>
      </trkpt>
      <trkpt lat="45.0234" lon="5.57619">
        <ele>1757.551147</ele>
        <time>2013-01-12T14:26:15Z</time>
      </trkpt>
      <trkpt lat="45.02347" lon="5.57617">
        <ele>1756.827393</ele>
        <time>2013-01-12T14:26:18Z</time>
      </trkpt>
      <trkpt lat="45.02355" lon="5.57614">
        <ele>1756.450684</ele>
        <time>2013-01-12T14:26:21Z</time>
      </trkpt>
      <trkpt lat="45.02361" lon="5.57611">
        <ele>1756.260254</ele>
        <time>2013-01-12T14:26:23Z</time>
      </trkpt>
      <trkpt lat="45.02368" lon="5.57607">
        <ele>1755.985718</ele>
        <time>2013-01-12T14:26:25Z</time>
      </trkpt>
      <trkpt lat="45.02377" lon="5.57604">
        <ele>1755.434937</ele>
        <time>2013-01-12T14:26:27Z</time>
      </trkpt>
      <trkpt lat="45.02385" lon="5.57601">
        <ele>1754.83313</ele>
        <time>2013-01-12T14:26:29Z</time>
      </trkpt>
      <trkpt lat="45.0239" lon="5.576">
        <ele>1754.470215</ele>
        <time>2013-01-12T14:26:30Z</time>
      </trkpt>
      <trkpt lat="45.02395" lon="5.57598">
        <ele>1754.045288</ele>
        <time>2013-01-12T14:26:31Z</time>
      </trkpt>
      <trkpt lat="45.024" lon="5.57596">
        <ele>1753.553955</ele>
        <time>2013-01-12T14:26:32Z</time>
      </trkpt>
      <trkpt lat="45.02406" lon="5.57595">
        <ele>1752.979736</ele>
        <time>2013-01-12T14:26:33Z</time>
      </trkpt>
      <trkpt lat="45.02413" lon="5.57593">
        <ele>1752.282715</ele>
        <time>2013-01-12T14:26:34Z</time>
      </trkpt>
      <trkpt lat="45.02418" lon="5.57592">
        <ele>1751.563354</ele>
        <time>2013-01-12T14:26:35Z</time>
      </trkpt>
      <trkpt lat="45.02424" lon="5.57591">
        <ele>1750.840332</ele>
        <time>2013-01-12T14:26:36Z</time>
      </trkpt>
      <trkpt lat="45.0243" lon="5.5759">
        <ele>1750.140259</ele>
        <time>2013-01-12T14:26:37Z</time>
      </trkpt>
      <trkpt lat="45.02435" lon="5.57589">
        <ele>1749.401367</ele>
        <time>2013-01-12T14:26:38Z</time>
      </trkpt>
      <trkpt lat="45.02443" lon="5.57588">
        <ele>1748.117432</ele>
        <time>2013-01-12T14:26:40Z</time>
      </trkpt>
      <trkpt lat="45.02449" lon="5.57587">
        <ele>1747.007446</ele>
        <time>2013-01-12T14:26:42Z</time>
      </trkpt>
      <trkpt lat="45.02458" lon="5.57584">
        <ele>1745.507446</ele>
        <time>2013-01-12T14:26:45Z</time>
      </trkpt>
      <trkpt lat="45.02465" lon="5.57581">
        <ele>1744.22876</ele>
        <time>2013-01-12T14:26:48Z</time>
      </trkpt>
      <trkpt lat="45.02474" lon="5.57578">
        <ele>1742.64624</ele>
        <time>2013-01-12T14:26:52Z</time>
      </trkpt>
      <trkpt lat="45.02479" lon="5.57575">
        <ele>1741.671265</ele>
        <time>2013-01-12T14:26:54Z</time>
      </trkpt>
      <trkpt lat="45.02486" lon="5.57568">
        <ele>1740.632446</ele>
        <time>2013-01-12T14:26:56Z</time>
      </trkpt>
      <trkpt lat="45.0249" lon="5.57564">
        <ele>1739.532349</ele>
        <time>2013-01-12T14:26:57Z</time>
      </trkpt>
      <trkpt lat="45.02493" lon="5.57559">
        <ele>1739.524292</ele>
        <time>2013-01-12T14:26:58Z</time>
      </trkpt>
      <trkpt lat="45.02499" lon="5.57552">
        <ele>1739.407349</ele>
        <time>2013-01-12T14:27:00Z</time>
      </trkpt>
      <trkpt lat="45.02505" lon="5.57544">
        <ele>1739.22876</ele>
        <time>2013-01-12T14:27:07Z</time>
      </trkpt>
      <trkpt lat="45.02511" lon="5.57535">
        <ele>1739.328247</ele>
        <time>2013-01-12T14:27:21Z</time>
      </trkpt>
      <trkpt lat="45.02514" lon="5.57523">
        <ele>1740.86438</ele>
        <time>2013-01-12T14:27:40Z</time>
      </trkpt>
      <trkpt lat="45.02518" lon="5.57513">
        <ele>1742.041016</ele>
        <time>2013-01-12T14:27:55Z</time>
      </trkpt>
      <trkpt lat="45.02523" lon="5.57504">
        <ele>1742.430908</ele>
        <time>2013-01-12T14:27:57Z</time>
      </trkpt>
      <trkpt lat="45.02526" lon="5.57498">
        <ele>1742.669434</ele>
        <time>2013-01-12T14:27:58Z</time>
      </trkpt>
      <trkpt lat="45.02531" lon="5.57488">
        <ele>1743.495239</ele>
        <time>2013-01-12T14:28:04Z</time>
      </trkpt>
      <trkpt lat="45.02535" lon="5.57477">
        <ele>1744.767822</ele>
        <time>2013-01-12T14:28:26Z</time>
      </trkpt>
      <trkpt lat="45.0254" lon="5.57467">
        <ele>1745.133667</ele>
        <time>2013-01-12T14:28:42Z</time>
      </trkpt>
      <trkpt lat="45.02545" lon="5.57456">
        <ele>1746.131714</ele>
        <time>2013-01-12T14:29:08Z</time>
      </trkpt>
      <trkpt lat="45.02545" lon="5.57455">
        <ele>1746.122437</ele>
        <time>2013-01-12T14:29:09Z</time>
      </trkpt>
      <trkpt lat="45.02555" lon="5.57436">
        <ele>1747.451172</ele>
        <time>2013-01-12T14:30:18Z</time>
      </trkpt>
      <trkpt lat="45.02556" lon="5.57436">
        <ele>1747.404053</ele>
        <time>2013-01-12T14:30:19Z</time>
      </trkpt>
      <trkpt lat="45.02567" lon="5.57419">
        <ele>1748.566406</ele>
        <time>2013-01-12T14:31:03Z</time>
      </trkpt>
      <trkpt lat="45.02573" lon="5.57415">
        <ele>1747.735107</ele>
        <time>2013-01-12T14:31:07Z</time>
      </trkpt>
      <trkpt lat="45.02579" lon="5.57412">
        <ele>1746.785522</ele>
        <time>2013-01-12T14:31:09Z</time>
      </trkpt>
      <trkpt lat="45.02586" lon="5.57407">
        <ele>1745.618652</ele>
        <time>2013-01-12T14:31:11Z</time>
      </trkpt>
      <trkpt lat="45.0259" lon="5.57404">
        <ele>1745.531006</ele>
        <time>2013-01-12T14:31:12Z</time>
      </trkpt>
      <trkpt lat="45.02597" lon="5.57396">
        <ele>1745.922729</ele>
        <time>2013-01-12T14:31:14Z</time>
      </trkpt>
      <trkpt lat="45.02601" lon="5.57392">
        <ele>1746.392456</ele>
        <time>2013-01-12T14:31:15Z</time>
      </trkpt>
      <trkpt lat="45.02604" lon="5.57388">
        <ele>1746.735962</ele>
        <time>2013-01-12T14:31:16Z</time>
      </trkpt>
      <trkpt lat="45.02608" lon="5.57384">
        <ele>1746.8479</ele>
        <time>2013-01-12T14:31:17Z</time>
      </trkpt>
      <trkpt lat="45.02613" lon="5.57381">
        <ele>1746.66748</ele>
        <time>2013-01-12T14:31:18Z</time>
      </trkpt>
      <trkpt lat="45.02617" lon="5.57379">
        <ele>1746.007935</ele>
        <time>2013-01-12T14:31:19Z</time>
      </trkpt>
      <trkpt lat="45.02622" lon="5.57377">
        <ele>1745.379272</ele>
        <time>2013-01-12T14:31:20Z</time>
      </trkpt>
      <trkpt lat="45.02627" lon="5.57375">
        <ele>1744.880981</ele>
        <time>2013-01-12T14:31:21Z</time>
      </trkpt>
      <trkpt lat="45.02632" lon="5.57374">
        <ele>1745.157715</ele>
        <time>2013-01-12T14:31:22Z</time>
      </trkpt>
      <trkpt lat="45.02637" lon="5.57372">
        <ele>1745.194702</ele>
        <time>2013-01-12T14:31:23Z</time>
      </trkpt>
      <trkpt lat="45.02642" lon="5.57372">
        <ele>1744.845215</ele>
        <time>2013-01-12T14:31:24Z</time>
      </trkpt>
      <trkpt lat="45.02647" lon="5.57372">
        <ele>1744.404297</ele>
        <time>2013-01-12T14:31:25Z</time>
      </trkpt>
      <trkpt lat="45.02655" lon="5.57372">
        <ele>1743.08728</ele>
        <time>2013-01-12T14:31:27Z</time>
      </trkpt>
      <trkpt lat="45.0266" lon="5.57373">
        <ele>1742.334595</ele>
        <time>2013-01-12T14:31:28Z</time>
      </trkpt>
      <trkpt lat="45.02664" lon="5.57374">
        <ele>1741.448975</ele>
        <time>2013-01-12T14:31:29Z</time>
      </trkpt>
      <trkpt lat="45.02673" lon="5.57377">
        <ele>1739.773804</ele>
        <time>2013-01-12T14:31:31Z</time>
      </trkpt>
      <trkpt lat="45.02681" lon="5.57379">
        <ele>1738.491455</ele>
        <time>2013-01-12T14:31:33Z</time>
      </trkpt>
      <trkpt lat="45.02688" lon="5.57382">
        <ele>1737.369751</ele>
        <time>2013-01-12T14:31:35Z</time>
      </trkpt>
      <trkpt lat="45.02694" lon="5.57383">
        <ele>1736.434448</ele>
        <time>2013-01-12T14:31:37Z</time>
      </trkpt>
      <trkpt lat="45.027" lon="5.57384">
        <ele>1735.754028</ele>
        <time>2013-01-12T14:31:39Z</time>
      </trkpt>
      <trkpt lat="45.02707" lon="5.57383">
        <ele>1735.422363</ele>
        <time>2013-01-12T14:31:41Z</time>
      </trkpt>
      <trkpt lat="45.02714" lon="5.57382">
        <ele>1735.070679</ele>
        <time>2013-01-12T14:31:43Z</time>
      </trkpt>
      <trkpt lat="45.02722" lon="5.5738">
        <ele>1733.983765</ele>
        <time>2013-01-12T14:31:45Z</time>
      </trkpt>
      <trkpt lat="45.02731" lon="5.57379">
        <ele>1732.12793</ele>
        <time>2013-01-12T14:31:47Z</time>
      </trkpt>
      <trkpt lat="45.02736" lon="5.57379">
        <ele>1731.001343</ele>
        <time>2013-01-12T14:31:48Z</time>
      </trkpt>
      <trkpt lat="45.02741" lon="5.57381">
        <ele>1729.684814</ele>
        <time>2013-01-12T14:31:49Z</time>
      </trkpt>
      <trkpt lat="45.02746" lon="5.57382">
        <ele>1728.225342</ele>
        <time>2013-01-12T14:31:50Z</time>
      </trkpt>
      <trkpt lat="45.02752" lon="5.57381">
        <ele>1727.061768</ele>
        <time>2013-01-12T14:31:51Z</time>
      </trkpt>
      <trkpt lat="45.02758" lon="5.57381">
        <ele>1725.724976</ele>
        <time>2013-01-12T14:31:52Z</time>
      </trkpt>
      <trkpt lat="45.02764" lon="5.57381">
        <ele>1724.431763</ele>
        <time>2013-01-12T14:31:53Z</time>
      </trkpt>
      <trkpt lat="45.02769" lon="5.57382">
        <ele>1723.236084</ele>
        <time>2013-01-12T14:31:54Z</time>
      </trkpt>
      <trkpt lat="45.02775" lon="5.57382">
        <ele>1721.863159</ele>
        <time>2013-01-12T14:31:55Z</time>
      </trkpt>
      <trkpt lat="45.02783" lon="5.57382">
        <ele>1720.351318</ele>
        <time>2013-01-12T14:31:57Z</time>
      </trkpt>
      <trkpt lat="45.02791" lon="5.57385">
        <ele>1717.783447</ele>
        <time>2013-01-12T14:32:00Z</time>
      </trkpt>
      <trkpt lat="45.02797" lon="5.57386">
        <ele>1716.357666</ele>
        <time>2013-01-12T14:32:02Z</time>
      </trkpt>
      <trkpt lat="45.02804" lon="5.57388">
        <ele>1714.64624</ele>
        <time>2013-01-12T14:32:04Z</time>
      </trkpt>
      <trkpt lat="45.0281" lon="5.5739">
        <ele>1712.749512</ele>
        <time>2013-01-12T14:32:06Z</time>
      </trkpt>
      <trkpt lat="45.02817" lon="5.57393">
        <ele>1710.566406</ele>
        <time>2013-01-12T14:32:08Z</time>
      </trkpt>
      <trkpt lat="45.02824" lon="5.57392">
        <ele>1709.605347</ele>
        <time>2013-01-12T14:32:10Z</time>
      </trkpt>
      <trkpt lat="45.02833" lon="5.57389">
        <ele>1708.845703</ele>
        <time>2013-01-12T14:32:12Z</time>
      </trkpt>
      <trkpt lat="45.02839" lon="5.57385">
        <ele>1708.65564</ele>
        <time>2013-01-12T14:32:14Z</time>
      </trkpt>
      <trkpt lat="45.02847" lon="5.5738">
        <ele>1708.339478</ele>
        <time>2013-01-12T14:32:33Z</time>
      </trkpt>
      <trkpt lat="45.02849" lon="5.57379">
        <ele>1708.174927</ele>
        <time>2013-01-12T14:32:34Z</time>
      </trkpt>
      <trkpt lat="45.02859" lon="5.57376">
        <ele>1706.41748</ele>
        <time>2013-01-12T14:32:37Z</time>
      </trkpt>
      <trkpt lat="45.02867" lon="5.5737">
        <ele>1705.939331</ele>
        <time>2013-01-12T14:32:39Z</time>
      </trkpt>
      <trkpt lat="45.02875" lon="5.57371">
        <ele>1703.460693</ele>
        <time>2013-01-12T14:32:41Z</time>
      </trkpt>
      <trkpt lat="45.02879" lon="5.57369">
        <ele>1702.893799</ele>
        <time>2013-01-12T14:32:42Z</time>
      </trkpt>
      <trkpt lat="45.02884" lon="5.57369">
        <ele>1701.79248</ele>
        <time>2013-01-12T14:32:43Z</time>
      </trkpt>
      <trkpt lat="45.02889" lon="5.57369">
        <ele>1700.483398</ele>
        <time>2013-01-12T14:32:44Z</time>
      </trkpt>
      <trkpt lat="45.02894" lon="5.57366">
        <ele>1699.613647</ele>
        <time>2013-01-12T14:32:45Z</time>
      </trkpt>
      <trkpt lat="45.02899" lon="5.57368">
        <ele>1698.084961</ele>
        <time>2013-01-12T14:32:46Z</time>
      </trkpt>
      <trkpt lat="45.02904" lon="5.57369">
        <ele>1696.388428</ele>
        <time>2013-01-12T14:32:47Z</time>
      </trkpt>
      <trkpt lat="45.02912" lon="5.57366">
        <ele>1694.540894</ele>
        <time>2013-01-12T14:32:49Z</time>
      </trkpt>
      <trkpt lat="45.02921" lon="5.57368">
        <ele>1691.668213</ele>
        <time>2013-01-12T14:32:51Z</time>
      </trkpt>
      <trkpt lat="45.02924" lon="5.57365">
        <ele>1691.040283</ele>
        <time>2013-01-12T14:32:52Z</time>
      </trkpt>
      <trkpt lat="45.02929" lon="5.57362">
        <ele>1690.207275</ele>
        <time>2013-01-12T14:32:53Z</time>
      </trkpt>
      <trkpt lat="45.02937" lon="5.57356">
        <ele>1688.793091</ele>
        <time>2013-01-12T14:32:55Z</time>
      </trkpt>
      <trkpt lat="45.02941" lon="5.57358">
        <ele>1687.207275</ele>
        <time>2013-01-12T14:32:56Z</time>
      </trkpt>
      <trkpt lat="45.02946" lon="5.57356">
        <ele>1686.015259</ele>
        <time>2013-01-12T14:32:57Z</time>
      </trkpt>
      <trkpt lat="45.02954" lon="5.5735">
        <ele>1684.480469</ele>
        <time>2013-01-12T14:32:59Z</time>
      </trkpt>
      <trkpt lat="45.02962" lon="5.57352">
        <ele>1681.737671</ele>
        <time>2013-01-12T14:33:01Z</time>
      </trkpt>
      <trkpt lat="45.02969" lon="5.57349">
        <ele>1679.901855</ele>
        <time>2013-01-12T14:33:03Z</time>
      </trkpt>
      <trkpt lat="45.02973" lon="5.57352">
        <ele>1678.265503</ele>
        <time>2013-01-12T14:33:04Z</time>
      </trkpt>
      <trkpt lat="45.02978" lon="5.57353">
        <ele>1676.352417</ele>
        <time>2013-01-12T14:33:05Z</time>
      </trkpt>
      <trkpt lat="45.02983" lon="5.5735">
        <ele>1675.49231</ele>
        <time>2013-01-12T14:33:06Z</time>
      </trkpt>
      <trkpt lat="45.02986" lon="5.57344">
        <ele>1675.403198</ele>
        <time>2013-01-12T14:33:07Z</time>
      </trkpt>
      <trkpt lat="45.02991" lon="5.5734">
        <ele>1675.095093</ele>
        <time>2013-01-12T14:33:08Z</time>
      </trkpt>
      <trkpt lat="45.02995" lon="5.57341">
        <ele>1673.995728</ele>
        <time>2013-01-12T14:33:09Z</time>
      </trkpt>
      <trkpt lat="45.03" lon="5.57344">
        <ele>1672.503052</ele>
        <time>2013-01-12T14:33:10Z</time>
      </trkpt>
      <trkpt lat="45.03004" lon="5.57343">
        <ele>1671.749023</ele>
        <time>2013-01-12T14:33:11Z</time>
      </trkpt>
      <trkpt lat="45.03009" lon="5.57341">
        <ele>1671.146362</ele>
        <time>2013-01-12T14:33:12Z</time>
      </trkpt>
      <trkpt lat="45.03014" lon="5.57341">
        <ele>1669.959106</ele>
        <time>2013-01-12T14:33:13Z</time>
      </trkpt>
      <trkpt lat="45.03019" lon="5.57344">
        <ele>1668.523682</ele>
        <time>2013-01-12T14:33:14Z</time>
      </trkpt>
      <trkpt lat="45.03024" lon="5.57345">
        <ele>1667.260864</ele>
        <time>2013-01-12T14:33:15Z</time>
      </trkpt>
      <trkpt lat="45.03029" lon="5.57343">
        <ele>1666.567017</ele>
        <time>2013-01-12T14:33:16Z</time>
      </trkpt>
      <trkpt lat="45.03034" lon="5.57341">
        <ele>1665.742188</ele>
        <time>2013-01-12T14:33:17Z</time>
      </trkpt>
      <trkpt lat="45.03042" lon="5.57346">
        <ele>1662.951782</ele>
        <time>2013-01-12T14:33:19Z</time>
      </trkpt>
      <trkpt lat="45.0305" lon="5.57349">
        <ele>1660.508911</ele>
        <time>2013-01-12T14:33:21Z</time>
      </trkpt>
      <trkpt lat="45.03056" lon="5.57348">
        <ele>1659.240356</ele>
        <time>2013-01-12T14:33:22Z</time>
      </trkpt>
      <trkpt lat="45.03063" lon="5.57354">
        <ele>1656.724121</ele>
        <time>2013-01-12T14:33:24Z</time>
      </trkpt>
      <trkpt lat="45.0307" lon="5.57354">
        <ele>1654.990112</ele>
        <time>2013-01-12T14:33:26Z</time>
      </trkpt>
      <trkpt lat="45.03075" lon="5.57352">
        <ele>1654.262207</ele>
        <time>2013-01-12T14:33:27Z</time>
      </trkpt>
      <trkpt lat="45.03079" lon="5.57348">
        <ele>1653.946655</ele>
        <time>2013-01-12T14:33:28Z</time>
      </trkpt>
      <trkpt lat="45.03087" lon="5.57344">
        <ele>1652.474365</ele>
        <time>2013-01-12T14:33:30Z</time>
      </trkpt>
      <trkpt lat="45.03096" lon="5.57341">
        <ele>1650.335571</ele>
        <time>2013-01-12T14:33:37Z</time>
      </trkpt>
      <trkpt lat="45.03096" lon="5.57341">
        <ele>1650.159912</ele>
        <time>2013-01-12T14:33:38Z</time>
      </trkpt>
      <trkpt lat="45.03106" lon="5.57329">
        <ele>1648.033325</ele>
        <time>2013-01-12T14:33:43Z</time>
      </trkpt>
      <trkpt lat="45.03113" lon="5.57325">
        <ele>1646.383667</ele>
        <time>2013-01-12T14:33:45Z</time>
      </trkpt>
      <trkpt lat="45.03122" lon="5.57326">
        <ele>1643.94751</ele>
        <time>2013-01-12T14:33:49Z</time>
      </trkpt>
      <trkpt lat="45.03128" lon="5.57318">
        <ele>1642.660034</ele>
        <time>2013-01-12T14:33:54Z</time>
      </trkpt>
      <trkpt lat="45.03135" lon="5.57312">
        <ele>1640.782471</ele>
        <time>2013-01-12T14:33:57Z</time>
      </trkpt>
      <trkpt lat="45.03142" lon="5.57309">
        <ele>1638.897461</ele>
        <time>2013-01-12T14:33:59Z</time>
      </trkpt>
      <trkpt lat="45.03149" lon="5.57308">
        <ele>1636.767456</ele>
        <time>2013-01-12T14:34:01Z</time>
      </trkpt>
      <trkpt lat="45.03157" lon="5.5731">
        <ele>1634.477539</ele>
        <time>2013-01-12T14:34:03Z</time>
      </trkpt>
      <trkpt lat="45.03166" lon="5.57309">
        <ele>1632.055054</ele>
        <time>2013-01-12T14:34:05Z</time>
      </trkpt>
      <trkpt lat="45.03173" lon="5.57312">
        <ele>1629.966553</ele>
        <time>2013-01-12T14:34:07Z</time>
      </trkpt>
      <trkpt lat="45.03178" lon="5.57311">
        <ele>1628.728882</ele>
        <time>2013-01-12T14:34:08Z</time>
      </trkpt>
      <trkpt lat="45.03182" lon="5.57313">
        <ele>1627.502686</ele>
        <time>2013-01-12T14:34:09Z</time>
      </trkpt>
      <trkpt lat="45.03187" lon="5.57312">
        <ele>1626.31958</ele>
        <time>2013-01-12T14:34:10Z</time>
      </trkpt>
      <trkpt lat="45.03192" lon="5.57313">
        <ele>1624.994629</ele>
        <time>2013-01-12T14:34:11Z</time>
      </trkpt>
      <trkpt lat="45.03201" lon="5.57314">
        <ele>1622.699707</ele>
        <time>2013-01-12T14:34:13Z</time>
      </trkpt>
      <trkpt lat="45.03205" lon="5.57311">
        <ele>1621.719116</ele>
        <time>2013-01-12T14:34:14Z</time>
      </trkpt>
      <trkpt lat="45.0321" lon="5.57311">
        <ele>1620.560425</ele>
        <time>2013-01-12T14:34:15Z</time>
      </trkpt>
      <trkpt lat="45.03214" lon="5.57308">
        <ele>1619.642212</ele>
        <time>2013-01-12T14:34:16Z</time>
      </trkpt>
      <trkpt lat="45.03218" lon="5.57304">
        <ele>1619.051025</ele>
        <time>2013-01-12T14:34:17Z</time>
      </trkpt>
      <trkpt lat="45.03223" lon="5.57303">
        <ele>1618.249512</ele>
        <time>2013-01-12T14:34:18Z</time>
      </trkpt>
      <trkpt lat="45.03229" lon="5.57303">
        <ele>1617.136719</ele>
        <time>2013-01-12T14:34:19Z</time>
      </trkpt>
      <trkpt lat="45.03233" lon="5.57301">
        <ele>1616.461548</ele>
        <time>2013-01-12T14:34:20Z</time>
      </trkpt>
      <trkpt lat="45.03238" lon="5.57298">
        <ele>1615.986938</ele>
        <time>2013-01-12T14:34:21Z</time>
      </trkpt>
      <trkpt lat="45.03242" lon="5.57296">
        <ele>1615.352295</ele>
        <time>2013-01-12T14:34:22Z</time>
      </trkpt>
      <trkpt lat="45.03247" lon="5.57297">
        <ele>1614.335083</ele>
        <time>2013-01-12T14:34:23Z</time>
      </trkpt>
      <trkpt lat="45.03253" lon="5.57295">
        <ele>1613.559692</ele>
        <time>2013-01-12T14:34:24Z</time>
      </trkpt>
      <trkpt lat="45.03258" lon="5.57293">
        <ele>1613.042725</ele>
        <time>2013-01-12T14:34:25Z</time>
      </trkpt>
      <trkpt lat="45.03263" lon="5.57292">
        <ele>1612.009521</ele>
        <time>2013-01-12T14:34:26Z</time>
      </trkpt>
      <trkpt lat="45.03268" lon="5.57293">
        <ele>1610.792847</ele>
        <time>2013-01-12T14:34:27Z</time>
      </trkpt>
      <trkpt lat="45.03273" lon="5.57291">
        <ele>1609.98291</ele>
        <time>2013-01-12T14:34:28Z</time>
      </trkpt>
      <trkpt lat="45.03281" lon="5.5729">
        <ele>1608.175781</ele>
        <time>2013-01-12T14:34:30Z</time>
      </trkpt>
      <trkpt lat="45.0329" lon="5.57286">
        <ele>1606.382446</ele>
        <time>2013-01-12T14:34:33Z</time>
      </trkpt>
      <trkpt lat="45.03297" lon="5.5728">
        <ele>1605.010864</ele>
        <time>2013-01-12T14:34:35Z</time>
      </trkpt>
      <trkpt lat="45.03304" lon="5.57279">
        <ele>1603.242554</ele>
        <time>2013-01-12T14:34:37Z</time>
      </trkpt>
      <trkpt lat="45.03311" lon="5.57277">
        <ele>1601.70105</ele>
        <time>2013-01-12T14:34:39Z</time>
      </trkpt>
      <trkpt lat="45.03314" lon="5.57277">
        <ele>1601.087646</ele>
        <time>2013-01-12T14:34:40Z</time>
      </trkpt>
      <trkpt lat="45.03325" lon="5.5727">
        <ele>1598.73584</ele>
        <time>2013-01-12T14:34:59Z</time>
      </trkpt>
      <trkpt lat="45.0333" lon="5.57262">
        <ele>1597.955688</ele>
        <time>2013-01-12T14:35:01Z</time>
      </trkpt>
      <trkpt lat="45.03337" lon="5.5726">
        <ele>1596.526123</ele>
        <time>2013-01-12T14:35:03Z</time>
      </trkpt>
      <trkpt lat="45.03345" lon="5.57257">
        <ele>1595.027588</ele>
        <time>2013-01-12T14:35:05Z</time>
      </trkpt>
      <trkpt lat="45.03353" lon="5.57258">
        <ele>1593.463257</ele>
        <time>2013-01-12T14:35:07Z</time>
      </trkpt>
      <trkpt lat="45.03357" lon="5.57257">
        <ele>1592.873047</ele>
        <time>2013-01-12T14:35:08Z</time>
      </trkpt>
      <trkpt lat="45.03362" lon="5.57259">
        <ele>1592.173584</ele>
        <time>2013-01-12T14:35:09Z</time>
      </trkpt>
      <trkpt lat="45.03367" lon="5.57258">
        <ele>1591.542358</ele>
        <time>2013-01-12T14:35:10Z</time>
      </trkpt>
      <trkpt lat="45.03372" lon="5.57256">
        <ele>1590.968262</ele>
        <time>2013-01-12T14:35:11Z</time>
      </trkpt>
      <trkpt lat="45.03378" lon="5.57258">
        <ele>1590.20813</ele>
        <time>2013-01-12T14:35:12Z</time>
      </trkpt>
      <trkpt lat="45.03383" lon="5.57257">
        <ele>1589.602539</ele>
        <time>2013-01-12T14:35:13Z</time>
      </trkpt>
      <trkpt lat="45.03388" lon="5.57255">
        <ele>1589.086792</ele>
        <time>2013-01-12T14:35:14Z</time>
      </trkpt>
      <trkpt lat="45.03393" lon="5.57255">
        <ele>1588.428711</ele>
        <time>2013-01-12T14:35:15Z</time>
      </trkpt>
      <trkpt lat="45.03398" lon="5.57253">
        <ele>1587.837769</ele>
        <time>2013-01-12T14:35:16Z</time>
      </trkpt>
      <trkpt lat="45.03403" lon="5.5725">
        <ele>1587.485962</ele>
        <time>2013-01-12T14:35:17Z</time>
      </trkpt>
      <trkpt lat="45.03408" lon="5.57245">
        <ele>1587.235718</ele>
        <time>2013-01-12T14:35:18Z</time>
      </trkpt>
      <trkpt lat="45.03413" lon="5.57242">
        <ele>1586.771973</ele>
        <time>2013-01-12T14:35:19Z</time>
      </trkpt>
      <trkpt lat="45.03418" lon="5.57242">
        <ele>1585.978516</ele>
        <time>2013-01-12T14:35:20Z</time>
      </trkpt>
      <trkpt lat="45.03423" lon="5.5724">
        <ele>1585.447998</ele>
        <time>2013-01-12T14:35:21Z</time>
      </trkpt>
      <trkpt lat="45.03428" lon="5.57238">
        <ele>1584.934082</ele>
        <time>2013-01-12T14:35:22Z</time>
      </trkpt>
      <trkpt lat="45.03433" lon="5.57238">
        <ele>1584.146851</ele>
        <time>2013-01-12T14:35:23Z</time>
      </trkpt>
      <trkpt lat="45.03439" lon="5.57236">
        <ele>1583.605591</ele>
        <time>2013-01-12T14:35:24Z</time>
      </trkpt>
      <trkpt lat="45.03444" lon="5.57235">
        <ele>1582.664673</ele>
        <time>2013-01-12T14:35:25Z</time>
      </trkpt>
      <trkpt lat="45.0345" lon="5.57235">
        <ele>1581.592407</ele>
        <time>2013-01-12T14:35:26Z</time>
      </trkpt>
      <trkpt lat="45.03457" lon="5.57232">
        <ele>1580.650879</ele>
        <time>2013-01-12T14:35:27Z</time>
      </trkpt>
      <trkpt lat="45.03463" lon="5.57232">
        <ele>1579.359009</ele>
        <time>2013-01-12T14:35:28Z</time>
      </trkpt>
      <trkpt lat="45.03471" lon="5.57233">
        <ele>1577.890015</ele>
        <time>2013-01-12T14:35:29Z</time>
      </trkpt>
      <trkpt lat="45.03478" lon="5.57233">
        <ele>1576.452026</ele>
        <time>2013-01-12T14:35:30Z</time>
      </trkpt>
      <trkpt lat="45.03486" lon="5.57235">
        <ele>1574.649902</ele>
        <time>2013-01-12T14:35:31Z</time>
      </trkpt>
      <trkpt lat="45.03494" lon="5.57239">
        <ele>1572.703979</ele>
        <time>2013-01-12T14:35:32Z</time>
      </trkpt>
      <trkpt lat="45.03502" lon="5.57242">
        <ele>1570.76001</ele>
        <time>2013-01-12T14:35:33Z</time>
      </trkpt>
      <trkpt lat="45.0351" lon="5.57242">
        <ele>1569.230591</ele>
        <time>2013-01-12T14:35:34Z</time>
      </trkpt>
      <trkpt lat="45.03518" lon="5.57243">
        <ele>1567.623901</ele>
        <time>2013-01-12T14:35:35Z</time>
      </trkpt>
      <trkpt lat="45.03525" lon="5.57246">
        <ele>1565.900024</ele>
        <time>2013-01-12T14:35:36Z</time>
      </trkpt>
      <trkpt lat="45.03532" lon="5.57248">
        <ele>1564.446045</ele>
        <time>2013-01-12T14:35:37Z</time>
      </trkpt>
      <trkpt lat="45.03538" lon="5.57251">
        <ele>1563.617798</ele>
        <time>2013-01-12T14:35:38Z</time>
      </trkpt>
      <trkpt lat="45.03545" lon="5.57252">
        <ele>1562.82373</ele>
        <time>2013-01-12T14:35:39Z</time>
      </trkpt>
      <trkpt lat="45.03552" lon="5.57254">
        <ele>1562.021606</ele>
        <time>2013-01-12T14:35:40Z</time>
      </trkpt>
      <trkpt lat="45.03558" lon="5.57256">
        <ele>1561.172485</ele>
        <time>2013-01-12T14:35:41Z</time>
      </trkpt>
      <trkpt lat="45.03564" lon="5.57259">
        <ele>1560.2948</ele>
        <time>2013-01-12T14:35:42Z</time>
      </trkpt>
      <trkpt lat="45.0357" lon="5.57261">
        <ele>1559.425171</ele>
        <time>2013-01-12T14:35:43Z</time>
      </trkpt>
      <trkpt lat="45.03576" lon="5.57263">
        <ele>1558.550537</ele>
        <time>2013-01-12T14:35:44Z</time>
      </trkpt>
      <trkpt lat="45.03581" lon="5.57266">
        <ele>1557.903076</ele>
        <time>2013-01-12T14:35:45Z</time>
      </trkpt>
      <trkpt lat="45.03587" lon="5.57268">
        <ele>1557.225464</ele>
        <time>2013-01-12T14:35:46Z</time>
      </trkpt>
      <trkpt lat="45.03592" lon="5.5727">
        <ele>1556.551147</ele>
        <time>2013-01-12T14:35:47Z</time>
      </trkpt>
      <trkpt lat="45.03598" lon="5.57272">
        <ele>1555.873291</ele>
        <time>2013-01-12T14:35:48Z</time>
      </trkpt>
      <trkpt lat="45.03604" lon="5.57274">
        <ele>1555.175049</ele>
        <time>2013-01-12T14:35:49Z</time>
      </trkpt>
      <trkpt lat="45.0361" lon="5.57277">
        <ele>1554.385376</ele>
        <time>2013-01-12T14:35:50Z</time>
      </trkpt>
      <trkpt lat="45.03615" lon="5.5728">
        <ele>1553.49353</ele>
        <time>2013-01-12T14:35:51Z</time>
      </trkpt>
      <trkpt lat="45.03621" lon="5.5728">
        <ele>1552.98938</ele>
        <time>2013-01-12T14:35:52Z</time>
      </trkpt>
      <trkpt lat="45.03627" lon="5.5728">
        <ele>1552.558838</ele>
        <time>2013-01-12T14:35:53Z</time>
      </trkpt>
      <trkpt lat="45.03633" lon="5.5728">
        <ele>1552.084961</ele>
        <time>2013-01-12T14:35:54Z</time>
      </trkpt>
      <trkpt lat="45.03639" lon="5.57282">
        <ele>1551.293945</ele>
        <time>2013-01-12T14:35:55Z</time>
      </trkpt>
      <trkpt lat="45.03645" lon="5.57283">
        <ele>1550.634888</ele>
        <time>2013-01-12T14:35:56Z</time>
      </trkpt>
      <trkpt lat="45.03651" lon="5.57282">
        <ele>1550.29541</ele>
        <time>2013-01-12T14:35:57Z</time>
      </trkpt>
      <trkpt lat="45.03658" lon="5.57282">
        <ele>1549.795898</ele>
        <time>2013-01-12T14:35:58Z</time>
      </trkpt>
      <trkpt lat="45.03665" lon="5.57281">
        <ele>1549.324463</ele>
        <time>2013-01-12T14:35:59Z</time>
      </trkpt>
      <trkpt lat="45.03671" lon="5.57279">
        <ele>1549.339355</ele>
        <time>2013-01-12T14:36:00Z</time>
      </trkpt>
      <trkpt lat="45.03676" lon="5.57277">
        <ele>1549.32959</ele>
        <time>2013-01-12T14:36:01Z</time>
      </trkpt>
      <trkpt lat="45.03682" lon="5.57276">
        <ele>1549.239136</ele>
        <time>2013-01-12T14:36:02Z</time>
      </trkpt>
      <trkpt lat="45.03688" lon="5.57272">
        <ele>1549.387207</ele>
        <time>2013-01-12T14:36:03Z</time>
      </trkpt>
      <trkpt lat="45.03694" lon="5.57271">
        <ele>1549.220093</ele>
        <time>2013-01-12T14:36:04Z</time>
      </trkpt>
      <trkpt lat="45.037" lon="5.57269">
        <ele>1548.974609</ele>
        <time>2013-01-12T14:36:05Z</time>
      </trkpt>
      <trkpt lat="45.03707" lon="5.57268">
        <ele>1548.738892</ele>
        <time>2013-01-12T14:36:06Z</time>
      </trkpt>
      <trkpt lat="45.03713" lon="5.57263">
        <ele>1548.832397</ele>
        <time>2013-01-12T14:36:07Z</time>
      </trkpt>
      <trkpt lat="45.03718" lon="5.57256">
        <ele>1549.016479</ele>
        <time>2013-01-12T14:36:08Z</time>
      </trkpt>
      <trkpt lat="45.03724" lon="5.57252">
        <ele>1548.59375</ele>
        <time>2013-01-12T14:36:09Z</time>
      </trkpt>
      <trkpt lat="45.0373" lon="5.57247">
        <ele>1548.009888</ele>
        <time>2013-01-12T14:36:10Z</time>
      </trkpt>
      <trkpt lat="45.03736" lon="5.57241">
        <ele>1547.414917</ele>
        <time>2013-01-12T14:36:11Z</time>
      </trkpt>
      <trkpt lat="45.03742" lon="5.57234">
        <ele>1546.718994</ele>
        <time>2013-01-12T14:36:12Z</time>
      </trkpt>
      <trkpt lat="45.03749" lon="5.57227">
        <ele>1545.888428</ele>
        <time>2013-01-12T14:36:13Z</time>
      </trkpt>
      <trkpt lat="45.03756" lon="5.5722">
        <ele>1544.972046</ele>
        <time>2013-01-12T14:36:14Z</time>
      </trkpt>
      <trkpt lat="45.03764" lon="5.57212">
        <ele>1544.07251</ele>
        <time>2013-01-12T14:36:15Z</time>
      </trkpt>
      <trkpt lat="45.03771" lon="5.57205">
        <ele>1543.147339</ele>
        <time>2013-01-12T14:36:16Z</time>
      </trkpt>
      <trkpt lat="45.03778" lon="5.57197">
        <ele>1542.18396</ele>
        <time>2013-01-12T14:36:17Z</time>
      </trkpt>
      <trkpt lat="45.03786" lon="5.5719">
        <ele>1541.063232</ele>
        <time>2013-01-12T14:36:18Z</time>
      </trkpt>
      <trkpt lat="45.03793" lon="5.57184">
        <ele>1539.880249</ele>
        <time>2013-01-12T14:36:19Z</time>
      </trkpt>
      <trkpt lat="45.03801" lon="5.57178">
        <ele>1538.676514</ele>
        <time>2013-01-12T14:36:20Z</time>
      </trkpt>
      <trkpt lat="45.03808" lon="5.57173">
        <ele>1537.29248</ele>
        <time>2013-01-12T14:36:21Z</time>
      </trkpt>
      <trkpt lat="45.03815" lon="5.57169">
        <ele>1535.942871</ele>
        <time>2013-01-12T14:36:22Z</time>
      </trkpt>
      <trkpt lat="45.03822" lon="5.57166">
        <ele>1534.617798</ele>
        <time>2013-01-12T14:36:23Z</time>
      </trkpt>
      <trkpt lat="45.03828" lon="5.57164">
        <ele>1533.414673</ele>
        <time>2013-01-12T14:36:24Z</time>
      </trkpt>
      <trkpt lat="45.03834" lon="5.57162">
        <ele>1532.289063</ele>
        <time>2013-01-12T14:36:25Z</time>
      </trkpt>
      <trkpt lat="45.03839" lon="5.57162">
        <ele>1531.289307</ele>
        <time>2013-01-12T14:36:26Z</time>
      </trkpt>
      <trkpt lat="45.03844" lon="5.57162">
        <ele>1530.353149</ele>
        <time>2013-01-12T14:36:27Z</time>
      </trkpt>
      <trkpt lat="45.03853" lon="5.57163">
        <ele>1528.925293</ele>
        <time>2013-01-12T14:36:29Z</time>
      </trkpt>
      <trkpt lat="45.03861" lon="5.57166">
        <ele>1527.803101</ele>
        <time>2013-01-12T14:36:31Z</time>
      </trkpt>
      <trkpt lat="45.03869" lon="5.5717">
        <ele>1526.762817</ele>
        <time>2013-01-12T14:36:33Z</time>
      </trkpt>
      <trkpt lat="45.03876" lon="5.57174">
        <ele>1526.030518</ele>
        <time>2013-01-12T14:36:35Z</time>
      </trkpt>
      <trkpt lat="45.03883" lon="5.57178">
        <ele>1525.242798</ele>
        <time>2013-01-12T14:36:38Z</time>
      </trkpt>
      <trkpt lat="45.03891" lon="5.57184">
        <ele>1524.573242</ele>
        <time>2013-01-12T14:36:45Z</time>
      </trkpt>
      <trkpt lat="45.03891" lon="5.57185">
        <ele>1524.60022</ele>
        <time>2013-01-12T14:36:46Z</time>
      </trkpt>
      <trkpt lat="45.03905" lon="5.57199">
        <ele>1523.970337</ele>
        <time>2013-01-12T14:37:08Z</time>
      </trkpt>
      <trkpt lat="45.0391" lon="5.57209">
        <ele>1523.787842</ele>
        <time>2013-01-12T14:37:20Z</time>
      </trkpt>
      <trkpt lat="45.03916" lon="5.57217">
        <ele>1523.192383</ele>
        <time>2013-01-12T14:37:27Z</time>
      </trkpt>
      <trkpt lat="45.03923" lon="5.57223">
        <ele>1522.432617</ele>
        <time>2013-01-12T14:37:32Z</time>
      </trkpt>
      <trkpt lat="45.03931" lon="5.57228">
        <ele>1521.429688</ele>
        <time>2013-01-12T14:37:40Z</time>
      </trkpt>
      <trkpt lat="45.03939" lon="5.57234">
        <ele>1520.149414</ele>
        <time>2013-01-12T14:37:46Z</time>
      </trkpt>
      <trkpt lat="45.0394" lon="5.57235">
        <ele>1519.786621</ele>
        <time>2013-01-12T14:37:47Z</time>
      </trkpt>
      <trkpt lat="45.03949" lon="5.57249">
        <ele>1518.137207</ele>
        <time>2013-01-12T14:37:52Z</time>
      </trkpt>
      <trkpt lat="45.03954" lon="5.57256">
        <ele>1517.266113</ele>
        <time>2013-01-12T14:37:54Z</time>
      </trkpt>
      <trkpt lat="45.0396" lon="5.57256">
        <ele>1515.739868</ele>
        <time>2013-01-12T14:37:56Z</time>
      </trkpt>
      <trkpt lat="45.03965" lon="5.57261">
        <ele>1514.818848</ele>
        <time>2013-01-12T14:37:58Z</time>
      </trkpt>
      <trkpt lat="45.03972" lon="5.57262">
        <ele>1513.177979</ele>
        <time>2013-01-12T14:38:00Z</time>
      </trkpt>
      <trkpt lat="45.03981" lon="5.57262">
        <ele>1511.07251</ele>
        <time>2013-01-12T14:38:03Z</time>
      </trkpt>
      <trkpt lat="45.03988" lon="5.57263">
        <ele>1508.83252</ele>
        <time>2013-01-12T14:38:05Z</time>
      </trkpt>
      <trkpt lat="45.03993" lon="5.5727">
        <ele>1507.721313</ele>
        <time>2013-01-12T14:38:07Z</time>
      </trkpt>
      <trkpt lat="45.03999" lon="5.57271">
        <ele>1505.878784</ele>
        <time>2013-01-12T14:38:09Z</time>
      </trkpt>
      <trkpt lat="45.04005" lon="5.57266">
        <ele>1503.71875</ele>
        <time>2013-01-12T14:38:11Z</time>
      </trkpt>
      <trkpt lat="45.04014" lon="5.57264">
        <ele>1500.807495</ele>
        <time>2013-01-12T14:38:14Z</time>
      </trkpt>
      <trkpt lat="45.04021" lon="5.57261">
        <ele>1498.525024</ele>
        <time>2013-01-12T14:38:17Z</time>
      </trkpt>
      <trkpt lat="45.04028" lon="5.57263">
        <ele>1496.081299</ele>
        <time>2013-01-12T14:38:20Z</time>
      </trkpt>
      <trkpt lat="45.04037" lon="5.57265">
        <ele>1493.449951</ele>
        <time>2013-01-12T14:38:23Z</time>
      </trkpt>
      <trkpt lat="45.04044" lon="5.57259">
        <ele>1490.618774</ele>
        <time>2013-01-12T14:38:27Z</time>
      </trkpt>
      <trkpt lat="45.04051" lon="5.57257">
        <ele>1487.974976</ele>
        <time>2013-01-12T14:38:30Z</time>
      </trkpt>
      <trkpt lat="45.04058" lon="5.57253">
        <ele>1485.375</ele>
        <time>2013-01-12T14:38:33Z</time>
      </trkpt>
      <trkpt lat="45.04064" lon="5.57259">
        <ele>1483.75</ele>
        <time>2013-01-12T14:38:35Z</time>
      </trkpt>
      <trkpt lat="45.04071" lon="5.57266">
        <ele>1482.167236</ele>
        <time>2013-01-12T14:38:38Z</time>
      </trkpt>
      <trkpt lat="45.04079" lon="5.57264">
        <ele>1480.137207</ele>
        <time>2013-01-12T14:39:31Z</time>
      </trkpt>
      <trkpt lat="45.0408" lon="5.5726">
        <ele>1479.589966</ele>
        <time>2013-01-12T14:39:32Z</time>
      </trkpt>
      <trkpt lat="45.04088" lon="5.5725">
        <ele>1476.730347</ele>
        <time>2013-01-12T14:39:35Z</time>
      </trkpt>
      <trkpt lat="45.04095" lon="5.57247">
        <ele>1474.635864</ele>
        <time>2013-01-12T14:39:37Z</time>
      </trkpt>
      <trkpt lat="45.04102" lon="5.57241">
        <ele>1471.908081</ele>
        <time>2013-01-12T14:39:39Z</time>
      </trkpt>
      <trkpt lat="45.04109" lon="5.57245">
        <ele>1470.534302</ele>
        <time>2013-01-12T14:39:41Z</time>
      </trkpt>
      <trkpt lat="45.04116" lon="5.57247">
        <ele>1468.890991</ele>
        <time>2013-01-12T14:39:43Z</time>
      </trkpt>
      <trkpt lat="45.04123" lon="5.5724">
        <ele>1466.213013</ele>
        <time>2013-01-12T14:39:46Z</time>
      </trkpt>
      <trkpt lat="45.0413" lon="5.57236">
        <ele>1463.667358</ele>
        <time>2013-01-12T14:40:02Z</time>
      </trkpt>
      <trkpt lat="45.04132" lon="5.57226">
        <ele>1461.416138</ele>
        <time>2013-01-12T14:40:04Z</time>
      </trkpt>
      <trkpt lat="45.04138" lon="5.57221">
        <ele>1458.860474</ele>
        <time>2013-01-12T14:40:06Z</time>
      </trkpt>
      <trkpt lat="45.04144" lon="5.57213">
        <ele>1455.822388</ele>
        <time>2013-01-12T14:40:08Z</time>
      </trkpt>
      <trkpt lat="45.04151" lon="5.57212">
        <ele>1453.484375</ele>
        <time>2013-01-12T14:40:10Z</time>
      </trkpt>
      <trkpt lat="45.04158" lon="5.57206">
        <ele>1451.123779</ele>
        <time>2013-01-12T14:40:12Z</time>
      </trkpt>
      <trkpt lat="45.04165" lon="5.572">
        <ele>1448.433228</ele>
        <time>2013-01-12T14:40:15Z</time>
      </trkpt>
      <trkpt lat="45.04172" lon="5.57196">
        <ele>1446.453125</ele>
        <time>2013-01-12T14:40:17Z</time>
      </trkpt>
      <trkpt lat="45.04177" lon="5.57187">
        <ele>1444.353149</ele>
        <time>2013-01-12T14:40:19Z</time>
      </trkpt>
      <trkpt lat="45.04183" lon="5.57181">
        <ele>1442.192871</ele>
        <time>2013-01-12T14:40:21Z</time>
      </trkpt>
      <trkpt lat="45.04191" lon="5.57176">
        <ele>1439.888794</ele>
        <time>2013-01-12T14:40:23Z</time>
      </trkpt>
      <trkpt lat="45.04199" lon="5.57172">
        <ele>1437.377563</ele>
        <time>2013-01-12T14:40:25Z</time>
      </trkpt>
      <trkpt lat="45.04205" lon="5.57165">
        <ele>1434.907837</ele>
        <time>2013-01-12T14:40:27Z</time>
      </trkpt>
      <trkpt lat="45.04211" lon="5.57158">
        <ele>1432.755859</ele>
        <time>2013-01-12T14:40:29Z</time>
      </trkpt>
      <trkpt lat="45.04218" lon="5.57151">
        <ele>1431.255371</ele>
        <time>2013-01-12T14:40:31Z</time>
      </trkpt>
      <trkpt lat="45.04226" lon="5.57148">
        <ele>1429.846436</ele>
        <time>2013-01-12T14:40:33Z</time>
      </trkpt>
      <trkpt lat="45.0423" lon="5.57146">
        <ele>1429.054199</ele>
        <time>2013-01-12T14:40:34Z</time>
      </trkpt>
      <trkpt lat="45.0424" lon="5.57136">
        <ele>1426.639771</ele>
        <time>2013-01-12T14:40:37Z</time>
      </trkpt>
      <trkpt lat="45.04244" lon="5.57132">
        <ele>1425.719482</ele>
        <time>2013-01-12T14:40:38Z</time>
      </trkpt>
      <trkpt lat="45.04252" lon="5.57126">
        <ele>1423.888916</ele>
        <time>2013-01-12T14:40:40Z</time>
      </trkpt>
      <trkpt lat="45.04258" lon="5.57118">
        <ele>1421.991821</ele>
        <time>2013-01-12T14:40:42Z</time>
      </trkpt>
      <trkpt lat="45.04266" lon="5.57114">
        <ele>1420.047852</ele>
        <time>2013-01-12T14:40:44Z</time>
      </trkpt>
      <trkpt lat="45.04274" lon="5.57111">
        <ele>1417.932251</ele>
        <time>2013-01-12T14:40:46Z</time>
      </trkpt>
      <trkpt lat="45.04282" lon="5.57105">
        <ele>1415.735107</ele>
        <time>2013-01-12T14:40:48Z</time>
      </trkpt>
      <trkpt lat="45.04286" lon="5.57103">
        <ele>1414.632568</ele>
        <time>2013-01-12T14:40:49Z</time>
      </trkpt>
      <trkpt lat="45.0429" lon="5.571">
        <ele>1413.330322</ele>
        <time>2013-01-12T14:40:50Z</time>
      </trkpt>
      <trkpt lat="45.04295" lon="5.57098">
        <ele>1412.100952</ele>
        <time>2013-01-12T14:40:51Z</time>
      </trkpt>
      <trkpt lat="45.043" lon="5.57094">
        <ele>1411.044312</ele>
        <time>2013-01-12T14:40:52Z</time>
      </trkpt>
      <trkpt lat="45.04304" lon="5.57092">
        <ele>1410.050049</ele>
        <time>2013-01-12T14:40:53Z</time>
      </trkpt>
      <trkpt lat="45.04308" lon="5.57089">
        <ele>1409.078735</ele>
        <time>2013-01-12T14:40:54Z</time>
      </trkpt>
      <trkpt lat="45.04313" lon="5.57087">
        <ele>1408.058716</ele>
        <time>2013-01-12T14:40:55Z</time>
      </trkpt>
      <trkpt lat="45.04321" lon="5.57084">
        <ele>1406.163818</ele>
        <time>2013-01-12T14:40:57Z</time>
      </trkpt>
      <trkpt lat="45.0433" lon="5.57081">
        <ele>1404.203735</ele>
        <time>2013-01-12T14:40:59Z</time>
      </trkpt>
      <trkpt lat="45.04338" lon="5.57077">
        <ele>1402.266235</ele>
        <time>2013-01-12T14:41:01Z</time>
      </trkpt>
      <trkpt lat="45.04343" lon="5.57074">
        <ele>1401.26123</ele>
        <time>2013-01-12T14:41:02Z</time>
      </trkpt>
      <trkpt lat="45.04347" lon="5.57074">
        <ele>1400.320923</ele>
        <time>2013-01-12T14:41:03Z</time>
      </trkpt>
      <trkpt lat="45.04352" lon="5.57071">
        <ele>1399.612671</ele>
        <time>2013-01-12T14:41:04Z</time>
      </trkpt>
      <trkpt lat="45.04356" lon="5.57067">
        <ele>1398.859863</ele>
        <time>2013-01-12T14:41:05Z</time>
      </trkpt>
      <trkpt lat="45.04361" lon="5.57065">
        <ele>1398.037109</ele>
        <time>2013-01-12T14:41:06Z</time>
      </trkpt>
      <trkpt lat="45.04365" lon="5.57063">
        <ele>1397.251831</ele>
        <time>2013-01-12T14:41:07Z</time>
      </trkpt>
      <trkpt lat="45.04373" lon="5.57058">
        <ele>1395.692871</ele>
        <time>2013-01-12T14:41:09Z</time>
      </trkpt>
      <trkpt lat="45.04382" lon="5.57057">
        <ele>1394.028809</ele>
        <time>2013-01-12T14:41:11Z</time>
      </trkpt>
      <trkpt lat="45.04386" lon="5.57053">
        <ele>1392.99646</ele>
        <time>2013-01-12T14:41:12Z</time>
      </trkpt>
      <trkpt lat="45.04391" lon="5.57053">
        <ele>1392.160034</ele>
        <time>2013-01-12T14:41:13Z</time>
      </trkpt>
      <trkpt lat="45.04396" lon="5.57053">
        <ele>1391.321899</ele>
        <time>2013-01-12T14:41:14Z</time>
      </trkpt>
      <trkpt lat="45.04401" lon="5.57053">
        <ele>1390.317993</ele>
        <time>2013-01-12T14:41:15Z</time>
      </trkpt>
      <trkpt lat="45.04408" lon="5.57052">
        <ele>1389.119995</ele>
        <time>2013-01-12T14:41:16Z</time>
      </trkpt>
      <trkpt lat="45.04414" lon="5.57051">
        <ele>1387.869507</ele>
        <time>2013-01-12T14:41:17Z</time>
      </trkpt>
      <trkpt lat="45.0442" lon="5.5705">
        <ele>1386.590088</ele>
        <time>2013-01-12T14:41:18Z</time>
      </trkpt>
      <trkpt lat="45.04426" lon="5.57048">
        <ele>1385.289185</ele>
        <time>2013-01-12T14:41:19Z</time>
      </trkpt>
      <trkpt lat="45.04431" lon="5.57048">
        <ele>1384.056152</ele>
        <time>2013-01-12T14:41:20Z</time>
      </trkpt>
      <trkpt lat="45.04437" lon="5.57048">
        <ele>1383.012085</ele>
        <time>2013-01-12T14:41:21Z</time>
      </trkpt>
      <trkpt lat="45.04442" lon="5.57049">
        <ele>1381.876221</ele>
        <time>2013-01-12T14:41:22Z</time>
      </trkpt>
      <trkpt lat="45.04449" lon="5.57054">
        <ele>1380.602661</ele>
        <time>2013-01-12T14:41:24Z</time>
      </trkpt>
      <trkpt lat="45.04455" lon="5.5706">
        <ele>1380.182739</ele>
        <time>2013-01-12T14:41:26Z</time>
      </trkpt>
      <trkpt lat="45.0446" lon="5.57067">
        <ele>1380.145508</ele>
        <time>2013-01-12T14:41:30Z</time>
      </trkpt>
      <trkpt lat="45.04466" lon="5.57076">
        <ele>1379.922607</ele>
        <time>2013-01-12T14:41:34Z</time>
      </trkpt>
      <trkpt lat="45.04469" lon="5.57079">
        <ele>1379.801636</ele>
        <time>2013-01-12T14:41:35Z</time>
      </trkpt>
      <trkpt lat="45.04475" lon="5.57087">
        <ele>1379.327759</ele>
        <time>2013-01-12T14:41:37Z</time>
      </trkpt>
      <trkpt lat="45.04479" lon="5.57091">
        <ele>1378.907715</ele>
        <time>2013-01-12T14:41:38Z</time>
      </trkpt>
      <trkpt lat="45.04484" lon="5.57096">
        <ele>1378.225952</ele>
        <time>2013-01-12T14:41:39Z</time>
      </trkpt>
      <trkpt lat="45.04489" lon="5.571">
        <ele>1376.77771</ele>
        <time>2013-01-12T14:41:40Z</time>
      </trkpt>
      <trkpt lat="45.04494" lon="5.57105">
        <ele>1375.616211</ele>
        <time>2013-01-12T14:41:41Z</time>
      </trkpt>
      <trkpt lat="45.04497" lon="5.57112">
        <ele>1375.310181</ele>
        <time>2013-01-12T14:41:42Z</time>
      </trkpt>
      <trkpt lat="45.04502" lon="5.57118">
        <ele>1374.158325</ele>
        <time>2013-01-12T14:41:43Z</time>
      </trkpt>
      <trkpt lat="45.04507" lon="5.57125">
        <ele>1373.114624</ele>
        <time>2013-01-12T14:41:44Z</time>
      </trkpt>
      <trkpt lat="45.04511" lon="5.57134">
        <ele>1372.657349</ele>
        <time>2013-01-12T14:41:45Z</time>
      </trkpt>
      <trkpt lat="45.04516" lon="5.57141">
        <ele>1371.657837</ele>
        <time>2013-01-12T14:41:46Z</time>
      </trkpt>
      <trkpt lat="45.0452" lon="5.57149">
        <ele>1370.887939</ele>
        <time>2013-01-12T14:41:47Z</time>
      </trkpt>
      <trkpt lat="45.04523" lon="5.57158">
        <ele>1370.895996</ele>
        <time>2013-01-12T14:41:48Z</time>
      </trkpt>
      <trkpt lat="45.04526" lon="5.57165">
        <ele>1370.480103</ele>
        <time>2013-01-12T14:41:49Z</time>
      </trkpt>
      <trkpt lat="45.0453" lon="5.57172">
        <ele>1370.057373</ele>
        <time>2013-01-12T14:41:50Z</time>
      </trkpt>
      <trkpt lat="45.04532" lon="5.5718">
        <ele>1369.934814</ele>
        <time>2013-01-12T14:41:51Z</time>
      </trkpt>
      <trkpt lat="45.04536" lon="5.57186">
        <ele>1369.056641</ele>
        <time>2013-01-12T14:41:52Z</time>
      </trkpt>
      <trkpt lat="45.0454" lon="5.57192">
        <ele>1368.230713</ele>
        <time>2013-01-12T14:41:53Z</time>
      </trkpt>
      <trkpt lat="45.04548" lon="5.57192">
        <ele>1365.432617</ele>
        <time>2013-01-12T14:41:55Z</time>
      </trkpt>
      <trkpt lat="45.04553" lon="5.5719">
        <ele>1363.416748</ele>
        <time>2013-01-12T14:41:56Z</time>
      </trkpt>
      <trkpt lat="45.04558" lon="5.57187">
        <ele>1361.202515</ele>
        <time>2013-01-12T14:41:57Z</time>
      </trkpt>
      <trkpt lat="45.04562" lon="5.57181">
        <ele>1358.822632</ele>
        <time>2013-01-12T14:41:58Z</time>
      </trkpt>
      <trkpt lat="45.04566" lon="5.57174">
        <ele>1356.427979</ele>
        <time>2013-01-12T14:41:59Z</time>
      </trkpt>
      <trkpt lat="45.04571" lon="5.57169">
        <ele>1355.194946</ele>
        <time>2013-01-12T14:42:00Z</time>
      </trkpt>
      <trkpt lat="45.04575" lon="5.57165">
        <ele>1354.452515</ele>
        <time>2013-01-12T14:42:01Z</time>
      </trkpt>
      <trkpt lat="45.04578" lon="5.5716">
        <ele>1353.777466</ele>
        <time>2013-01-12T14:42:02Z</time>
      </trkpt>
      <trkpt lat="45.04583" lon="5.57151">
        <ele>1352.672485</ele>
        <time>2013-01-12T14:42:04Z</time>
      </trkpt>
      <trkpt lat="45.04589" lon="5.57143">
        <ele>1351.547485</ele>
        <time>2013-01-12T14:42:07Z</time>
      </trkpt>
      <trkpt lat="45.0459" lon="5.57131">
        <ele>1350.692505</ele>
        <time>2013-01-12T14:42:23Z</time>
      </trkpt>
      <trkpt lat="45.04586" lon="5.57127">
        <ele>1350.95752</ele>
        <time>2013-01-12T14:42:25Z</time>
      </trkpt>
      <trkpt lat="45.04582" lon="5.57124">
        <ele>1351.147461</ele>
        <time>2013-01-12T14:42:26Z</time>
      </trkpt>
      <trkpt lat="45.04578" lon="5.5712">
        <ele>1351.397461</ele>
        <time>2013-01-12T14:42:27Z</time>
      </trkpt>
      <trkpt lat="45.04574" lon="5.57114">
        <ele>1351.525024</ele>
        <time>2013-01-12T14:42:28Z</time>
      </trkpt>
      <trkpt lat="45.04571" lon="5.57106">
        <ele>1351.287476</ele>
        <time>2013-01-12T14:42:29Z</time>
      </trkpt>
      <trkpt lat="45.04566" lon="5.57099">
        <ele>1351.831421</ele>
        <time>2013-01-12T14:42:30Z</time>
      </trkpt>
      <trkpt lat="45.04563" lon="5.5709">
        <ele>1352.043091</ele>
        <time>2013-01-12T14:42:31Z</time>
      </trkpt>
      <trkpt lat="45.04562" lon="5.57081">
        <ele>1351.61084</ele>
        <time>2013-01-12T14:42:32Z</time>
      </trkpt>
      <trkpt lat="45.0456" lon="5.57071">
        <ele>1351.526367</ele>
        <time>2013-01-12T14:42:33Z</time>
      </trkpt>
      <trkpt lat="45.04557" lon="5.57062">
        <ele>1351.438843</ele>
        <time>2013-01-12T14:42:34Z</time>
      </trkpt>
      <trkpt lat="45.04558" lon="5.57052">
        <ele>1350.518677</ele>
        <time>2013-01-12T14:42:35Z</time>
      </trkpt>
      <trkpt lat="45.04558" lon="5.57043">
        <ele>1349.26001</ele>
        <time>2013-01-12T14:42:36Z</time>
      </trkpt>
      <trkpt lat="45.04558" lon="5.57034">
        <ele>1347.770508</ele>
        <time>2013-01-12T14:42:37Z</time>
      </trkpt>
      <trkpt lat="45.0456" lon="5.57025">
        <ele>1345.900391</ele>
        <time>2013-01-12T14:42:38Z</time>
      </trkpt>
      <trkpt lat="45.04561" lon="5.57016">
        <ele>1344.151001</ele>
        <time>2013-01-12T14:42:39Z</time>
      </trkpt>
      <trkpt lat="45.04564" lon="5.57009">
        <ele>1342.323242</ele>
        <time>2013-01-12T14:42:40Z</time>
      </trkpt>
      <trkpt lat="45.04567" lon="5.57002">
        <ele>1340.334717</ele>
        <time>2013-01-12T14:42:41Z</time>
      </trkpt>
      <trkpt lat="45.0457" lon="5.56995">
        <ele>1338.185425</ele>
        <time>2013-01-12T14:42:42Z</time>
      </trkpt>
      <trkpt lat="45.04574" lon="5.56988">
        <ele>1336.077026</ele>
        <time>2013-01-12T14:42:43Z</time>
      </trkpt>
      <trkpt lat="45.04578" lon="5.5698">
        <ele>1333.729248</ele>
        <time>2013-01-12T14:42:44Z</time>
      </trkpt>
      <trkpt lat="45.04583" lon="5.56973">
        <ele>1331.358887</ele>
        <time>2013-01-12T14:42:45Z</time>
      </trkpt>
      <trkpt lat="45.04589" lon="5.56967">
        <ele>1329.430542</ele>
        <time>2013-01-12T14:42:46Z</time>
      </trkpt>
      <trkpt lat="45.04595" lon="5.5696">
        <ele>1327.391357</ele>
        <time>2013-01-12T14:42:47Z</time>
      </trkpt>
      <trkpt lat="45.046" lon="5.56953">
        <ele>1325.44751</ele>
        <time>2013-01-12T14:42:48Z</time>
      </trkpt>
      <trkpt lat="45.04606" lon="5.56948">
        <ele>1324.036987</ele>
        <time>2013-01-12T14:42:49Z</time>
      </trkpt>
      <trkpt lat="45.04612" lon="5.56942">
        <ele>1322.591797</ele>
        <time>2013-01-12T14:42:50Z</time>
      </trkpt>
      <trkpt lat="45.04618" lon="5.56936">
        <ele>1321.2229</ele>
        <time>2013-01-12T14:42:51Z</time>
      </trkpt>
      <trkpt lat="45.04624" lon="5.56932">
        <ele>1320.63147</ele>
        <time>2013-01-12T14:42:52Z</time>
      </trkpt>
      <trkpt lat="45.0463" lon="5.56927">
        <ele>1319.873413</ele>
        <time>2013-01-12T14:42:53Z</time>
      </trkpt>
      <trkpt lat="45.04636" lon="5.56922">
        <ele>1318.604858</ele>
        <time>2013-01-12T14:42:54Z</time>
      </trkpt>
      <trkpt lat="45.04643" lon="5.56917">
        <ele>1317.513916</ele>
        <time>2013-01-12T14:42:55Z</time>
      </trkpt>
      <trkpt lat="45.04649" lon="5.56912">
        <ele>1316.012695</ele>
        <time>2013-01-12T14:42:56Z</time>
      </trkpt>
      <trkpt lat="45.04655" lon="5.56907">
        <ele>1314.949951</ele>
        <time>2013-01-12T14:42:57Z</time>
      </trkpt>
      <trkpt lat="45.04661" lon="5.56904">
        <ele>1314.296143</ele>
        <time>2013-01-12T14:42:58Z</time>
      </trkpt>
      <trkpt lat="45.04667" lon="5.56899">
        <ele>1312.897461</ele>
        <time>2013-01-12T14:42:59Z</time>
      </trkpt>
      <trkpt lat="45.04674" lon="5.56895">
        <ele>1311.665039</ele>
        <time>2013-01-12T14:43:00Z</time>
      </trkpt>
      <trkpt lat="45.0468" lon="5.56891">
        <ele>1310.845093</ele>
        <time>2013-01-12T14:43:01Z</time>
      </trkpt>
      <trkpt lat="45.04687" lon="5.56887">
        <ele>1309.672852</ele>
        <time>2013-01-12T14:43:02Z</time>
      </trkpt>
      <trkpt lat="45.04693" lon="5.56884">
        <ele>1309.179321</ele>
        <time>2013-01-12T14:43:03Z</time>
      </trkpt>
      <trkpt lat="45.047" lon="5.56881">
        <ele>1308.73999</ele>
        <time>2013-01-12T14:43:04Z</time>
      </trkpt>
      <trkpt lat="45.04706" lon="5.56876">
        <ele>1307.778687</ele>
        <time>2013-01-12T14:43:05Z</time>
      </trkpt>
      <trkpt lat="45.04713" lon="5.56873">
        <ele>1307.390137</ele>
        <time>2013-01-12T14:43:06Z</time>
      </trkpt>
      <trkpt lat="45.04719" lon="5.56868">
        <ele>1306.631958</ele>
        <time>2013-01-12T14:43:07Z</time>
      </trkpt>
      <trkpt lat="45.04724" lon="5.56863">
        <ele>1305.373901</ele>
        <time>2013-01-12T14:43:08Z</time>
      </trkpt>
      <trkpt lat="45.04729" lon="5.56857">
        <ele>1304.145142</ele>
        <time>2013-01-12T14:43:09Z</time>
      </trkpt>
      <trkpt lat="45.04735" lon="5.56852">
        <ele>1303.005005</ele>
        <time>2013-01-12T14:43:10Z</time>
      </trkpt>
      <trkpt lat="45.0474" lon="5.56847">
        <ele>1301.828125</ele>
        <time>2013-01-12T14:43:11Z</time>
      </trkpt>
      <trkpt lat="45.04746" lon="5.56841">
        <ele>1300.730225</ele>
        <time>2013-01-12T14:43:12Z</time>
      </trkpt>
      <trkpt lat="45.04753" lon="5.56837">
        <ele>1300.029663</ele>
        <time>2013-01-12T14:43:13Z</time>
      </trkpt>
      <trkpt lat="45.0476" lon="5.56835">
        <ele>1299.920166</ele>
        <time>2013-01-12T14:43:14Z</time>
      </trkpt>
      <trkpt lat="45.04767" lon="5.56833">
        <ele>1299.572754</ele>
        <time>2013-01-12T14:43:15Z</time>
      </trkpt>
      <trkpt lat="45.04773" lon="5.56829">
        <ele>1298.750732</ele>
        <time>2013-01-12T14:43:16Z</time>
      </trkpt>
      <trkpt lat="45.0478" lon="5.56827">
        <ele>1298.289673</ele>
        <time>2013-01-12T14:43:17Z</time>
      </trkpt>
      <trkpt lat="45.04787" lon="5.56825">
        <ele>1297.951294</ele>
        <time>2013-01-12T14:43:18Z</time>
      </trkpt>
      <trkpt lat="45.04793" lon="5.5682">
        <ele>1297.125854</ele>
        <time>2013-01-12T14:43:19Z</time>
      </trkpt>
      <trkpt lat="45.048" lon="5.56818">
        <ele>1296.843384</ele>
        <time>2013-01-12T14:43:20Z</time>
      </trkpt>
      <trkpt lat="45.04806" lon="5.56815">
        <ele>1295.981201</ele>
        <time>2013-01-12T14:43:21Z</time>
      </trkpt>
      <trkpt lat="45.04812" lon="5.5681">
        <ele>1294.599731</ele>
        <time>2013-01-12T14:43:22Z</time>
      </trkpt>
      <trkpt lat="45.04818" lon="5.56808">
        <ele>1293.877563</ele>
        <time>2013-01-12T14:43:23Z</time>
      </trkpt>
      <trkpt lat="45.04823" lon="5.56805">
        <ele>1292.907227</ele>
        <time>2013-01-12T14:43:24Z</time>
      </trkpt>
      <trkpt lat="45.04827" lon="5.568">
        <ele>1291.695435</ele>
        <time>2013-01-12T14:43:25Z</time>
      </trkpt>
      <trkpt lat="45.04836" lon="5.56797">
        <ele>1290.571655</ele>
        <time>2013-01-12T14:43:27Z</time>
      </trkpt>
      <trkpt lat="45.04844" lon="5.56792">
        <ele>1289.062988</ele>
        <time>2013-01-12T14:43:30Z</time>
      </trkpt>
      <trkpt lat="45.0485" lon="5.56786">
        <ele>1287.523193</ele>
        <time>2013-01-12T14:43:36Z</time>
      </trkpt>
      <trkpt lat="45.04852" lon="5.56782">
        <ele>1286.320557</ele>
        <time>2013-01-12T14:43:37Z</time>
      </trkpt>
      <trkpt lat="45.04859" lon="5.56775">
        <ele>1283.887939</ele>
        <time>2013-01-12T14:43:39Z</time>
      </trkpt>
      <trkpt lat="45.04863" lon="5.5677">
        <ele>1282.422485</ele>
        <time>2013-01-12T14:43:40Z</time>
      </trkpt>
      <trkpt lat="45.04866" lon="5.56766">
        <ele>1281.095093</ele>
        <time>2013-01-12T14:43:41Z</time>
      </trkpt>
      <trkpt lat="45.04873" lon="5.56759">
        <ele>1278.657837</ele>
        <time>2013-01-12T14:43:43Z</time>
      </trkpt>
      <trkpt lat="45.0488" lon="5.56753">
        <ele>1276.396484</ele>
        <time>2013-01-12T14:43:45Z</time>
      </trkpt>
      <trkpt lat="45.04885" lon="5.56746">
        <ele>1274.559937</ele>
        <time>2013-01-12T14:43:47Z</time>
      </trkpt>
      <trkpt lat="45.0489" lon="5.56739">
        <ele>1272.719971</ele>
        <time>2013-01-12T14:43:49Z</time>
      </trkpt>
      <trkpt lat="45.04894" lon="5.56729">
        <ele>1270.652466</ele>
        <time>2013-01-12T14:43:51Z</time>
      </trkpt>
      <trkpt lat="45.04897" lon="5.5672">
        <ele>1268.920044</ele>
        <time>2013-01-12T14:43:53Z</time>
      </trkpt>
      <trkpt lat="45.04901" lon="5.56711">
        <ele>1266.930054</ele>
        <time>2013-01-12T14:43:55Z</time>
      </trkpt>
      <trkpt lat="45.04905" lon="5.56701">
        <ele>1264.79248</ele>
        <time>2013-01-12T14:43:57Z</time>
      </trkpt>
      <trkpt lat="45.04908" lon="5.56696">
        <ele>1263.60498</ele>
        <time>2013-01-12T14:43:58Z</time>
      </trkpt>
      <trkpt lat="45.04909" lon="5.56689">
        <ele>1262.432495</ele>
        <time>2013-01-12T14:43:59Z</time>
      </trkpt>
      <trkpt lat="45.04914" lon="5.56679">
        <ele>1260.298706</ele>
        <time>2013-01-12T14:44:01Z</time>
      </trkpt>
      <trkpt lat="45.04918" lon="5.56668">
        <ele>1258.168701</ele>
        <time>2013-01-12T14:44:03Z</time>
      </trkpt>
      <trkpt lat="45.04924" lon="5.56658">
        <ele>1256.016235</ele>
        <time>2013-01-12T14:44:05Z</time>
      </trkpt>
      <trkpt lat="45.04926" lon="5.56652">
        <ele>1254.89502</ele>
        <time>2013-01-12T14:44:06Z</time>
      </trkpt>
      <trkpt lat="45.04932" lon="5.56642">
        <ele>1252.787476</ele>
        <time>2013-01-12T14:44:08Z</time>
      </trkpt>
      <trkpt lat="45.04934" lon="5.56637">
        <ele>1251.673706</ele>
        <time>2013-01-12T14:44:09Z</time>
      </trkpt>
      <trkpt lat="45.04938" lon="5.56633">
        <ele>1250.58252</ele>
        <time>2013-01-12T14:44:10Z</time>
      </trkpt>
      <trkpt lat="45.0494" lon="5.56627">
        <ele>1249.441895</ele>
        <time>2013-01-12T14:44:11Z</time>
      </trkpt>
      <trkpt lat="45.04943" lon="5.5662">
        <ele>1248.168579</ele>
        <time>2013-01-12T14:44:12Z</time>
      </trkpt>
      <trkpt lat="45.04947" lon="5.56616">
        <ele>1246.97876</ele>
        <time>2013-01-12T14:44:13Z</time>
      </trkpt>
      <trkpt lat="45.0495" lon="5.5661">
        <ele>1245.778809</ele>
        <time>2013-01-12T14:44:14Z</time>
      </trkpt>
      <trkpt lat="45.04953" lon="5.56605">
        <ele>1244.537476</ele>
        <time>2013-01-12T14:44:15Z</time>
      </trkpt>
      <trkpt lat="45.04958" lon="5.56601">
        <ele>1243.405029</ele>
        <time>2013-01-12T14:44:16Z</time>
      </trkpt>
      <trkpt lat="45.04961" lon="5.56596">
        <ele>1242.298706</ele>
        <time>2013-01-12T14:44:17Z</time>
      </trkpt>
      <trkpt lat="45.04965" lon="5.56592">
        <ele>1241.117432</ele>
        <time>2013-01-12T14:44:18Z</time>
      </trkpt>
      <trkpt lat="45.0497" lon="5.56588">
        <ele>1239.891235</ele>
        <time>2013-01-12T14:44:19Z</time>
      </trkpt>
      <trkpt lat="45.04973" lon="5.56582">
        <ele>1238.54126</ele>
        <time>2013-01-12T14:44:20Z</time>
      </trkpt>
      <trkpt lat="45.04977" lon="5.56576">
        <ele>1237.153687</ele>
        <time>2013-01-12T14:44:21Z</time>
      </trkpt>
      <trkpt lat="45.04982" lon="5.56572">
        <ele>1235.897461</ele>
        <time>2013-01-12T14:44:22Z</time>
      </trkpt>
      <trkpt lat="45.04986" lon="5.56566">
        <ele>1234.651245</ele>
        <time>2013-01-12T14:44:23Z</time>
      </trkpt>
      <trkpt lat="45.04988" lon="5.5656">
        <ele>1233.752441</ele>
        <time>2013-01-12T14:44:24Z</time>
      </trkpt>
      <trkpt lat="45.0499" lon="5.56554">
        <ele>1232.777466</ele>
        <time>2013-01-12T14:44:25Z</time>
      </trkpt>
      <trkpt lat="45.04993" lon="5.5655">
        <ele>1231.998047</ele>
        <time>2013-01-12T14:44:26Z</time>
      </trkpt>
      <trkpt lat="45.04998" lon="5.56546">
        <ele>1231.205933</ele>
        <time>2013-01-12T14:44:27Z</time>
      </trkpt>
      <trkpt lat="45.05002" lon="5.56542">
        <ele>1230.339844</ele>
        <time>2013-01-12T14:44:28Z</time>
      </trkpt>
      <trkpt lat="45.05008" lon="5.56538">
        <ele>1229.44458</ele>
        <time>2013-01-12T14:44:29Z</time>
      </trkpt>
      <trkpt lat="45.05013" lon="5.56536">
        <ele>1228.754517</ele>
        <time>2013-01-12T14:44:30Z</time>
      </trkpt>
      <trkpt lat="45.05021" lon="5.5653">
        <ele>1227.44873</ele>
        <time>2013-01-12T14:44:33Z</time>
      </trkpt>
      <trkpt lat="45.05028" lon="5.56522">
        <ele>1225.924683</ele>
        <time>2013-01-12T14:44:39Z</time>
      </trkpt>
      <trkpt lat="45.05029" lon="5.56522">
        <ele>1225.781616</ele>
        <time>2013-01-12T14:44:40Z</time>
      </trkpt>
      <trkpt lat="45.05041" lon="5.56515">
        <ele>1224.710449</ele>
        <time>2013-01-12T14:44:46Z</time>
      </trkpt>
      <trkpt lat="45.05047" lon="5.56512">
        <ele>1225.026855</ele>
        <time>2013-01-12T14:44:48Z</time>
      </trkpt>
      <trkpt lat="45.05055" lon="5.56509">
        <ele>1225.623657</ele>
        <time>2013-01-12T14:44:51Z</time>
      </trkpt>
      <trkpt lat="45.05063" lon="5.56508">
        <ele>1226.466187</ele>
        <time>2013-01-12T14:44:56Z</time>
      </trkpt>
      <trkpt lat="45.05071" lon="5.56506">
        <ele>1227.139893</ele>
        <time>2013-01-12T14:45:03Z</time>
      </trkpt>
      <trkpt lat="45.05079" lon="5.56502">
        <ele>1227.425659</ele>
        <time>2013-01-12T14:45:12Z</time>
      </trkpt>
      <trkpt lat="45.05087" lon="5.56501">
        <ele>1228.840088</ele>
        <time>2013-01-12T14:45:18Z</time>
      </trkpt>
      <trkpt lat="45.05092" lon="5.56493">
        <ele>1228.671753</ele>
        <time>2013-01-12T14:45:21Z</time>
      </trkpt>
      <trkpt lat="45.05097" lon="5.56486">
        <ele>1228.393921</ele>
        <time>2013-01-12T14:45:23Z</time>
      </trkpt>
      <trkpt lat="45.05101" lon="5.5648">
        <ele>1228.167969</ele>
        <time>2013-01-12T14:45:25Z</time>
      </trkpt>
      <trkpt lat="45.05106" lon="5.56471">
        <ele>1227.75293</ele>
        <time>2013-01-12T14:45:28Z</time>
      </trkpt>
      <trkpt lat="45.05113" lon="5.56463">
        <ele>1227.505005</ele>
        <time>2013-01-12T14:46:08Z</time>
      </trkpt>
      <trkpt lat="45.05113" lon="5.56463">
        <ele>1227.503784</ele>
        <time>2013-01-12T14:46:09Z</time>
      </trkpt>
      <trkpt lat="45.05125" lon="5.56448">
        <ele>1227.079102</ele>
        <time>2013-01-12T14:46:27Z</time>
      </trkpt>
      <trkpt lat="45.05131" lon="5.5644">
        <ele>1227.276245</ele>
        <time>2013-01-12T14:46:35Z</time>
      </trkpt>
      <trkpt lat="45.05138" lon="5.56432">
        <ele>1228.337524</ele>
        <time>2013-01-12T14:46:44Z</time>
      </trkpt>
      <trkpt lat="45.05143" lon="5.56423">
        <ele>1228.671265</ele>
        <time>2013-01-12T14:46:53Z</time>
      </trkpt>
      <trkpt lat="45.05149" lon="5.56414">
        <ele>1229.016235</ele>
        <time>2013-01-12T14:47:01Z</time>
      </trkpt>
      <trkpt lat="45.05154" lon="5.56406">
        <ele>1229.61499</ele>
        <time>2013-01-12T14:47:09Z</time>
      </trkpt>
      <trkpt lat="45.05155" lon="5.56405">
        <ele>1229.76123</ele>
        <time>2013-01-12T14:47:10Z</time>
      </trkpt>
      <trkpt lat="45.05167" lon="5.56391">
        <ele>1231.38501</ele>
        <time>2013-01-12T14:47:27Z</time>
      </trkpt>
      <trkpt lat="45.05172" lon="5.56381">
        <ele>1232.060181</ele>
        <time>2013-01-12T14:47:36Z</time>
      </trkpt>
      <trkpt lat="45.05177" lon="5.56371">
        <ele>1232.788818</ele>
        <time>2013-01-12T14:47:44Z</time>
      </trkpt>
      <trkpt lat="45.05182" lon="5.56361">
        <ele>1233.430664</ele>
        <time>2013-01-12T14:47:53Z</time>
      </trkpt>
      <trkpt lat="45.05186" lon="5.5635">
        <ele>1233.968994</ele>
        <time>2013-01-12T14:48:01Z</time>
      </trkpt>
      <trkpt lat="45.0519" lon="5.5634">
        <ele>1234.352051</ele>
        <time>2013-01-12T14:48:09Z</time>
      </trkpt>
      <trkpt lat="45.05193" lon="5.56329">
        <ele>1234.531372</ele>
        <time>2013-01-12T14:48:17Z</time>
      </trkpt>
      <trkpt lat="45.05194" lon="5.56328">
        <ele>1234.600952</ele>
        <time>2013-01-12T14:48:18Z</time>
      </trkpt>
      <trkpt lat="45.052" lon="5.56307">
        <ele>1235.738159</ele>
        <time>2013-01-12T14:48:34Z</time>
      </trkpt>
      <trkpt lat="45.05206" lon="5.56299">
        <ele>1237.234253</ele>
        <time>2013-01-12T14:48:44Z</time>
      </trkpt>
      <trkpt lat="45.05212" lon="5.56291">
        <ele>1238.874512</ele>
        <time>2013-01-12T14:48:54Z</time>
      </trkpt>
      <trkpt lat="45.05219" lon="5.56284">
        <ele>1240.604492</ele>
        <time>2013-01-12T14:49:05Z</time>
      </trkpt>
      <trkpt lat="45.05223" lon="5.56274">
        <ele>1241.128174</ele>
        <time>2013-01-12T14:49:18Z</time>
      </trkpt>
      <trkpt lat="45.05223" lon="5.56273">
        <ele>1241.187744</ele>
        <time>2013-01-12T14:49:19Z</time>
      </trkpt>
      <trkpt lat="45.05226" lon="5.56261">
        <ele>1240.841064</ele>
        <time>2013-01-12T14:50:47Z</time>
      </trkpt>
    </trkseg>
  </trk>
</gpx>